[[{"header":{"parameterUnit":"m.s-1","parameterCategory":1,"la1":30.6,"la2":28.766,"lo1":-90.7593,"lo2":-88.6598,"dy":0.0162,"dx":0.0183,"nx":116,"ny":114,"refTime":"2023-07-02T12:00:00:Z","depth":0,"parameterNumber":2,"parameterNumberName":"U-component_of_WINDS"},"data":[0.0,0.0,0.0,0.0,0.0,0.0,0.0,0.0,0.0,0.0,0.0,0.0,0.0,0.0,0.0,0.0,0.0,0.0,0.0,0.0,0.0,0.0,0.0,0.0,0.0,0.0,0.0,0.0,0.0,0.0,0.0,0.0,0.0,0.0,0.0,0.0,0.0,0.0,0.0,0.0,0.0,0.0,0.0,0.0,0.0,0.0,0.0,0.0,0.0,0.0,0.0,0.0,0.0,0.0,0.0,0.0,0.0,0.0,0.0,0.0,0.0,0.0,0.0,0.0,0.0,0.0,0.0,0.0,0.0,0.0,0.0,0.0,0.0,0.0,0.0,0.0,0.0,0.0,0.0,0.0,0.0,0.0,0.0,0.0,0.0,0.0,0.0,0.0,0.0,0.0,0.0,0.0,0.0,0.0,0.0,0.0,0.0,0.0,0.0,0.0,0.0,0.0,0.0,0.0,0.0,0.0,0.0,0.0,0.0,0.0,0.0,0.0,0.0,0.0,0.0,0.0,0.0,0.0,0.0,0.0,0.0,0.0,0.0,0.0,0.0,0.0,0.0,0.0,0.0,0.0,0.0,0.0,0.0,0.0,0.0,0.0,0.0,0.0,0.0,0.0,0.0,0.0,0.0,0.0,0.0,0.0,0.0,0.0,0.0,0.0,0.0,0.0,0.0,0.0,0.0,0.0,0.0,0.0,0.0,0.0,0.0,0.0,0.0,0.0,0.0,0.0,0.0,0.0,0.0,0.0,0.0,0.0,0.0,0.0,0.0,0.0,0.0,0.0,0.0,0.0,0.0,0.0,0.0,0.0,0.0,0.0,0.0,0.0,0.0,0.0,0.0,0.0,0.0,0.0,0.0,0.0,0.0,0.0,0.0,0.0,0.0,0.0,0.0,0.0,0.0,0.0,0.0,0.0,0.0,0.0,0.0,0.0,0.0,0.0,0.0,0.0,0.0,0.0,0.0,0.0,0.0,0.0,0.0,0.0,0.0,0.0,0.0,0.0,0.0,0.0,0.0,0.0,0.0,0.0,0.0,0.0,0.0,0.0,0.0,0.0,0.0,0.0,0.0,0.0,0.0,0.0,0.0,0.0,0.0,0.0,0.0,0.0,0.0,0.0,0.0,0.0,0.0,0.0,0.0,0.0,0.0,0.0,0.0,0.0,0.0,0.0,0.0,0.0,0.0,0.0,0.0,0.0,0.0,0.0,0.0,0.0,0.0,0.0,0.0,0.0,0.0,0.0,0.0,0.0,0.0,0.0,0.0,0.0,0.0,0.0,0.0,0.0,0.0,0.0,0.0,0.0,0.0,0.0,0.0,0.0,0.0,0.0,0.0,0.0,0.0,0.0,0.0,0.0,0.0,0.0,0.0,0.0,0.0,0.0,0.0,0.0,0.0,0.0,0.0,0.0,0.0,0.0,0.0,0.0,0.0,0.0,0.0,0.0,0.0,0.0,0.0,0.0,0.0,0.0,0.0,0.0,0.0,0.0,0.0,0.0,0.0,0.0,0.0,0.0,0.0,0.0,0.0,0.0,0.0,0.0,0.0,0.0,0.0,0.0,0.0,0.0,0.0,0.0,0.0,0.0,0.0,0.0,0.0,0.0,0.0,0.0,0.0,0.0,0.0,0.0,0.0,0.0,0.0,0.0,0.0,0.0,0.0,0.0,0.0,0.0,0.0,0.0,0.0,0.0,0.0,0.0,0.0,0.0,0.0,0.0,0.0,0.0,0.0,0.0,0.0,0.0,0.0,0.0,0.0,0.0,0.0,0.0,0.0,0.0,0.0,0.0,0.0,0.0,0.0,0.0,0.0,0.0,0.0,0.0,0.0,0.0,0.0,0.0,0.0,0.0,0.0,0.0,0.0,0.0,0.0,0.0,0.0,0.0,0.0,0.0,0.0,0.0,0.0,0.0,0.0,0.0,0.0,0.0,0.0,0.0,0.0,0.0,0.0,0.0,0.0,0.0,0.0,0.0,0.0,0.0,0.0,0.0,0.0,0.0,0.0,0.0,0.0,0.0,0.0,0.0,0.0,0.0,0.0,0.0,0.0,0.0,0.0,0.0,0.0,0.0,0.0,0.0,0.0,0.0,0.0,0.0,0.0,0.0,0.0,0.0,0.0,0.0,0.0,0.0,0.0,0.0,0.0,0.0,0.0,0.0,0.0,0.0,0.0,0.0,0.0,0.0,0.0,0.0,0.0,0.0,0.0,0.0,0.0,0.0,0.0,0.0,0.0,0.0,0.0,0.0,0.0,0.0,0.0,0.0,0.0,0.0,0.0,0.0,0.0,0.0,0.0,0.0,0.0,0.0,0.0,0.0,0.0,0.0,0.0,0.0,0.0,0.0,0.0,0.0,0.0,0.0,0.0,0.0,0.0,0.0,0.0,0.0,0.0,0.0,0.0,0.0,0.0,0.0,0.0,0.0,0.0,0.0,0.0,0.0,0.0,0.0,0.0,0.0,0.0,0.0,0.0,0.0,0.0,0.0,0.0,0.0,0.0,0.0,0.0,0.0,0.0,0.0,0.0,0.0,0.0,0.0,0.0,0.0,0.0,0.0,0.0,0.0,0.0,0.0,0.0,0.0,0.0,0.0,0.0,0.0,0.0,0.0,0.0,0.0,0.0,0.0,0.0,0.0,0.0,0.0,0.0,0.0,0.0,0.0,0.0,0.0,0.0,0.0,0.0,0.0,0.0,0.0,0.0,0.0,0.0,0.0,0.0,0.0,0.0,0.0,0.0,0.0,0.0,0.0,0.0,0.0,0.0,0.0,0.0,0.0,0.0,0.0,0.0,0.0,0.0,0.0,0.0,0.0,0.0,0.0,0.0,0.0,0.0,0.0,0.0,0.0,0.0,0.0,0.0,0.0,0.0,0.0,0.0,0.0,0.0,0.0,0.0,0.0,0.0,0.0,0.0,0.0,0.0,0.0,0.0,0.0,0.0,0.0,0.0,0.0,0.0,0.0,0.0,0.0,0.0,0.0,0.0,0.0,0.0,0.0,0.0,0.0,0.0,0.0,0.0,0.0,0.0,0.0,0.0,0.0,0.0,0.0,0.0,0.0,0.0,0.0,0.0,0.0,0.0,0.0,0.0,0.0,0.0,0.0,0.0,0.0,0.0,0.0,0.0,0.0,0.0,0.0,0.0,0.0,0.0,0.0,0.0,0.0,0.0,0.0,0.0,0.0,0.0,0.0,0.0,0.0,0.0,0.0,0.0,0.0,0.0,0.0,0.0,0.0,0.0,0.0,0.0,0.0,0.0,0.0,0.0,0.0,0.0,0.0,0.0,0.0,0.0,0.0,0.0,0.0,0.0,0.0,0.0,0.0,0.0,0.0,0.0,0.0,0.0,0.0,0.0,0.0,0.0,0.0,0.0,0.0,0.0,0.0,0.0,0.0,0.0,0.0,0.0,0.0,0.0,0.0,0.0,0.0,0.0,0.0,0.0,0.0,0.0,0.0,0.0,0.0,0.0,0.0,0.0,0.0,0.0,0.0,0.0,0.0,0.0,0.0,0.0,0.0,0.0,0.0,0.0,0.0,0.0,0.0,0.0,0.0,0.0,0.0,0.0,0.0,0.0,0.0,0.0,0.0,0.0,0.0,0.0,0.0,0.0,0.0,0.0,0.0,0.0,0.0,0.0,0.0,0.0,0.0,0.0,0.0,0.0,0.0,0.0,0.0,0.0,0.0,0.0,0.0,0.0,0.0,0.0,0.0,0.0,0.0,0.0,0.0,0.0,0.0,0.0,0.0,0.0,0.0,0.0,0.0,0.0,0.0,0.0,0.0,0.0,0.0,0.0,0.0,0.0,0.0,0.0,0.0,0.0,0.0,0.0,0.0,0.0,0.0,0.0,0.0,0.0,0.0,0.0,0.0,0.0,0.0,0.0,0.0,0.0,0.0,0.0,0.0,0.0,0.0,0.0,0.0,0.0,0.0,0.0,0.0,0.0,0.0,0.0,0.0,0.0,0.0,0.0,0.0,0.0,0.0,0.0,0.0,0.0,0.0,0.0,0.0,0.0,0.0,0.0,0.0,0.0,0.0,0.0,0.0,0.0,0.0,0.0,0.0,0.0,0.0,0.0,0.0,0.0,0.0,0.0,0.0,0.0,0.0,0.0,0.0,0.0,0.0,0.0,0.0,0.0,0.0,0.0,0.0,0.0,0.0,0.0,0.0,0.0,0.0,0.0,0.0,0.0,0.0,0.0,0.0,0.0,0.0,0.0,0.0,0.0,0.0,0.0,0.0,0.0,0.0,0.0,0.0,0.0,0.0,0.0,0.0,0.0,0.0,0.0,0.0,0.0,0.0,0.0,0.0,0.0,0.0,0.0,0.0,0.0,0.0,0.0,0.0,0.0,0.0,0.0,0.0,0.0,0.0,0.0,0.0,0.0,0.0,0.0,0.0,0.0,0.0,0.0,0.0,0.0,0.0,0.0,0.0,0.0,0.0,0.0,0.0,0.0,0.0,0.0,0.0,0.0,0.0,0.0,0.0,0.0,0.0,0.0,0.0,0.0,0.0,0.0,0.0,0.0,0.0,0.0,0.0,0.0,0.0,0.0,0.0,0.0,0.0,0.0,0.0,0.0,0.0,0.0,0.0,0.0,0.0,0.0,0.0,0.0,0.0,0.0,0.0,0.0,0.0,0.0,0.0,0.0,0.0,0.0,0.0,0.0,0.0,0.0,0.0,0.0,0.0,0.0,0.0,0.0,0.0,0.0,0.0,0.0,0.0,0.0,0.0,0.0,0.0,0.0,0.0,0.0,0.0,0.0,0.0,0.0,0.0,0.0,0.0,0.0,0.0,0.0,0.0,0.0,0.0,0.0,0.0,0.0,0.0,0.0,0.0,0.0,0.0,0.0,0.0,0.0,0.0,0.0,0.0,0.0,0.0,0.0,0.0,0.0,0.0,0.0,0.0,0.0,0.0,0.0,0.0,0.0,0.0,0.0,0.0,0.0,0.0,0.0,0.0,0.0,0.0,0.0,0.0,0.0,0.0,0.0,0.0,0.0,0.0,0.0,0.0,0.0,0.0,0.0,0.0,0.0,0.0,0.0,0.0,0.0,0.0,0.0,0.0,0.0,0.0,0.0,0.0,0.0,0.0,0.0,0.0,0.0,0.0,0.0,0.0,0.0,0.0,0.0,0.0,0.0,0.0,0.0,0.0,0.0,0.0,0.0,0.0,0.0,0.0,0.0,0.0,0.0,0.0,0.0,0.0,0.0,0.0,0.0,0.0,0.0,0.0,0.0,0.0,0.0,0.0,0.0,0.0,0.0,0.0,0.0,0.0,0.0,0.0,0.0,0.0,0.0,0.0,0.0,0.0,0.0,0.0,0.0,0.0,0.0,0.0,0.0,0.0,0.0,0.0,0.0,0.0,0.0,0.0,0.0,0.0,0.0,0.0,0.0,0.0,0.0,0.0,0.0,0.0,0.0,0.0,0.0,0.0,0.0,0.0,0.0,0.0,0.0,0.0,0.0,0.0,0.0,0.0,0.0,0.0,0.0,0.0,0.0,0.0,0.0,0.0,0.0,0.0,0.0,0.0,0.0,0.0,0.0,0.0,0.0,0.0,0.0,0.0,0.0,0.0,0.0,0.0,0.0,0.0,0.0,0.0,0.0,0.0,0.0,0.0,0.0,0.0,0.0,0.0,0.0,0.0,0.0,0.0,0.0,0.0,0.0,0.0,0.0,0.0,0.0,0.0,0.0,0.0,0.0,0.0,0.0,0.0,0.0,0.0,0.0,0.0,0.0,0.0,0.0,0.0,0.0,0.0,0.0,0.0,0.0,0.0,0.0,0.0,0.0,0.0,0.0,0.0,0.0,0.0,0.0,0.0,0.0,0.0,0.0,0.0,0.0,0.0,0.0,0.0,0.0,0.0,0.0,0.0,0.0,0.0,0.0,0.0,0.0,0.0,0.0,0.0,0.0,0.0,0.0,0.0,0.0,0.0,0.0,0.0,0.0,0.0,0.0,0.0,0.0,0.0,0.0,0.0,0.0,0.0,0.0,0.0,0.0,0.0,0.0,0.0,0.0,0.0,0.0,0.0,0.0,0.0,0.0,0.0,0.0,0.0,0.0,0.0,0.0,0.0,-0.7895,-0.8184,0.0,0.0,0.0,0.0,0.0,0.0,0.0,0.0,0.0,0.0,0.0,0.0,0.0,0.0,0.0,0.0,0.0,0.0,0.0,0.0,0.0,0.0,0.0,0.0,0.0,0.0,0.0,0.0,0.0,0.0,0.0,0.0,0.0,0.0,0.0,0.0,0.0,0.0,0.0,0.0,0.0,0.0,0.0,0.0,0.0,0.0,0.0,0.0,0.0,0.0,0.0,0.0,0.0,0.0,0.0,0.0,0.0,0.0,0.0,0.0,0.0,0.0,0.0,0.0,0.0,0.0,0.0,0.0,0.0,0.0,0.0,0.0,0.0,0.0,0.0,0.0,0.0,0.0,0.0,0.0,0.0,0.0,0.0,0.0,0.0,0.0,0.0,0.0,0.0,0.0,0.0,0.0,0.0,0.0,0.0,0.0,0.0,0.0,0.0,0.0,0.0,0.0,0.0,0.0,0.0,0.0,0.0,0.0,0.0,0.0,0.0,0.0,0.0,0.0,-0.8851,-0.8788,0.0,0.0,0.0,0.0,0.0,0.0,0.0,0.0,0.0,0.0,0.0,0.0,0.0,0.0,0.0,0.0,0.0,0.0,0.0,0.0,0.0,0.0,0.0,0.0,0.0,0.0,0.0,0.0,0.0,0.0,0.0,0.0,0.0,0.0,0.0,0.0,0.0,0.0,0.0,0.0,0.0,0.0,0.0,0.0,0.0,0.0,0.0,0.0,0.0,0.0,0.0,0.0,0.0,0.0,0.0,0.0,0.0,0.0,0.0,0.0,0.0,0.0,0.0,0.0,0.0,0.0,0.0,0.0,0.0,0.0,0.0,0.0,0.0,0.0,0.0,0.0,0.0,0.0,0.0,0.0,0.0,0.0,0.0,0.0,0.0,0.0,0.0,0.0,0.0,0.0,0.0,0.0,0.0,0.0,0.0,0.0,0.0,0.0,0.0,0.0,0.0,0.0,0.0,0.0,0.0,0.0,0.0,0.0,-1.5822,-1.4723,-1.3832,-1.2353,-1.152,-1.126,-1.0051,-0.9674,-0.9954,-1.0882,0.0,0.0,0.0,0.0,0.0,0.0,0.0,0.0,0.0,0.0,0.0,0.0,0.0,0.0,0.0,0.0,0.0,0.0,0.0,0.0,0.0,0.0,-1.163,-1.3028,-1.3497,0.0,0.0,0.0,0.0,0.0,0.0,0.0,0.0,0.0,0.0,0.0,0.0,0.0,-3.8662,-3.9277,-3.9445,-3.9359,-3.9918,0.0,0.0,0.0,0.0,0.0,0.0,0.0,0.0,0.0,0.0,0.0,0.0,0.0,0.0,0.0,0.0,0.0,0.0,0.0,0.0,0.0,0.0,0.0,0.0,0.0,0.0,0.0,0.0,0.0,0.0,0.0,0.0,0.0,0.0,0.0,0.0,0.0,0.0,0.0,0.0,0.0,0.0,0.0,-2.2983,-2.4375,0.0,0.0,0.0,0.0,0.0,0.0,0.0,0.0,0.0,0.0,0.0,0.0,0.0,-2.333,-2.1616,-2.1081,-2.0142,-1.8677,-1.6938,-1.5725,-1.5035,-1.3255,-1.2333,-1.215,-1.1781,0.0,-1.1156,-1.1037,0.0,0.0,0.0,0.0,0.0,0.0,0.0,0.0,0.0,0.0,0.0,0.0,0.0,0.0,0.0,0.0,0.0,0.0,0.0,0.0,0.0,0.0,-1.1417,-1.2383,-1.3091,-1.4024,0.0,0.0,0.0,0.0,0.0,0.0,0.0,0.0,0.0,0.0,-3.4267,-3.6472,-3.7804,-3.7817,-3.776,-3.762,-3.7751,-3.7332,-3.6261,-3.3524,0.0,0.0,0.0,0.0,0.0,0.0,0.0,0.0,0.0,0.0,0.0,0.0,0.0,0.0,0.0,0.0,0.0,0.0,0.0,0.0,0.0,0.0,0.0,0.0,0.0,0.0,0.0,0.0,0.0,0.0,0.0,0.0,0.0,0.0,0.0,0.0,0.0,0.0,0.0,-2.2578,-2.515,-2.6326,-2.7253,-2.7727,0.0,0.0,0.0,0.0,0.0,0.0,0.0,0.0,0.0,-2.6524,-2.5536,-2.4354,-2.2991,-2.1951,-2.0846,-1.9781,-1.8028,-1.6795,-1.6012,-1.4512,-1.3576,-1.3185,-1.2952,-1.2586,-1.2218,-1.219,-1.2921,-1.4214,0.0,0.0,0.0,0.0,-1.9565,-2.0897,0.0,0.0,0.0,0.0,0.0,0.0,0.0,0.0,0.0,0.0,0.0,0.0,-0.9256,-1.0136,-1.0931,-1.1519,-1.2438,-1.3346,-1.4159,0.0,0.0,0.0,0.0,0.0,0.0,0.0,0.0,0.0,-3.4001,-3.5236,-3.6346,-3.6068,-3.5935,-3.6012,-3.5513,-3.5262,-3.5102,-3.2462,-2.9122,0.0,0.0,0.0,0.0,0.0,0.0,0.0,0.0,0.0,0.0,0.0,0.0,0.0,0.0,0.0,0.0,0.0,0.0,0.0,0.0,0.0,0.0,0.0,0.0,0.0,0.0,0.0,0.0,0.0,0.0,0.0,0.0,0.0,0.0,0.0,0.0,0.0,0.0,-2.5353,-2.7023,-2.7989,-2.9072,-2.9383,0.0,0.0,0.0,0.0,0.0,0.0,-2.9068,-2.864,-2.8126,-2.7541,-2.6454,-2.5381,-2.4265,-2.2886,-2.18,-2.0935,-1.9104,-1.7884,-1.7253,-1.595,-1.5041,-1.4545,-1.4322,-1.3962,-1.3477,-1.3032,-1.3535,-1.4752,-1.6175,-1.7269,-1.8157,-1.8773,-2.0025,-2.1487,0.0,0.0,0.0,0.0,0.0,0.0,0.0,0.0,0.0,0.0,0.0,-0.8517,-0.8806,-0.9241,-0.9826,-1.0586,-1.1243,-1.1944,-1.265,0.0,0.0,0.0,0.0,0.0,0.0,0.0,0.0,-3.2133,-3.3089,-3.3925,-3.451,-3.4404,-3.4464,-3.4618,-3.3556,-3.3214,-3.3366,-3.0807,-2.7322,-2.3155,0.0,0.0,0.0,0.0,0.0,0.0,0.0,0.0,0.0,0.0,0.0,0.0,0.0,0.0,0.0,0.0,0.0,0.0,0.0,0.0,0.0,0.0,0.0,0.0,0.0,0.0,0.0,0.0,0.0,0.0,0.0,0.0,0.0,0.0,0.0,0.0,0.0,0.0,0.0,-2.9546,-3.1281,0.0,0.0,0.0,0.0,-3.0088,-2.9864,-2.9873,-3.0039,-2.917,-2.8771,-2.9068,-2.809,-2.6979,-2.5805,-2.4606,-2.3546,-2.2445,-2.0176,-1.9062,-1.8808,-1.7358,-1.6612,-1.6428,-1.6228,-1.5745,-1.4911,-1.3098,-1.3251,-1.4848,-1.7404,-1.7784,-1.7149,-1.8643,-2.0432,-2.2168,0.0,0.0,0.0,0.0,0.0,0.0,0.0,0.0,0.0,-0.8177,-0.8149,-0.8171,-0.8275,-0.8421,-0.8791,-0.9438,-0.9819,-1.0461,-1.1476,0.0,0.0,0.0,0.0,0.0,0.0,0.0,-2.889,-3.0245,-3.0677,-3.1438,-3.2404,-3.2303,-3.2514,-3.2918,-3.2097,-3.1239,-3.042,-2.8685,-2.5739,-2.1876,-1.7253,-1.2772,0.0,0.0,0.0,0.0,0.0,0.0,0.0,0.0,0.0,0.0,0.0,0.0,0.0,0.0,0.0,0.0,0.0,0.0,0.0,0.0,0.0,0.0,0.0,0.0,0.0,0.0,0.0,0.0,0.0,0.0,0.0,0.0,0.0,0.0,0.0,0.0,0.0,-3.1767,-3.2374,0.0,-3.1805,-3.1919,-3.189,-3.1518,-3.161,-3.1549,-3.1135,-3.0656,-3.0294,-3.0115,-2.9007,-2.8152,-2.7391,-2.6082,-2.4987,-2.4167,-2.193,-2.078,-2.0489,-1.8736,-1.7935,-1.7949,-1.7997,-1.7939,-1.7687,-1.7425,-1.7101,-1.695,-1.8317,-1.8519,-1.8183,-2.036,-2.2387,-2.4189,0.0,0.0,0.0,0.0,0.0,0.0,0.0,0.0,0.0,-0.8125,-0.801,-0.7889,-0.7706,-0.7647,-0.7834,-0.837,-0.8637,-0.9253,-1.0316,0.0,0.0,0.0,0.0,0.0,0.0,-2.625,-2.7404,-2.8552,-2.8772,-2.9376,-3.0355,-3.0408,-3.0737,-3.1328,-3.0316,-2.9175,-2.7941,-2.6398,-2.3966,-2.0828,-1.6751,-1.2669,-0.8782,0.0,0.0,0.0,0.0,0.0,0.0,0.0,0.0,0.0,0.0,0.0,0.0,0.0,0.0,0.0,0.0,0.0,0.0,0.0,0.0,0.0,0.0,0.0,0.0,0.0,0.0,0.0,0.0,0.0,0.0,0.0,0.0,0.0,0.0,-3.0816,-3.1983,-3.2629,-3.3272,-3.3445,-3.285,-3.3016,-3.304,-3.272,-3.2751,-3.2532,-3.1894,-3.1567,-3.1161,-3.0687,-2.9789,-2.8979,-2.8296,-2.7161,-2.6182,-2.5408,-2.3678,-2.2587,-2.2073,-2.0624,-1.9846,-1.9683,-1.9846,-1.9803,-1.966,-2.0194,-2.0172,-1.9748,-1.9781,-2.0193,-2.0824,-2.1999,-2.3947,-2.6005,0.0,0.0,0.0,0.0,0.0,0.0,0.0,0.0,0.0,-0.7745,-0.7845,-0.771,-0.7152,-0.7007,-0.705,-0.7354,-0.7812,-0.8353,-0.9029,-1.0945,0.0,0.0,0.0,0.0,-2.4695,-2.4861,-2.5722,-2.7213,-2.7491,-2.7916,-2.8422,-2.8823,-2.9369,-2.9834,-2.8301,-2.7061,-2.6015,-2.4018,-2.2025,-1.9875,-1.6629,-1.2897,-0.9157,0.0,0.0,0.0,0.0,0.0,0.0,0.0,0.0,0.0,0.0,0.0,0.0,0.0,0.0,0.0,0.0,0.0,0.0,0.0,0.0,0.0,0.0,0.0,0.0,0.0,0.0,0.0,0.0,0.0,0.0,0.0,0.0,0.0,-2.9847,-3.2248,-3.3495,-3.2211,-3.3935,-3.4801,-3.3683,-3.386,-3.3935,-3.3681,-3.3145,-3.261,-3.2216,-3.1766,-3.1321,-3.0821,-3.0387,-2.96,-2.8535,-2.7892,-2.7082,-2.6184,-2.5358,-2.4494,-2.3566,-2.3035,-2.2377,-2.1726,-2.1678,-2.1302,-2.07,-2.1071,-2.2037,-2.3165,-2.1812,-2.2823,-2.4986,-2.3623,-2.5001,-2.7605,0.0,0.0,0.0,0.0,0.0,0.0,0.0,0.0,-0.8054,-0.8165,-0.8157,-0.7915,-0.7425,-0.7203,-0.7053,-0.7175,-0.7291,-0.7772,-0.8726,0.0,0.0,0.0,0.0,0.0,-2.3164,-2.3485,-2.4179,-2.5351,-2.5436,-2.6043,-2.7046,-2.7484,-2.785,-2.807,-2.71,-2.5862,-2.4339,-2.2177,-2.0266,-1.8431,-1.6367,-1.3842,-1.1249,0.0,0.0,0.0,0.0,0.0,0.0,0.0,0.0,0.0,0.0,0.0,0.0,0.0,0.0,0.0,0.0,0.0,0.0,0.0,0.0,0.0,0.0,0.0,0.0,0.0,0.0,0.0,0.0,0.0,0.0,0.0,-3.0734,-3.2236,-3.2329,-3.2945,-3.3443,-3.3648,-3.3644,-3.3539,-3.3267,-3.2948,-3.272,-3.253,-3.2606,-3.2399,-3.1797,-3.1931,-3.1739,-3.1161,-3.0687,-3.0179,-2.9704,-2.9025,-2.8361,-2.7662,-2.6801,-2.6142,-2.5653,-2.495,-2.4532,-2.4368,-2.4014,-2.3182,-2.2101,-2.2652,-2.4538,-2.6794,-2.374,-2.4944,-2.8163,-2.6923,-2.7658,-2.9379,0.0,0.0,0.0,0.0,0.0,0.0,0.0,0.0,-0.8266,-0.8777,-0.8614,-0.8336,-0.7996,-0.7499,-0.7214,-0.7143,-0.7375,-0.7882,-0.8626,0.0,0.0,0.0,0.0,-1.9951,-2.113,-2.149,-2.2243,-2.334,-2.3437,-2.4159,-2.5395,-2.5858,-2.6143,-2.6294,-2.5566,-2.4391,-2.2965,-2.1213,-1.9468,-1.7677,-1.6574,-1.4702,-1.2573,-1.163,-1.0877,-1.0408,-1.1281,-1.2312,-1.3502,-1.5156,0.0,0.0,0.0,0.0,0.0,0.0,0.0,0.0,0.0,0.0,0.0,0.0,0.0,0.0,0.0,0.0,0.0,0.0,0.0,0.0,0.0,0.0,0.0,0.0,-3.2059,-3.3435,-3.3937,-3.3732,-3.351,-3.3379,-3.3175,-3.3038,-3.3011,-3.2607,-3.2449,-3.2651,-3.2692,-3.2615,-3.24,-3.2362,-3.212,-3.164,-3.1043,-3.0613,-3.0312,-2.9699,-2.9198,-2.8817,-2.8271,-2.7719,-2.7223,-2.6774,-2.6467,-2.6201,-2.5928,-2.4945,-2.3623,-2.4047,-2.6103,-2.8834,0.0,0.0,0.0,0.0,-2.8971,-2.977,0.0,0.0,0.0,0.0,0.0,0.0,0.0,0.0,-0.8751,-0.942,-0.9174,-0.8834,-0.8616,-0.8017,-0.7537,-0.724,-0.7907,-0.8587,0.0,0.0,0.0,-1.5491,-1.704,-1.8206,-1.8936,-1.927,-1.9981,-2.1298,-2.1573,-2.2355,-2.3647,-2.4072,-2.4366,-2.4537,-2.3875,-2.2896,-2.1776,-2.0768,-1.9235,-1.7368,-1.686,-1.532,-1.3369,-1.2973,-1.2539,-1.2284,-1.2727,-1.3601,-1.4743,-1.6173,0.0,0.0,0.0,0.0,0.0,0.0,0.0,0.0,0.0,0.0,0.0,0.0,0.0,0.0,0.0,0.0,0.0,0.0,0.0,0.0,0.0,0.0,0.0,0.0,-3.2831,-3.3693,-3.4684,-3.4401,-3.3627,-3.237,-3.2698,-3.2937,-3.2834,-3.258,-3.2681,-3.3329,-3.3064,-3.306,-3.3344,-3.2949,0.0,0.0,0.0,-3.0911,-3.0628,-3.0129,-2.9761,-2.9602,-2.9435,-2.9018,-2.838,-2.8441,-2.8121,-2.7638,-2.7569,-2.681,-2.5613,-2.5531,-2.7173,-2.9789,-2.9727,-2.9231,-2.8598,-2.9333,-2.9563,-2.9645,0.0,0.0,0.0,0.0,0.0,0.0,0.0,0.0,-0.9361,-0.9472,-0.953,-0.9288,-0.8693,-0.8807,-0.851,-0.7524,-0.8692,-0.9931,0.0,0.0,-1.3441,-1.4534,-1.5178,-1.6168,-1.7541,-1.7567,-1.8142,-1.9309,-2.0072,-2.1033,-2.2076,-2.2801,-2.3077,-2.2896,-2.2724,-2.1733,-2.0195,-1.952,-1.8309,-1.6839,-1.5879,-1.4954,-1.4185,-1.445,-1.361,-1.2516,-1.3655,-1.408,-1.4292,-1.5384,-1.7345,-1.9492,-2.0497,0.0,0.0,0.0,0.0,0.0,0.0,0.0,0.0,0.0,0.0,0.0,0.0,0.0,0.0,0.0,0.0,0.0,0.0,0.0,0.0,-3.2163,-3.3201,-3.3948,-3.416,-3.3707,-3.3295,-3.3009,-3.2572,-3.2328,-3.2411,-3.2219,-3.2367,-3.2934,-3.3258,-3.321,-3.2647,-3.2961,-3.2866,-3.2191,-3.1667,-3.1248,-3.0911,-3.0433,-3.0068,-2.9761,-2.9884,0.0,-2.9501,-2.9761,-2.9811,-2.9729,-2.9317,-2.9304,-2.9475,-2.8771,-2.9363,-3.0776,-3.0522,-3.0437,-3.0529,-3.0749,-3.0964,-3.1076,0.0,0.0,0.0,0.0,0.0,0.0,0.0,0.0,-1.0178,-1.0389,-1.0436,-1.0375,-0.9968,-1.0005,-0.9603,-0.8618,-0.9655,0.0,0.0,-1.2845,-1.3353,-1.3422,-1.4036,-1.4691,-1.521,-1.561,-1.6414,-1.7648,-1.8347,-1.9354,-2.0595,-2.1277,-2.1549,-2.1544,-2.1471,-2.0822,-1.9748,-1.9158,-1.8148,-1.6844,-1.6028,-1.5186,-1.438,-1.4209,-1.3806,-1.3338,-1.3724,-1.4026,-1.442,-1.5595,-1.7483,-1.9538,-2.0703,-2.2229,-2.3712,0.0,0.0,0.0,0.0,0.0,0.0,0.0,0.0,0.0,0.0,0.0,0.0,0.0,0.0,-2.9374,-2.9799,0.0,-3.1565,-3.282,-3.3595,-3.4184,-3.4734,-3.4202,-3.3489,-3.2723,-3.2066,-3.1827,-3.2239,-3.1888,-3.2169,-3.356,-3.3378,-3.3264,-3.3452,-3.3502,-3.324,-3.2648,-3.2079,-3.161,-3.1321,-3.1234,-3.1032,-3.0787,-3.0971,-3.0971,-3.0773,-3.0713,-3.0862,-3.1139,-3.0924,-3.1086,-3.1542,-3.1441,-3.1471,-3.1539,-3.1176,-3.1234,-3.1467,-3.1394,-3.1354,-3.1353,0.0,0.0,0.0,0.0,0.0,0.0,0.0,0.0,0.0,-1.1337,-1.1325,-1.1324,-1.1324,-1.104,-1.0729,0.0,0.0,0.0,0.0,-1.3363,-1.3353,-1.2538,-1.3114,-1.3375,-1.3216,-1.3984,-1.5002,-1.6258,-1.6895,-1.8002,-1.9392,-1.993,-2.0338,-2.0572,-2.0443,-2.0121,-1.9635,-1.9,-1.8114,-1.7062,-1.6383,-1.5422,-1.4312,-1.3474,-1.3481,-1.3884,-1.3674,-1.4006,-1.4866,-1.6347,-1.8046,-1.9824,-2.1272,-2.234,-2.3239,-2.409,-2.519,0.0,0.0,0.0,0.0,0.0,0.0,0.0,0.0,-3.0905,-3.0162,-3.0214,-3.0345,-3.0466,-3.0631,-3.1297,-3.2184,-3.3233,-3.37,-3.4264,-3.5273,-3.4671,-3.3674,-3.2396,-3.1786,-3.1687,-3.236,-3.1964,-3.2466,-3.4344,-3.3762,-3.3698,-3.448,-3.4101,-3.3607,-3.3203,-3.2607,-3.222,-3.1977,-3.2229,-3.2254,-3.2147,-3.2254,-3.2254,-3.2132,-3.1812,-3.1901,-3.2315,-3.2315,-3.2479,-3.2794,-3.3289,-3.2976,-3.2179,-3.17,-3.1697,-3.1796,-3.1667,-3.149,-3.1389,0.0,0.0,0.0,0.0,0.0,0.0,0.0,0.0,0.0,-1.1553,-1.1518,-1.1448,-1.1448,-1.1519,0.0,0.0,0.0,0.0,-1.4098,-1.3685,-1.3141,-1.2589,-1.2036,-1.2115,-1.2956,-1.3046,-1.3827,-1.5322,-1.6397,-1.7539,-1.8758,-1.9817,-2.0184,-2.0074,-2.0095,-1.9771,-1.9126,-1.8612,-1.7901,-1.7015,-1.6172,-1.5279,-1.4328,-1.3128,-1.2763,-1.2991,-1.4144,-1.4782,-1.5427,-1.741,-1.898,-2.0387,-2.2061,-2.2772,-2.3264,-2.4686,-2.5821,-2.6898,-2.8233,-2.9992,-3.1773,-3.3343,-3.3381,-3.3375,0.0,-3.3807,-3.2767,-3.2767,-3.2169,-3.1625,-3.1642,-3.1576,-3.1842,-3.2655,-3.3247,-3.3804,-3.4496,-3.3903,-3.3278,-3.2931,-3.2587,-3.244,-3.2706,-3.3123,-3.3799,-3.4695,-3.5091,-3.5119,-3.4691,-3.4399,-3.4,-3.345,-3.3427,-3.329,-3.302,-3.3426,-3.3502,-3.3335,-3.3517,-3.3517,-3.3319,-3.3548,-3.3563,-3.3319,-3.3319,-3.3456,-3.3638,-3.3546,-3.3246,-3.2816,-3.2038,-3.1868,-3.1996,-3.1925,-3.1962,-3.1855,0.0,0.0,0.0,0.0,0.0,0.0,0.0,0.0,0.0,0.0,0.0,-1.2188,-1.2121,0.0,0.0,0.0,0.0,0.0,-1.3667,-1.3383,-1.2754,-1.1903,-1.1648,-1.1567,-1.1613,-1.2563,-1.3682,-1.493,-1.6478,-1.779,-1.8921,-1.9683,-2.0171,-2.0427,-2.007,-1.9711,-1.9409,-1.9005,-1.8222,-1.7183,-1.62,-1.5291,-1.4453,-1.3146,-1.2861,-1.316,-1.3718,-1.4563,0.0,0.0,-1.9481,-2.1212,-2.2256,-2.3171,-2.4087,-2.5253,-2.6367,-2.7628,-2.9815,-3.1713,-3.3204,-3.3621,-3.4222,-3.4664,-3.4493,-3.3878,-3.3282,-3.2932,-3.2057,-3.1359,-3.1429,-3.1342,-3.1532,-3.2331,-3.3252,-3.4048,-3.4627,-3.4007,-3.3398,-3.3081,-3.2829,-3.2706,-3.2801,-3.3158,-3.3869,-3.4947,-3.5096,-3.5104,-3.5071,-3.4643,-3.425,-3.3848,-3.3925,-3.3959,-3.3848,-3.4534,-3.4894,-3.4804,-3.4668,-3.4546,-3.447,-3.4152,-3.4061,-3.4135,-3.4585,-3.4841,-3.4808,-3.4904,-3.456,-3.3804,-3.3066,-3.2447,-3.1996,-3.1796,-3.1781,-3.1804,0.0,0.0,0.0,0.0,0.0,0.0,0.0,0.0,0.0,0.0,0.0,0.0,0.0,0.0,0.0,0.0,0.0,0.0,0.0,-1.3293,-1.273,-1.1697,-1.1668,-1.1502,-1.1217,-1.2527,-1.381,-1.4975,-1.6837,-1.8248,-1.9144,-1.9962,-2.0414,-2.0565,-2.0022,-1.9788,-1.9755,-1.9332,-1.8658,-1.78,-1.6726,-1.573,-1.4784,-1.3685,-1.3406,-1.3688,-1.3776,-1.4721,0.0,0.0,-2.0078,-2.1902,-2.2553,-2.3561,-2.4751,-2.5952,-2.7437,-2.9131,-3.1425,-3.304,-3.4117,-3.4233,-3.5134,-3.568,-3.4712,-3.4182,-3.3706,-3.3034,-3.1913,-3.118,-3.1542,-3.1399,-3.152,-3.2382,-3.3299,-3.4029,-3.4381,-3.3738,-3.3228,-3.3237,-3.2991,-3.293,-3.3193,-3.3575,-3.4241,-3.5209,-3.5204,-3.5205,-3.5441,-3.4947,-3.4546,-3.425,-3.4595,-3.4752,-3.4698,-3.566,-3.6129,-3.6129,-3.5843,-3.5676,-3.5539,-3.4927,-3.4759,-3.497,-3.5607,-3.5782,-3.5683,-3.5925,-3.5321,-3.4152,-3.3622,-3.2824,-3.1883,-3.1509,-3.1495,-3.1564,0.0,0.0,0.0,0.0,0.0,0.0,0.0,0.0,0.0,0.0,0.0,0.0,0.0,0.0,0.0,0.0,0.0,0.0,0.0,-1.3579,-1.3125,-1.2555,-1.2171,-1.2122,-1.2443,-1.2978,-1.4066,-1.5685,-1.7455,-1.8646,-1.9212,-2.0849,-2.1132,-2.0118,-2.0029,-2.0016,-2.0016,-1.9371,-1.9119,-1.9048,-1.8081,-1.6856,-1.5675,-1.4944,-1.4571,-1.4482,-1.4675,0.0,0.0,-1.9342,-2.104,-2.2441,-2.3231,-2.3925,0.0,-2.6805,-2.9365,-3.1819,-3.3033,-3.3565,-3.4216,-3.5794,-3.6238,-3.6274,-3.6221,-3.5563,-3.4695,-3.3829,-3.2335,-3.1507,-3.2459,-3.2125,-3.1987,-3.2929,-3.3326,-3.3423,-3.3184,-3.2689,-3.2635,-3.3505,-3.3111,-3.3214,-3.4245,-3.4953,-3.5364,-3.5461,-3.5769,-3.5915,-3.5773,-3.5321,-3.4947,-3.4691,-3.5529,-3.5899,-3.579,-3.6706,-3.7147,-3.7163,-3.7013,-3.6785,-3.6461,-3.6228,-3.6072,-3.6024,-3.6054,-3.6085,-3.5973,-3.5973,-3.5003,-3.3495,-3.3214,-3.2553,-3.1742,-3.1264,-3.1292,-3.13,0.0,0.0,0.0,0.0,0.0,0.0,0.0,0.0,0.0,0.0,0.0,0.0,0.0,0.0,0.0,0.0,0.0,0.0,0.0,-1.3438,-1.3113,-1.3118,-1.2897,-1.2987,-1.3417,-1.4683,-1.5974,-1.7174,-1.8929,-2.0054,-2.0564,-2.1081,-2.1409,-2.1586,-2.0907,-2.0798,-2.1139,-2.0856,-2.0507,-1.9957,-1.91,-1.8241,-1.7348,-1.5692,-1.5791,-1.6601,0.0,0.0,-1.7816,-1.9724,-2.1205,-2.2438,-2.3377,-2.4537,-2.6013,-2.8622,-3.0292,-3.1689,-3.3436,-3.4436,-3.5214,-3.6476,-3.709,-3.7145,-3.6085,-3.5554,-3.4882,-3.3463,-3.187,-3.0871,-3.1285,-3.1358,-3.1455,-3.1717,-3.3001,-3.3788,-3.337,-3.2945,-3.2946,-3.3577,-3.38,-3.4189,-3.507,-3.5401,-3.5575,-3.5501,-3.5911,-3.6105,-3.5817,-3.5487,-3.5382,-3.5563,-3.6219,-3.6747,-3.7129,-3.7681,-3.7976,-3.7976,-3.7492,-3.7089,-3.6816,-3.66,-3.6523,-3.6538,-3.6414,-3.5845,-3.5017,-3.5017,-3.401,-3.2536,-3.2307,-3.201,-3.1567,-3.1249,-3.1073,-3.0984,0.0,0.0,0.0,0.0,0.0,0.0,0.0,0.0,0.0,0.0,0.0,0.0,0.0,0.0,0.0,0.0,0.0,-1.337,0.0,0.0,-1.3484,-1.3862,-1.3882,-1.4269,-1.5005,-1.6232,-1.7472,-1.8672,-2.022,-2.104,-2.1156,-2.1636,-2.1922,-2.2058,-2.1488,-2.1575,-2.2174,-2.2076,-2.1838,-2.1488,-2.0753,-2.0012,-1.9306,-1.7733,-1.7562,0.0,0.0,0.0,-1.8667,-2.008,-2.1274,-2.2377,-2.3419,-2.5086,-2.7186,-2.9809,-3.0973,-3.1799,-3.3818,-3.502,-3.5946,-3.6921,-3.7671,-3.7784,-3.6091,-3.562,-3.504,-3.3333,-3.1691,-3.0859,-3.1645,-3.1289,-3.1102,-3.1657,-3.2482,-3.3014,-3.2769,-3.2458,-3.2671,-3.3835,-3.4297,-3.4923,-3.5976,-3.6116,-3.6134,-3.6038,-3.6409,-3.6466,-3.5993,-3.6175,-3.6286,-3.6235,-3.702,-3.748,-3.7554,-3.8182,-3.8391,-3.8221,-3.7743,-3.7389,-3.7165,-3.7013,-3.6907,-3.68,-3.6677,-3.5783,-3.4429,-3.3937,-3.31,-3.2079,-3.1966,-3.1796,-3.1567,-3.1292,-3.1073,-3.0851,0.0,0.0,0.0,0.0,0.0,0.0,0.0,0.0,0.0,0.0,0.0,0.0,0.0,0.0,0.0,0.0,0.0,0.0,0.0,0.0,0.0,-1.4757,-1.5153,-1.5894,-1.707,-1.7651,-1.8681,-2.0127,-2.1348,-2.1662,-2.1184,-2.2454,-2.2511,-2.1571,-2.1775,-2.231,-2.3102,-2.2945,-2.3195,-2.3573,-2.2898,-2.2168,-2.1406,-2.0667,0.0,0.0,0.0,0.0,-1.9797,-2.0409,-2.1291,-2.2363,-2.3513,-2.566,-2.8186,-3.0299,-3.1399,-3.2354,-3.4277,-3.548,-3.641,-3.7276,-3.8046,-3.8163,-3.6328,-3.589,-3.5313,-3.3502,-3.1946,-3.1465,-3.3313,-3.1924,-3.101,-3.258,-3.1831,-3.1166,-3.1505,-3.1238,-3.1882,-3.4141,-3.4618,-3.5342,-3.6935,-3.7052,-3.7044,-3.7079,-3.7213,-3.7059,-3.6456,-3.7354,-3.755,-3.675,-3.7853,-3.8069,-3.7218,-3.8187,-3.8359,-3.7934,-3.7759,-3.7626,-3.7417,-3.7417,-3.7194,-3.68,-3.6785,-3.5919,-3.4472,-3.3059,-3.2364,-3.2181,-3.2135,-3.1981,-3.1727,-3.1409,-3.1234,-3.0925,0.0,0.0,0.0,0.0,0.0,0.0,0.0,0.0,0.0,0.0,0.0,0.0,0.0,0.0,0.0,0.0,0.0,0.0,0.0,0.0,0.0,0.0,0.0,0.0,0.0,0.0,0.0,0.0,0.0,-2.2288,-2.1931,-2.2325,-2.2467,-2.2388,-2.2456,-2.3176,-2.4367,-2.4394,-2.4761,-2.5203,0.0,-2.3857,-2.3026,0.0,0.0,0.0,0.0,0.0,-2.0966,-2.1063,-2.2403,-2.4209,-2.5632,-2.6564,-2.7688,-3.0442,-3.1721,-3.2757,-3.5331,-3.6793,-3.7806,-3.867,-3.8989,-3.8591,-3.6823,-3.624,-3.5619,-3.3953,-3.2873,-3.2422,-3.3074,-3.2359,-3.1755,-3.2046,-3.1647,-3.1258,-3.1091,-3.1326,-3.2022,-3.3391,-3.459,-3.5681,-3.6699,-3.7202,-3.7603,-3.7932,-3.7676,-3.7638,-3.7868,-3.8128,-3.8338,-3.854,-3.8834,-3.9058,-3.9176,-3.9003,-3.8711,-3.8278,-3.7992,-3.7759,-3.7642,-3.7373,-3.7194,-3.7074,-3.6831,-3.6304,-3.5525,-3.4423,-3.3644,-3.308,-3.2446,-3.191,-3.1567,-3.1495,-3.1219,-3.0793,0.0,0.0,0.0,0.0,0.0,0.0,0.0,0.0,0.0,0.0,0.0,0.0,0.0,0.0,0.0,0.0,0.0,0.0,0.0,0.0,0.0,0.0,0.0,0.0,0.0,0.0,0.0,0.0,0.0,0.0,0.0,-2.1719,-2.2053,-2.2609,-2.2554,-2.3498,-2.5129,-2.5313,0.0,0.0,0.0,0.0,0.0,0.0,0.0,0.0,0.0,0.0,0.0,0.0,-2.3518,-2.5013,-2.6672,-2.7215,-2.7795,-3.0838,-3.2174,-3.3173,-3.5675,-3.7305,-3.8455,-3.8945,-3.9245,-3.8996,-3.715,-3.6612,-3.6051,-3.4395,-3.3501,-3.3194,-3.3736,-3.2655,-3.177,-3.1987,-3.1176,-3.0641,-3.106,-3.1347,-3.2242,-3.4207,-3.5224,-3.6191,-3.7254,-3.761,-3.8077,-3.8872,-3.8454,-3.8261,-3.8453,-3.9124,-3.9444,-3.9262,-3.9634,-3.9863,-3.9901,-3.9099,-3.8602,-3.8544,-3.8335,-3.8049,-3.7759,-3.7567,-3.7433,-3.7329,-3.7013,-3.6422,-3.5618,-3.4907,-3.412,-3.315,-3.2582,-3.212,-3.1781,-3.1667,-3.1336,-3.094,0.0,0.0,0.0,0.0,0.0,0.0,0.0,0.0,0.0,0.0,0.0,0.0,0.0,0.0,0.0,0.0,0.0,0.0,0.0,0.0,0.0,0.0,0.0,0.0,0.0,0.0,0.0,0.0,0.0,0.0,0.0,0.0,0.0,0.0,0.0,0.0,0.0,0.0,0.0,0.0,0.0,0.0,0.0,0.0,0.0,0.0,0.0,0.0,0.0,0.0,-2.4695,-2.5326,-2.7114,-2.7734,-2.8393,-3.132,-3.2804,-3.3926,-3.5816,-3.7585,-3.8918,-3.8858,-3.9366,-3.9369,-3.7562,-3.7061,-3.6512,-3.4977,-3.4108,-3.3904,-3.4792,-3.3097,-3.1787,-3.2409,-3.0979,-3.0195,-3.1348,-3.1623,-3.2753,-3.5496,-3.6149,-3.6835,-3.8022,-3.8114,-3.8528,-3.9672,-3.9269,-3.8973,-3.896,-4.0239,-4.0479,-3.9504,-4.0254,-4.0402,-3.98,-3.8837,-3.852,-3.8805,-3.8655,-3.8335,-3.7876,-3.7876,-3.7759,-3.7524,-3.7329,-3.6531,-3.5351,-3.4998,-3.416,-3.3022,-3.2749,-3.2468,-3.2191,-3.1853,-3.1507,-3.1129,0.0,0.0,0.0,0.0,0.0,0.0,0.0,0.0,0.0,0.0,0.0,0.0,0.0,0.0,0.0,0.0,0.0,0.0,0.0,0.0,0.0,0.0,0.0,0.0,0.0,-2.086,-2.1399,-2.1348,-2.1246,0.0,0.0,0.0,0.0,0.0,0.0,0.0,0.0,0.0,0.0,0.0,0.0,0.0,0.0,0.0,0.0,0.0,0.0,0.0,0.0,0.0,-2.5686,-2.5873,-2.7572,-2.8491,-2.9394,-3.1806,-3.3967,-3.5856,-3.7137,-3.8818,-4.0188,-4.0175,-4.0116,-3.9795,-3.8785,-3.7886,-3.6988,-3.6141,-3.5391,-3.4952,-3.5111,-3.4308,-3.358,-3.3546,-3.2558,-3.1845,-3.2052,-3.3214,-3.4258,-3.4858,-3.6638,-3.7851,-3.7867,-3.82,-3.8821,-3.9886,-3.9678,-3.9891,-4.0864,-4.107,-4.0741,-3.9842,-4.0285,-4.0129,-3.9238,-3.9242,-3.9193,-3.8969,-3.86,-3.8221,-3.7876,-3.7759,-3.77,-3.7642,-3.7314,-3.69,-3.6267,-3.53,-3.4482,-3.3811,-3.292,-3.2523,-3.2342,-3.2038,-3.1392,-3.0556,0.0,0.0,0.0,0.0,0.0,0.0,0.0,0.0,0.0,0.0,0.0,0.0,0.0,0.0,0.0,0.0,0.0,0.0,0.0,0.0,0.0,0.0,0.0,0.0,0.0,-2.0365,-2.0647,-1.9636,0.0,-1.9822,-1.9236,-1.9044,-1.9486,-2.0488,-2.1316,-2.2592,-2.4182,0.0,0.0,-2.6044,-2.5921,-2.5711,0.0,0.0,0.0,0.0,0.0,0.0,0.0,0.0,-2.7358,-2.7772,-2.8862,-2.9656,-3.0702,-3.2993,-3.4946,-3.6703,-3.8209,-3.994,-4.1229,-4.0731,-4.0823,-4.0691,-3.9358,-3.8661,-3.8091,-3.7383,-3.6617,-3.608,-3.6074,-3.5065,-3.4148,-3.3983,-3.3067,-3.2721,-3.3627,-3.4395,-3.5344,-3.6672,-3.7802,-3.8526,-3.863,-3.8719,-3.9232,-4.0329,-4.0105,-4.0329,-4.1338,-4.1255,-4.0815,-4.0023,-4.0474,-4.0223,-3.9262,-3.9581,-3.9537,-3.9255,-3.8821,-3.8432,-3.8164,-3.7992,-3.7876,-3.7801,-3.7245,-3.6673,-3.6031,-3.511,-3.4305,-3.3644,-3.306,-3.2687,-3.2492,-3.2302,-3.1825,-3.1166,0.0,0.0,0.0,0.0,0.0,0.0,0.0,0.0,0.0,0.0,0.0,0.0,0.0,0.0,0.0,0.0,0.0,0.0,0.0,0.0,0.0,0.0,0.0,0.0,0.0,0.0,0.0,-1.8099,-1.864,0.0,0.0,0.0,0.0,0.0,-2.0481,-2.175,-2.3281,-2.4096,-2.4788,0.0,0.0,-2.5673,0.0,0.0,0.0,0.0,0.0,0.0,0.0,0.0,-2.9174,-2.9931,-3.065,-3.1329,-3.2275,-3.4413,-3.608,-3.7546,-3.9054,-4.0768,-4.1964,-4.1211,-4.148,-4.1569,-4.0163,-3.9518,-3.9102,-3.8549,-3.7779,-3.7162,-3.6968,-3.5969,-3.5027,-3.452,-3.3873,-3.3934,-3.535,-3.5825,-3.681,-3.8895,-3.9242,-3.9421,-3.9683,-3.9303,-3.9483,-4.051,-4.051,-4.0749,-4.149,-4.1408,-4.0882,-3.9957,-4.0464,-4.022,-3.9247,-3.9578,-3.9681,-3.9537,-3.9094,-3.8766,-3.8448,-3.8335,-3.8221,-3.8001,-3.7399,-3.6686,-3.5927,-3.5115,-3.4308,-3.3567,-3.3266,-3.2958,-3.2656,-3.2508,-3.2155,-3.1693,0.0,0.0,0.0,0.0,0.0,0.0,0.0,0.0,0.0,0.0,0.0,0.0,0.0,0.0,0.0,0.0,0.0,0.0,0.0,0.0,0.0,0.0,0.0,0.0,0.0,0.0,0.0,-1.8361,-1.7669,0.0,0.0,0.0,0.0,0.0,0.0,-2.1928,-2.4225,-2.3803,0.0,0.0,0.0,0.0,0.0,0.0,0.0,0.0,0.0,-2.747,-2.8384,0.0,0.0,-3.1709,-3.2966,-3.366,-3.4304,-3.5737,-3.7632,-3.9312,-3.9587,-4.0952,-4.2244,-4.2101,-4.2063,-4.2031,-4.1862,-4.0613,-3.9471,-3.9451,-3.8816,-3.8013,-3.723,-3.7591,-3.7489,-3.5824,-3.6087,-3.6554,-3.6725,-3.8048,-3.9331,-4.015,-4.0837,-4.1091,-4.0722,-3.9765,-3.9341,-3.9772,-4.0745,-4.1497,-4.1909,-4.1841,-4.1006,-3.9427,-3.987,-3.97,-3.8687,-3.9037,-3.9344,-3.9677,-3.9362,-3.904,-3.8583,-3.8583,-3.8528,-3.8528,-3.8165,-3.7673,-3.7074,-3.6107,-3.531,-3.4553,-3.3652,-3.3203,-3.2989,-3.2563,-3.1903,-3.1274,0.0,0.0,0.0,0.0,0.0,0.0,0.0,0.0,0.0,0.0,0.0,0.0,0.0,0.0,0.0,0.0,0.0,0.0,0.0,0.0,0.0,0.0,0.0,0.0,0.0,0.0,-1.8655,-1.8294,-1.8261,0.0,0.0,0.0,0.0,0.0,0.0,-2.2315,-2.3529,-2.3813,0.0,0.0,0.0,0.0,0.0,0.0,0.0,0.0,0.0,0.0,-3.0428,-3.1969,-3.2905,0.0,-3.5243,-3.6299,0.0,-3.7165,-3.8679,-4.048,-4.1096,-4.2182,-4.3007,-4.2461,-4.2272,-4.2085,-4.1571,-4.089,-4.04,-4.0448,-3.9797,-3.9136,-3.8784,-3.8578,-3.8195,-3.7394,-3.7055,-3.7265,-3.831,-3.8554,-3.927,-4.102,-4.0998,-4.1055,-4.1647,-4.029,-3.95,-3.974,-4.0488,-4.114,-4.168,-4.1896,-4.1184,-3.9464,-3.9982,-3.9739,-3.8684,-3.9042,-3.9474,-3.9935,-3.959,-3.9272,-3.904,-3.8914,-3.8805,-3.8662,-3.8144,-3.7487,-3.6771,-3.5845,-3.4977,-3.4198,-3.3718,-3.345,-3.3293,-3.3011,-3.2694,-3.2237,0.0,0.0,0.0,0.0,0.0,0.0,0.0,0.0,0.0,0.0,0.0,0.0,0.0,0.0,0.0,0.0,0.0,0.0,0.0,0.0,0.0,0.0,0.0,0.0,0.0,0.0,-1.9076,-1.8724,-1.9058,-1.9136,0.0,0.0,-2.0385,-2.0958,0.0,0.0,0.0,0.0,0.0,0.0,0.0,0.0,0.0,0.0,0.0,0.0,0.0,0.0,0.0,0.0,0.0,0.0,0.0,0.0,0.0,0.0,-3.9704,-4.1446,-4.213,-4.3002,-4.3617,-4.327,-4.2944,-4.2616,-4.2245,-4.1964,-4.172,-4.148,-4.0964,-4.0405,-3.9907,-3.9509,-3.9053,-3.8427,-3.7983,-3.8161,-3.9393,-3.9187,-3.9661,-4.1652,-4.1459,-4.1473,-4.2287,-4.0809,-3.9842,-3.9915,-4.0229,-4.0668,-4.1215,-4.1489,-4.0994,-3.9628,-3.9752,-3.9396,-3.8512,-3.89,-3.9375,-3.9948,-3.9513,-3.9389,-3.9468,-3.9023,-3.8764,-3.8623,-3.8093,-3.7363,-3.6522,-3.5633,-3.4878,-3.429,-3.3928,-3.371,-3.3555,-3.3346,-3.3256,-3.3018,0.0,0.0,0.0,0.0,0.0,0.0,0.0,0.0,0.0,0.0,0.0,0.0,0.0,0.0,0.0,0.0,0.0,0.0,0.0,0.0,0.0,0.0,0.0,0.0,0.0,0.0,-1.9252,-1.9975,-1.9795,-1.9755,-1.989,-2.0513,-2.1004,-2.1439,0.0,0.0,0.0,0.0,0.0,0.0,0.0,0.0,0.0,0.0,0.0,0.0,0.0,0.0,0.0,0.0,0.0,0.0,0.0,0.0,0.0,0.0,-4.0703,-4.2213,-4.2364,-4.3046,-4.3903,-4.4766,-4.4321,-4.3895,-4.4688,-4.424,-4.3429,-4.2558,-4.2375,-4.1853,-4.0125,-4.0508,-4.0492,-3.8692,-3.9117,-3.9669,-3.9708,-4.0368,-4.1179,-4.2003,-4.2626,-4.2862,-4.2538,-4.1343,-4.0467,-4.0211,-4.0068,-4.0198,-4.058,-4.0564,-4.031,-3.9815,-3.8968,-3.8342,-3.7993,-3.846,-3.9002,-3.9483,-3.9183,-3.9344,-3.9867,-3.8873,-3.8402,-3.8402,-3.8091,-3.7574,-3.6832,-3.5787,-3.5375,-3.531,-3.4274,-3.3813,-3.3658,-3.3398,-3.3309,-3.3309,0.0,0.0,0.0,0.0,0.0,0.0,0.0,0.0,0.0,0.0,0.0,0.0,0.0,0.0,0.0,0.0,0.0,0.0,0.0,0.0,0.0,0.0,0.0,0.0,0.0,0.0,-2.0162,-2.0833,-2.1668,-2.2122,-2.2175,-2.3295,-2.4171,-2.4822,-2.4895,-2.5562,0.0,0.0,0.0,0.0,0.0,0.0,-3.1691,0.0,0.0,0.0,0.0,0.0,0.0,0.0,0.0,0.0,0.0,0.0,0.0,0.0,0.0,-4.3318,-4.3981,-4.4374,-4.4655,-4.4936,-4.4334,-4.3769,-4.4023,-4.3885,-4.3629,-4.3358,-4.2809,-4.2223,-4.1679,-4.1326,-4.1105,-4.1129,-4.0365,-4.0162,-4.131,-4.1148,-4.1391,-4.2699,-4.3784,-4.3687,-4.18,-4.1569,-4.1004,-3.9685,-3.9396,-3.9498,-4.0101,-3.9325,-3.8941,-3.9187,-3.8765,-3.8465,-3.8204,-3.8024,-3.8269,-3.8883,-3.8589,-3.8472,-3.8468,-3.8671,-3.8338,-3.7686,-3.8186,-3.7585,-3.6274,-3.5943,-3.5449,-3.4874,-3.4381,-3.4151,-3.405,-3.371,-3.3642,-3.3658,0.0,0.0,0.0,0.0,0.0,0.0,0.0,0.0,0.0,0.0,0.0,0.0,0.0,0.0,0.0,0.0,0.0,0.0,0.0,0.0,0.0,0.0,0.0,0.0,0.0,-2.0621,-2.1242,-2.2175,-2.3074,-2.3671,-2.3928,-2.5201,-2.5939,-2.6206,-2.6459,-2.7088,0.0,0.0,0.0,0.0,0.0,0.0,-3.3004,0.0,0.0,0.0,0.0,0.0,0.0,0.0,0.0,0.0,0.0,0.0,0.0,0.0,-4.3989,-4.422,0.0,-4.4993,-4.5076,-4.541,-4.4841,-4.4269,-4.4572,-4.4644,-4.4543,-4.4211,-4.3473,-4.2895,-4.2887,-4.1914,-4.1386,-4.2268,-4.1214,-4.0643,-4.1688,-4.1583,-4.1953,-4.3453,-4.4269,-4.3912,-4.1892,-4.1949,-4.1337,-3.9481,-3.9129,-3.9113,-3.9454,-3.8674,-3.8337,-3.86,-3.8345,-3.812,-3.7966,-3.7848,-3.7982,-3.84,-3.8074,-3.7986,-3.8091,-3.8072,-3.7679,-3.7067,-3.7519,-3.6887,0.0,-3.553,-3.5217,-3.4691,-3.4448,-3.4399,-3.4349,-3.405,-3.4,-3.4,0.0,0.0,0.0,0.0,0.0,0.0,0.0,0.0,0.0,0.0,0.0,0.0,0.0,0.0,0.0,0.0,0.0,0.0,0.0,0.0,0.0,0.0,0.0,0.0,0.0,-2.1371,-2.2429,-2.385,-2.4128,-2.4527,-2.5098,-2.6243,-2.6502,-2.5966,-2.7194,-2.8149,0.0,0.0,0.0,0.0,0.0,0.0,0.0,0.0,0.0,0.0,0.0,0.0,0.0,0.0,0.0,0.0,0.0,0.0,0.0,0.0,0.0,0.0,0.0,-4.5095,-4.5292,-4.6108,-4.569,-4.5288,-4.6011,0.0,0.0,-4.5148,-4.4356,-4.3798,-4.3791,-4.2417,-4.1562,-4.2438,-4.1841,-4.128,-4.1271,-4.185,-4.28,-4.4222,-4.4208,-4.3675,-4.2626,-4.2337,-4.1429,-3.9539,-3.9219,-3.9017,-3.8803,-3.8559,-3.8318,-3.8135,-3.781,-3.7577,-3.7429,-3.7831,-3.8023,-3.8023,-3.7602,-3.7767,-3.8394,-3.7274,-3.6675,-3.6501,-3.6315,-3.5723,-3.4899,-3.4787,-3.4739,-3.4691,-3.4546,-3.4497,-3.4497,-3.4349,-3.43,-3.43,0.0,0.0,0.0,0.0,0.0,0.0,0.0,0.0,0.0,0.0,0.0,0.0,0.0,0.0,0.0,0.0,0.0,0.0,0.0,0.0,0.0,0.0,0.0,0.0,0.0,-2.2514,-2.3414,-2.4487,-2.5252,-2.5614,-2.562,-2.6467,-2.6989,-2.7219,-2.8017,-2.9339,0.0,0.0,0.0,0.0,0.0,0.0,0.0,0.0,0.0,0.0,-3.7772,-3.8315,0.0,0.0,0.0,0.0,0.0,0.0,0.0,0.0,-4.5825,-4.5913,-4.5975,0.0,-4.6049,-4.6251,-4.6104,-4.5949,0.0,0.0,0.0,0.0,0.0,0.0,0.0,0.0,-4.3375,-4.4257,-4.3667,-4.3088,-4.3095,-4.3069,-4.3589,-4.5109,-4.4593,-4.3732,-4.2831,-4.1914,-4.0873,-3.9722,-3.9298,-3.9045,-3.895,-3.8634,-3.8428,-3.8396,-3.8086,-3.7774,-3.754,-3.7341,-3.7251,-3.7251,-3.6887,-3.6765,-3.687,-3.7065,-3.6661,-3.5881,-3.6485,-3.6131,-3.5198,-3.5198,-3.5088,-3.4994,-3.4756,-3.4643,-3.4643,-3.4399,-3.4349,-3.4399,0.0,0.0,0.0,0.0,0.0,0.0,0.0,0.0,0.0,0.0,0.0,0.0,0.0,0.0,0.0,0.0,0.0,0.0,0.0,0.0,0.0,0.0,0.0,0.0,-2.2394,-2.3012,-2.3973,-2.5335,-2.5811,-2.6156,-2.6421,-2.7073,-2.7705,-2.8339,-2.9968,0.0,0.0,0.0,0.0,0.0,-3.6237,0.0,0.0,0.0,0.0,0.0,-3.8378,-3.8876,0.0,-4.0174,-4.0404,-4.0665,0.0,0.0,0.0,0.0,-4.5611,-4.5746,-4.6172,-4.6575,-4.6856,-4.685,-4.6807,-4.6738,-4.6677,0.0,0.0,0.0,0.0,0.0,0.0,0.0,-4.3993,-4.4863,-4.3924,-4.3225,-4.3565,-4.3471,-4.3912,-4.5452,-4.4762,-4.379,-4.289,-4.1806,-4.0753,-3.9773,-3.935,-3.9101,-3.9026,-3.8743,-3.8559,-3.851,-3.8186,-3.7915,-3.7774,-3.7374,-3.7164,-3.7143,-3.6869,-3.665,-3.6502,-3.6706,-3.6456,-3.5817,-3.6135,-3.5949,-3.5367,-3.5337,-3.5198,-3.5105,-3.4947,-3.4851,-3.4787,-3.4643,-3.4594,-3.4546,0.0,0.0,0.0,0.0,0.0,0.0,0.0,0.0,0.0,0.0,0.0,0.0,0.0,0.0,0.0,0.0,0.0,0.0,0.0,0.0,0.0,0.0,0.0,-2.1697,-2.2855,-2.3325,-2.4428,-2.6105,-2.6193,-2.6505,-2.7069,-2.7727,-2.8544,-2.961,-3.2172,-3.3664,0.0,0.0,-3.6293,-3.7274,-3.7216,0.0,0.0,0.0,0.0,0.0,0.0,0.0,0.0,-4.0653,-4.0693,-4.0556,-4.243,0.0,0.0,0.0,0.0,0.0,-4.5859,-4.6781,-4.7455,-4.734,-4.7447,-4.7533,-4.7348,0.0,0.0,0.0,0.0,0.0,0.0,-4.5055,-4.434,-4.5075,-4.3847,-4.3017,-4.3607,-4.3636,-4.4131,-4.5553,-4.4716,-4.3711,-4.291,-4.1755,-4.0666,-3.9796,-3.9427,-3.9156,-3.9007,-3.8822,-3.867,-3.8541,-3.8219,-3.8018,-3.8018,-3.7595,-3.7354,-3.7314,-3.7066,-3.6869,-3.6702,-3.6444,-3.6233,-3.6019,-3.5756,-3.556,-3.5424,-3.5383,-3.5245,-3.5152,-3.5105,-3.5041,-3.4947,-3.4899,-3.4851,-3.4739,0.0,0.0,0.0,0.0,0.0,0.0,0.0,0.0,0.0,0.0,0.0,0.0,0.0,0.0,0.0,0.0,0.0,0.0,0.0,0.0,0.0,0.0,-2.2638,-2.2585,-2.3117,-2.4288,-2.534,-2.6182,-2.6893,-2.715,-2.6956,-2.8076,-2.9547,-3.1389,-3.2987,-3.3984,-3.4556,-3.5625,-3.6928,-3.8156,-3.7749,0.0,0.0,0.0,0.0,0.0,0.0,0.0,0.0,-3.9906,-3.9919,-3.973,-4.1664,0.0,0.0,0.0,0.0,0.0,-4.4954,-4.6288,-4.7242,-4.6573,-4.7415,-4.8211,-4.7459,0.0,0.0,0.0,0.0,0.0,0.0,-4.6036,-4.5932,-4.607,-4.5266,-4.4597,-4.4589,-4.454,-4.482,-4.5684,-4.4315,-4.3184,-4.2981,-4.1342,-4.0148,-3.9889,-3.957,-3.929,-3.9101,-3.895,-3.8792,-3.8658,-3.8405,-3.8204,-3.8068,-3.7559,-3.7297,-3.7314,-3.6987,-3.6829,-3.6788,-3.6585,-3.6402,-3.6259,-3.6019,-3.5844,-3.5728,-3.552,-3.5446,-3.54,-3.5198,-3.5105,-3.5058,-3.4947,-3.4899,-3.4851,0.0,0.0,0.0,0.0,0.0,0.0,0.0,0.0,0.0,0.0,0.0,0.0,0.0,0.0,0.0,0.0,0.0,0.0,0.0,0.0,0.0,0.0,-2.3762,-2.3826,-2.4113,-2.435,-2.5149,-2.6585,-2.6337,-2.6512,-2.7146,-2.9345,-3.0957,-3.2041,-3.3868,-3.4903,-3.5351,-3.5942,-3.7128,-3.8605,0.0,0.0,0.0,0.0,0.0,0.0,0.0,0.0,0.0,0.0,-3.9461,-3.9483,-4.0432,0.0,0.0,0.0,0.0,0.0,-4.4056,-4.5508,-4.656,-4.5703,-4.7388,-4.9147,-4.8742,-4.8264,0.0,0.0,0.0,0.0,-4.567,-4.5943,-4.615,-4.5664,-4.5224,-4.4758,-4.4228,-4.451,-4.4691,-4.4531,-4.3708,-4.2934,-4.2396,-4.0978,-4.0059,-4.0015,-3.9647,-3.9401,-3.929,-3.9101,-3.895,-3.8792,-3.8496,-3.8252,-3.8101,-3.7595,-3.7334,-3.7314,-3.7087,-3.693,-3.6788,-3.669,-3.6568,-3.6402,-3.6216,-3.6062,-3.5905,-3.5745,-3.5611,-3.5492,-3.5337,-3.5291,-3.5198,-3.5152,-3.5105,-3.5135,0.0,0.0,0.0,0.0,0.0,0.0,0.0,0.0,0.0,0.0,0.0,0.0,0.0,0.0,0.0,0.0,0.0,0.0,0.0,0.0,-2.478,-2.462,-2.4666,-2.4602,-2.4475,-2.4078,-2.4689,-2.6375,-2.5631,-2.6143,-2.787,-3.0596,-3.2166,-3.2809,-3.4667,-3.5722,-3.6105,-3.6208,-3.7172,-3.8617,0.0,0.0,0.0,0.0,0.0,0.0,0.0,0.0,0.0,0.0,0.0,0.0,0.0,0.0,0.0,-4.1828,-4.2109,-4.2284,-4.3154,-4.461,-4.578,-4.5292,0.0,-4.9504,-4.9505,-4.8974,-4.8296,-4.7694,-4.7475,-4.6936,-4.5462,-4.5792,-4.6002,-4.5137,-4.5128,-4.4926,-4.4039,-4.4409,-4.453,-4.3815,-4.3247,-4.2637,-4.1902,-4.0821,-4.0063,-3.9812,-3.9668,-3.9451,-3.9139,-3.9125,-3.9045,-3.8892,-3.8572,-3.8318,-3.8101,-3.7685,-3.7429,-3.7334,-3.7164,-3.6992,-3.6851,-3.6811,-3.6708,-3.6585,-3.6385,-3.6216,-3.6062,-3.5905,-3.5745,-3.5611,-3.5566,-3.5475,-3.5321,-3.5321,-3.5321,-3.5367,0.0,0.0,0.0,0.0,0.0,0.0,0.0,0.0,0.0,0.0,0.0,0.0,0.0,0.0,0.0,0.0,0.0,0.0,0.0,0.0,-2.4721,-2.5458,-2.5154,-2.4382,-2.3144,-2.3763,-2.4313,-2.4851,-2.5463,-2.6955,-2.9396,-3.1229,-3.2854,-3.4283,-3.5358,-3.6097,-3.6444,-3.6461,-3.7095,-3.807,-3.8117,0.0,0.0,0.0,0.0,0.0,0.0,0.0,0.0,0.0,0.0,0.0,0.0,0.0,-4.0062,-4.0937,-4.1189,-4.1377,-4.2264,-4.3719,-4.515,-4.5838,-4.7349,-4.8674,-4.8613,-4.8496,-4.8405,-4.8412,-4.7816,-4.7067,-4.624,-4.621,-4.601,-4.5135,-4.5661,-4.5874,-4.4938,-4.4793,-4.477,-4.4715,-4.3144,-4.2041,-4.1914,-4.0976,-3.9982,-3.8956,-3.9437,-3.9326,-3.8353,-3.8854,-3.9101,-3.891,-3.8634,-3.8382,-3.8101,-3.7845,-3.7595,-3.7392,-3.7126,-3.7048,-3.7069,-3.6891,-3.6788,-3.6748,-3.6426,-3.6301,-3.6259,-3.6062,-3.5975,-3.5932,-3.5817,-3.5622,-3.5379,-3.5379,-3.547,-3.5577,0.0,0.0,0.0,0.0,0.0,0.0,0.0,0.0,0.0,0.0,0.0,0.0,0.0,0.0,0.0,0.0,0.0,0.0,0.0,0.0,-2.512,-2.5997,-2.5888,-2.539,-2.4506,-2.3737,-2.3964,-2.5212,-2.6521,-2.7997,-2.9633,-3.2101,-3.3894,-3.5029,-3.6087,-3.6609,-3.6643,-3.6643,-3.7161,-3.8023,-3.8214,-3.8929,0.0,0.0,0.0,0.0,0.0,0.0,0.0,0.0,-3.7674,-3.7055,-3.7884,-3.8526,-3.9168,-4.0039,-4.0285,-4.0489,-4.1347,-4.2822,-4.4163,-4.4464,-4.5405,0.0,0.0,-4.8457,-4.8288,-4.7837,-4.7509,-4.6912,-4.5682,-4.5473,-4.5202,-4.4335,-4.4919,-4.4984,-4.3552,-4.374,-4.3654,-4.2574,-4.2247,-4.1858,-4.1208,-4.0235,-3.944,-3.8974,-3.8534,-3.8118,-3.7656,-3.7802,-3.7772,-3.7534,-3.7302,-3.7259,-3.7326,-3.7124,-3.7166,-3.7503,-3.7279,-3.722,-3.7203,-3.7143,-3.7066,-3.6908,-3.6811,-3.6609,-3.6402,-3.6318,-3.6251,-3.6122,-3.5993,-3.5888,-3.5888,-3.5888,-3.5932,-3.5993,0.0,0.0,0.0,0.0,0.0,0.0,0.0,0.0,0.0,0.0,0.0,0.0,0.0,0.0,0.0,0.0,0.0,0.0,0.0,-2.5425,-2.5883,-2.6678,-2.6528,-2.6201,-2.5778,-2.4374,-2.4264,-2.5524,-2.7344,-2.8915,-3.0391,-3.2917,-3.4648,-3.5661,-3.658,-3.6948,-3.6829,-3.6742,-3.7103,-3.772,-3.7962,-3.8513,0.0,0.0,0.0,0.0,0.0,0.0,0.0,0.0,-3.7198,-3.6571,-3.7047,-3.7617,-3.8256,-3.912,-3.9578,-3.9927,-4.0535,-4.1914,-4.3182,-4.3152,0.0,0.0,-4.6926,-4.7469,-4.7552,-4.7326,-4.6881,-4.6227,-4.5153,-4.4766,-4.4396,-4.3807,-4.4199,-4.4173,-4.2982,-4.3046,-4.2773,-4.1556,-4.1392,-4.11,-4.0391,-3.9408,-3.8658,-3.8278,-3.7757,-3.7315,-3.6963,-3.7036,-3.698,-3.6763,-3.649,-3.6439,-3.6626,-3.6381,-3.6466,-3.6899,-3.704,-3.7179,-3.7334,-3.7297,-3.722,-3.7105,-3.7048,-3.6891,-3.665,-3.6626,-3.6502,-3.6353,-3.6208,-3.6191,-3.6293,-3.6293,-3.6293,-3.6293,0.0,0.0,0.0,0.0,0.0,0.0,0.0,0.0,0.0,0.0,0.0,0.0,0.0,0.0,0.0,0.0,0.0,0.0,0.0,-2.6348,-2.6968,-2.7582,-2.6959,-2.6602,-2.6516,-2.5747,-2.545,-2.5637,-2.7633,-2.9765,-3.2038,-3.3609,-3.5023,-3.631,-3.6791,-3.7048,-3.7052,-3.6788,-3.6869,-3.7108,-3.7299,-3.7522,-3.7739,0.0,0.0,0.0,0.0,0.0,0.0,0.0,-3.6771,-3.5804,-3.6846,0.0,-3.7361,-3.824,-3.9103,-3.9778,-3.9797,-4.1013,-4.2266,-4.2205,0.0,0.0,-4.4707,-4.5318,-4.6119,-4.6991,-4.5949,-4.4883,-4.4889,-4.4235,-4.369,-4.3683,-4.367,-4.3671,-4.3679,-4.2923,-4.2349,-4.2286,-4.0688,-3.9558,-3.9495,-3.8569,-3.7584,-3.6673,-3.7219,-3.7167,-3.6234,-3.676,-3.7009,-3.6889,-3.6498,-3.6211,-3.5982,-3.567,-3.5442,-3.5411,-3.6217,-3.6881,-3.7374,-3.7334,-3.7297,-3.7297,-3.7147,-3.7069,-3.6987,-3.6869,-3.6748,-3.6702,-3.6544,-3.6502,-3.6502,-3.6502,-3.6502,-3.6544,0.0,0.0,0.0,0.0,0.0,0.0,0.0,0.0,0.0,0.0,0.0,0.0,0.0,0.0,0.0,0.0,0.0,0.0,0.0,-2.6897,-2.7191,-2.7847,-2.7699,-2.7783,-2.818,-2.8569,-2.8106,-2.6788,-2.8543,-3.0682,-3.323,-3.4464,-3.551,-3.6327,-3.698,-3.6847,-3.6218,-3.6763,-3.7031,-3.7147,-3.7485,-3.7721,-3.7881,0.0,0.0,0.0,0.0,0.0,0.0,0.0,0.0,0.0,-3.6266,0.0,-3.647,-3.7382,-3.7802,-3.8108,-3.8725,-4.0117,-4.1373,-4.136,-4.2131,-4.3031,-4.3594,-4.4408,-4.4955,-4.4591,-4.4239,-4.381,-4.3181,-4.3426,-4.3294,-4.2062,-4.2382,-4.2578,-4.1966,-4.1111,-4.0559,-4.0544,-3.9485,-3.8732,-3.8655,-3.7738,-3.7011,-3.6635,-3.6162,-3.5719,-3.5306,-3.5413,-3.5375,-3.5086,-3.4872,-3.4862,-3.5084,-3.4896,-3.5029,-3.5493,-3.6251,-3.6665,-3.6881,-3.7471,-3.7631,-3.7503,-3.7392,-3.7223,-3.7069,-3.6891,-3.6788,-3.6748,-3.6684,-3.6725,-3.6829,-3.6748,-3.6811,-3.6913,0.0,0.0,0.0,0.0,0.0,0.0,0.0,0.0,0.0,0.0,0.0,0.0,0.0,0.0,0.0,0.0,0.0,0.0,0.0,0.0,-2.7985,-2.862,-2.8599,-2.8887,-2.9549,-3.0039,-2.9889,-2.9119,-2.9986,-3.161,-3.3926,-3.4898,-3.5541,-3.5918,-3.6575,-3.6339,-3.541,-3.5905,-3.6368,-3.6801,-3.7149,-3.7558,-3.8002,0.0,0.0,0.0,0.0,0.0,0.0,0.0,0.0,0.0,0.0,0.0,-3.6027,-3.662,-3.6986,-3.7393,-3.8268,-3.9215,-4.0035,-4.0362,-4.1014,-4.1784,-4.2563,-4.3447,-4.3969,-4.3455,-4.317,-4.2866,-4.239,-4.2226,-4.1811,-4.075,-4.0757,-4.0703,-4.0171,-3.9652,-3.9302,-3.9287,-3.8455,-3.7864,-3.7841,-3.6914,-3.628,-3.6171,-3.5592,-3.516,-3.4945,-3.4849,-3.4666,-3.4386,-3.4148,-3.4107,-3.4306,-3.4063,-3.4163,-3.4573,-3.5316,-3.5906,-3.6314,-3.7395,-3.781,-3.7649,-3.7466,-3.7337,-3.7223,-3.7048,-3.6987,-3.6987,-3.6908,-3.6987,-3.7105,-3.697,-3.6992,-3.7069,0.0,0.0,0.0,0.0,0.0,0.0,0.0,0.0,0.0,0.0,0.0,0.0,0.0,0.0,0.0,0.0,0.0,0.0,0.0,0.0,-2.9064,-2.9593,-2.9709,-3.0037,-3.0695,-3.0701,-3.1124,-3.205,-3.1698,-3.2446,-3.4225,-3.495,-3.5256,-3.5186,-3.5829,-3.5579,-3.4693,-3.4637,-3.5223,-3.6221,-3.6398,-3.7086,-3.7917,-3.8209,0.0,0.0,0.0,0.0,0.0,0.0,0.0,0.0,-3.5872,-3.5905,-3.5903,-3.5987,-3.6523,-3.7259,-3.8039,-3.8286,-3.8451,-3.918,-3.9975,-4.0742,-4.1503,-4.2261,-4.2878,-4.3015,-4.2416,-4.1908,-4.2035,-4.074,-3.9672,-3.9683,-3.9066,-3.8588,-3.8591,-3.8526,-3.8453,-3.8395,-3.7553,-3.7,-3.6973,-3.6144,-3.5589,-3.5515,-3.5379,-3.5229,-3.502,-3.4869,-3.4689,-3.4383,-3.4062,-3.3778,-3.3588,-3.3291,-3.3117,-3.3165,-3.3926,-3.4794,-3.576,-3.7174,-3.7774,-3.7703,-3.7485,-3.7429,-3.7392,-3.7334,-3.7297,-3.7297,-3.7185,-3.7203,-3.7297,-3.7185,-3.7147,-3.7147,0.0,0.0,0.0,0.0,0.0,0.0,0.0,0.0,0.0,0.0,0.0,0.0,0.0,0.0,0.0,0.0,0.0,0.0,0.0,0.0,-2.921,-2.9813,-3.0892,-3.1552,-3.1685,-3.2437,-3.29,-3.2979,-3.2145,-3.2568,-3.4228,-3.5001,-3.4918,-3.4196,-3.5509,-3.5242,-3.3811,-3.4588,-3.5102,-3.5385,-3.5693,-3.6077,-3.6461,-3.6696,-3.6943,0.0,0.0,0.0,0.0,0.0,0.0,0.0,-3.6891,-3.6345,-3.5914,-3.5984,-3.6113,-3.6282,-3.6423,-3.6941,-3.75,-3.7614,-3.8158,-3.8878,-3.9604,-3.988,-4.0219,-4.1007,-4.0575,-4.0082,-4.0159,-3.9361,-3.8714,-3.876,-3.8622,-3.8543,-3.8593,-3.8006,-3.7546,-3.748,-3.6699,-3.6138,-3.6075,-3.5834,-3.5623,-3.5515,-3.5422,-3.5258,-3.502,-3.4812,-3.4348,-3.3515,-3.3741,-3.3521,-3.2783,-3.3125,-3.3364,-3.3422,-3.4117,-3.4635,-3.4988,-3.6508,-3.739,-3.7703,-3.7667,-3.7559,-3.7392,-3.7392,-3.7392,-3.7392,-3.7354,-3.7429,-3.7503,-3.7374,-3.7449,-3.7559,0.0,0.0,0.0,0.0,0.0,0.0,0.0,0.0,0.0,0.0,0.0,0.0,0.0,0.0,0.0,0.0,0.0,0.0,0.0,0.0,0.0,-3.0524,-3.1852,-3.2403,-3.2159,-3.2625,-3.2881,-3.2861,-3.1981,-3.2329,-3.3768,-3.4888,-3.4896,-3.4031,-3.5189,-3.4942,-3.3687,-3.3861,-3.4246,-3.4702,-3.4914,-3.5434,-3.6072,-3.624,-3.6481,-3.6812,-3.7374,0.0,0.0,0.0,0.0,0.0,0.0,0.0,-3.5864,-3.5968,-3.5992,-3.6073,-3.644,-3.6553,-3.6651,-3.6929,-3.7165,-3.7647,-3.8843,-3.872,-3.8644,-3.9553,-3.9562,-3.9317,-3.9034,-3.833,-3.765,-3.7318,-3.6934,-3.6543,-3.6169,-3.5723,-3.5425,-3.5372,-3.4987,-3.4675,-3.4614,-3.4891,-3.4874,-3.4338,-3.4603,-3.4657,-3.4394,-3.3847,-3.3424,-3.3168,-3.3229,-3.301,-3.2447,-3.3081,-3.3422,-3.3452,-3.3828,-3.4286,-3.4793,-3.6236,-3.7262,-3.7845,-3.7792,-3.7739,-3.7631,-3.7631,-3.7631,-3.7613,-3.7577,-3.7613,-3.7739,-3.754,-3.7577,-3.7613,0.0,0.0,0.0,0.0,0.0,0.0,0.0,0.0,0.0,0.0,0.0,0.0,0.0,0.0,0.0,0.0,0.0,0.0,0.0,0.0,0.0,0.0,-3.2524,-3.2907,-3.2291,-3.2274,-3.2229,-3.2192,-3.1571,-3.2001,-3.3358,-3.4645,-3.4924,-3.444,-3.5198,-3.4918,-3.389,-3.3301,-3.3448,-3.4024,-3.4212,-3.4866,-3.5732,-3.5901,-3.6136,-3.6453,-3.6718,-3.6553,-3.6254,-3.6519,0.0,0.0,0.0,0.0,-3.5801,-3.5767,-3.5767,-3.5918,-3.6589,-3.6337,-3.6002,-3.654,-3.6471,-3.6684,-3.8172,-3.7909,-3.7528,-3.8213,-3.8482,-3.8446,-3.7893,-3.7036,-3.618,-3.5533,-3.4881,-3.4206,-3.3506,-3.3396,-3.3398,-3.3392,-3.3392,-3.3364,-3.3307,-3.3845,-3.3887,-3.3081,-3.3564,-3.3791,-3.3501,-3.2731,-3.2408,-3.2676,-3.2521,-3.236,-3.2246,-3.2892,-3.3306,-3.3452,-3.3509,-3.3967,-3.4834,-3.5946,-3.6952,-3.7871,-3.7966,-3.7969,-3.7969,-3.7969,-3.7969,-3.7969,-3.7828,-3.7828,-3.7916,-3.7739,-3.7667,-3.7631,0.0,0.0,0.0,0.0,0.0,0.0,0.0,0.0,0.0,0.0,0.0,0.0,0.0,0.0,0.0,0.0,0.0,0.0,-2.9699,0.0,0.0,-3.1396,-3.2776,-3.311,-3.2244,-3.2375,-3.2074,-3.1274,-3.1245,-3.1983,-3.3499,-3.4207,-3.4771,-3.5265,-3.6072,-3.5538,-3.4077,-3.4082,-3.3782,-3.3352,-3.3676,-3.4,-3.4305,-3.4414,-3.4652,-3.5011,-3.5772,-3.6151,-3.6426,-3.724,-3.7099,0.0,0.0,0.0,-3.5678,-3.4988,-3.4836,-3.49,-3.4999,0.0,-3.5815,-3.5773,-3.5611,-3.5656,-3.6387,-3.6444,-3.6327,-3.6441,-3.6133,-3.583,-3.5797,-3.4565,-3.3548,-3.3561,-3.3531,-3.3473,-3.3415,-3.3402,-3.3395,-3.3398,-3.3406,-3.336,-3.3312,-3.3388,-3.3347,-3.3103,-3.3076,-3.2941,-3.2659,-3.2428,-3.192,-3.1036,-3.1487,-3.1667,-3.1536,-3.2263,-3.2967,-3.3643,-3.3671,-3.4081,-3.4798,-3.4987,-3.5848,-3.7257,-3.7994,-3.8303,-3.8241,-3.8241,-3.8241,-3.8223,-3.8086,-3.8068,-3.8052,-3.7916,-3.7864,-3.7828,0.0,0.0,0.0,0.0,0.0,0.0,0.0,0.0,0.0,0.0,0.0,0.0,0.0,0.0,0.0,-2.9938,-3.0433,-3.0494,-2.9701,-3.0511,-3.1164,-3.152,-3.2383,-3.2511,-3.1719,-3.1745,-3.137,-3.0549,-3.0186,-3.1459,0.0,-3.4025,-3.4775,-3.6305,-3.6215,-3.5717,-3.495,-3.4114,-3.3611,-3.3386,-3.3643,-3.4481,-3.5467,-3.458,-3.5034,-3.6048,-3.5482,-3.5437,-3.5701,-3.62,-3.6204,-3.6048,-3.6192,0.0,0.0,0.0,-3.5415,-3.5423,-3.538,-3.5247,-3.5084,-3.4902,-3.4661,-3.462,-3.523,-3.49,-3.4586,-3.4993,-3.3923,-3.3236,-3.4391,-3.3723,-3.2706,-3.1823,-3.1778,-3.154,-3.0604,-3.0485,-3.0687,-3.1208,-3.1249,-3.1394,-3.1841,-3.2313,-3.2324,-3.1743,-3.2017,-3.2109,-3.1832,-3.1235,-3.0829,-3.0681,-3.1283,-3.1549,-3.147,-3.2702,-3.3784,-3.4639,-3.4054,-3.422,-3.5083,-3.4981,-3.5743,-3.7171,-3.758,-3.7949,-3.8354,-3.8354,-3.8354,-3.8336,-3.8285,-3.8252,-3.8204,-3.8002,-3.7916,-3.7864,0.0,0.0,0.0,0.0,0.0,0.0,0.0,0.0,0.0,0.0,0.0,0.0,0.0,0.0,0.0,0.0,-3.1245,-3.0874,-2.9683,-3.0381,-3.1084,-3.1597,-3.229,-3.2347,-3.1631,-3.1352,-3.0834,-3.0094,0.0,0.0,-3.448,-3.4069,-3.509,-3.7301,-3.6685,-3.6195,-3.5679,-3.4528,-3.4,-3.3962,-3.4402,-3.5509,-3.6769,-3.6012,-3.6531,-3.7482,-3.6043,-3.5514,-3.5429,-3.5346,-3.5402,-3.5476,-3.5388,-3.5424,0.0,0.0,0.0,-3.4996,-3.4953,-3.4603,-3.4236,-3.4042,-3.3763,-3.3601,-3.396,-3.3435,-3.3019,-3.3501,-3.2002,-3.1052,-3.261,-3.2384,-3.1472,-3.0028,-2.9898,-2.9562,-2.832,-2.8155,-2.845,-2.916,-2.939,-2.9765,-3.0417,-3.12,-3.1396,-3.0683,-3.111,-3.1302,-3.1016,-3.0246,-2.9983,-3.0367,-3.1014,-3.1394,-3.1549,-3.3204,-3.4474,-3.5351,-3.4547,-3.4694,-3.5613,-3.5459,-3.6101,-3.7351,-3.732,-3.7778,-3.851,-3.851,-3.8528,-3.8478,-3.8496,-3.8401,-3.8289,-3.8086,-3.7967,-3.7864,0.0,0.0,0.0,0.0,0.0,0.0,0.0,0.0,0.0,0.0,0.0,0.0,-3.3237,-3.3213,-3.3106,-3.289,-3.1904,-3.0823,-2.9664,-3.1001,-3.1805,-3.1705,-3.3004,0.0,-3.2446,-3.1626,-3.0841,0.0,0.0,0.0,-3.3686,-3.432,-3.5877,-3.8153,-3.8165,-3.7326,-3.5921,-3.6003,-3.5642,-3.5128,-3.6286,-3.6878,-3.7261,-3.8977,-3.9237,-3.8613,-3.7831,-3.7082,-3.6307,-3.555,-3.5397,-3.5372,-3.4689,-3.4561,-3.4361,0.0,0.0,0.0,-3.2293,-3.281,-3.3322,-3.32,-3.2961,-3.2676,-3.2317,-3.2098,-3.1924,-3.176,-3.0538,-2.9548,-2.9776,-2.945,-2.8842,-2.7984,-2.7958,-2.8029,-2.8008,-2.8068,-2.814,-2.8256,-2.8996,-2.9527,-2.9568,-3.0355,-3.0825,-3.0698,-3.0615,-3.0475,-3.0272,-2.9975,-2.9738,-2.9567,-3.0267,-3.0999,-3.1691,-3.3302,-3.45,-3.5299,-3.5235,-3.5695,-3.6525,-3.6472,-3.6906,-3.7757,-3.7691,-3.8124,-3.8862,-3.8862,-3.8851,-3.8762,-3.8719,-3.8578,-3.835,-3.8168,-3.8002,-3.7864,0.0,0.0,0.0,0.0,0.0,0.0,0.0,0.0,0.0,0.0,0.0,0.0,0.0,-3.6044,-3.5359,-3.4659,-3.2996,-3.1803,-3.1299,-3.1742,-3.2195,-3.2562,-3.2952,-3.2967,-3.2562,-3.167,-3.0815,0.0,0.0,-3.0987,-3.2858,-3.3575,-3.4945,-3.6749,-3.7321,-3.7307,-3.6784,-3.645,-3.6261,-3.6189,-3.6788,-3.8093,-3.9573,-3.866,-3.924,-4.0292,-3.8384,-3.7211,-3.6535,-3.6325,-3.5939,-3.5538,-3.534,-3.4991,-3.4374,-3.3262,-3.2909,-3.2875,-3.2865,-3.2639,-3.238,-3.229,-3.2,-3.1645,-3.128,-3.0993,-3.0651,-3.0065,-2.9123,-2.799,-2.6488,-2.714,-2.7666,-2.6866,-2.6847,-2.6598,-2.5571,-2.5975,-2.6404,-2.6525,-2.7293,-2.8045,-2.8611,-2.9449,-2.9712,-2.9138,-2.997,-3.015,-2.9333,-2.9668,-3.0018,-3.0318,-3.1078,-3.2117,-3.3417,-3.3995,-3.4976,-3.631,-3.5764,-3.6236,-3.7534,-3.6961,-3.714,-3.792,-3.7894,-3.8294,-3.891,-3.891,-3.8881,-3.8851,-3.875,-3.8609,-3.8428,-3.8201,-3.8052,-3.7933,0.0,0.0,0.0,0.0,0.0,0.0,0.0,0.0,0.0,0.0,0.0,0.0,0.0,0.0,-3.6464,-3.5078,-3.3917,-3.294,-3.2201,-3.2383,-3.267,-3.3082,-3.3197,-3.3179,-3.3025,-3.2125,0.0,0.0,0.0,0.0,0.0,-3.3439,-3.4648,-3.5926,-3.6528,-3.6985,-3.7278,-3.6988,-3.6988,-3.7243,-3.8099,-3.9343,-4.0672,-4.025,-4.0712,-4.136,-3.9695,-3.8418,-3.7502,-3.7288,-3.6907,-3.6425,-3.5946,-3.4854,-3.3609,-3.2767,-3.2474,-3.2436,-3.2426,-3.1955,-3.1432,-3.1302,-3.0849,-3.0392,-3.0246,-2.9625,-2.8975,-2.8604,-2.7714,-2.6418,-2.4542,-2.5111,-2.5625,-2.494,-2.4921,-2.4631,-2.3629,-2.4072,-2.4648,-2.5084,-2.5897,-2.6778,-2.7678,-2.8555,-2.8813,-2.8208,-2.9082,-2.9408,-2.8861,-2.9232,-2.9999,-3.116,-3.1717,-3.2761,-3.4386,-3.4386,-3.5245,-3.6889,-3.6273,-3.6895,-3.8565,-3.7947,-3.7958,-3.8454,-3.8409,-3.8618,-3.8979,-3.8979,-3.895,-3.891,-3.8792,-3.8621,-3.8428,-3.8285,-3.8086,-3.7933,0.0,0.0,0.0,0.0,0.0,0.0,0.0,0.0,0.0,-3.9747,0.0,0.0,0.0,0.0,0.0,-3.4198,-3.4598,-3.4169,-3.2345,-3.2922,-3.329,-3.3161,-3.3746,-3.4049,-3.3895,0.0,0.0,0.0,0.0,0.0,0.0,0.0,-3.515,-3.589,-3.5927,-3.6456,-3.7278,-3.7626,-3.7894,-3.8315,-4.0264,-4.0653,-4.0496,-4.3982,-4.3828,-4.1775,-4.18,-4.0781,-3.9309,-3.8421,-3.8205,-3.7976,-3.6292,-3.4096,-3.1965,-3.1092,-3.0774,-3.0697,0.0,0.0,0.0,-3.0198,-2.9487,-2.8927,-2.9176,-2.7974,-2.6925,-2.7437,-2.6275,-2.4908,-2.4071,-2.3269,-2.2556,-2.2095,-2.2102,-2.226,-2.2445,-2.2592,-2.3063,-2.4034,-2.493,-2.5837,-2.678,-2.7645,-2.8124,-2.8022,-2.8016,-2.8242,-2.8792,-2.87,-2.9662,-3.192,-3.2035,-3.2801,-3.4386,-3.4386,-3.5226,-3.687,-3.6839,-3.7741,-3.9458,-3.9425,-3.9399,-3.9354,-3.9256,-3.9137,-3.9064,-3.9082,-3.9017,-3.8892,-3.891,-3.8695,-3.8415,-3.8382,-3.8171,-3.7899,0.0,0.0,0.0,0.0,0.0,0.0,0.0,0.0,-4.1312,0.0,0.0,0.0,-4.2448,-4.0857,-3.8895,-3.6913,-3.623,-3.5647,-3.5035,-3.4555,-3.4264,-3.4113,-3.4204,-3.4148,-3.3895,0.0,0.0,0.0,0.0,0.0,0.0,0.0,0.0,0.0,-3.5107,-3.5674,-3.6599,-3.6869,-3.7865,-3.925,-3.9331,-4.0753,-4.2821,-4.268,-4.3004,-4.3345,-4.2223,-4.1176,-4.0217,-3.9391,-3.8355,-3.7152,-3.5529,-3.4098,-3.2869,-3.2005,-3.1215,-3.0497,-2.9865,0.0,0.0,0.0,0.0,0.0,-2.7782,-2.7157,-2.6444,-2.5969,-2.4969,-2.3759,-2.2366,-2.1384,-2.0571,-1.9968,-2.1005,-2.1794,-2.1392,-2.1995,-2.2639,-2.306,-2.3971,-2.4927,-2.5878,-2.6745,-2.699,-2.635,-2.7356,-2.772,-2.7127,-2.8563,-3.0227,-3.2021,-3.2681,-3.3487,-3.4454,-3.4517,-3.5079,-3.6119,-3.6705,-3.7596,-3.8651,-3.9264,-3.9164,-3.8552,-3.9111,-3.8965,-3.8364,-3.8887,-3.9045,-3.895,-3.8881,-3.8683,-3.8446,-3.8234,-3.8086,-3.7895,0.0,0.0,0.0,0.0,0.0,0.0,0.0,0.0,-4.4024,0.0,0.0,0.0,-4.3047,-4.1934,-4.0442,-3.8553,-3.7753,-3.6977,-3.6096,-3.5543,-3.5023,-3.4536,-3.4386,-3.4221,-3.3998,-3.3434,0.0,0.0,0.0,0.0,0.0,0.0,0.0,0.0,0.0,-3.4761,-3.5366,-3.5621,-3.705,-3.9232,-4.0006,-4.1352,-4.2883,-4.312,-4.3441,-4.3667,-4.3099,-4.2198,-4.1226,-4.0787,-3.9324,-3.7397,-3.5759,-3.464,-3.3612,-3.1995,-3.1315,-3.0909,0.0,0.0,-2.9425,-2.8415,0.0,0.0,-2.7095,-2.6246,-2.5358,-2.4735,-2.3883,-2.271,-2.1069,-2.0308,-1.9697,-1.895,-1.9776,-2.045,-2.0299,-2.0827,-2.1585,-2.2547,-2.3237,-2.4142,-2.5464,-2.6056,-2.6151,-2.5648,-2.6418,-2.6892,-2.6816,-2.8652,-3.0453,-3.2045,-3.2589,-3.3395,-3.4539,-3.4561,-3.5015,-3.5837,-3.6704,-3.7554,-3.8362,-3.885,-3.8721,-3.8178,-3.8296,-3.8014,-3.7482,-3.792,-3.8452,-3.8931,-3.8483,-3.8358,-3.8446,-3.8267,-3.7902,-3.7428,0.0,0.0,0.0,0.0,0.0,0.0,0.0,0.0,0.0,0.0,-4.618,-4.4588,-4.2947,-4.2499,-4.1639,-3.9935,-3.9279,-3.8248,-3.6589,-3.6189,-3.5593,-3.4708,-3.4487,-3.4316,-3.4124,-3.3972,0.0,0.0,0.0,0.0,0.0,0.0,0.0,0.0,0.0,0.0,-3.4049,-3.4498,-3.6133,-3.8652,-4.1174,-4.1987,-4.1972,-4.4422,-4.4491,-4.333,-4.4025,-4.333,-4.2078,-4.1859,-4.0317,-3.8213,-3.6537,-3.5409,-3.4211,-3.1721,-3.1372,-3.1612,-3.0616,0.0,0.0,-2.8717,-2.7956,0.0,-2.6693,-2.5392,-2.4188,-2.3762,-2.2908,-2.1756,-2.0194,-1.9757,-1.9452,-1.8746,-1.8678,-1.886,-1.9301,-1.9513,-2.0339,-2.2337,-2.2709,-2.3531,-2.5406,-2.5505,-2.5506,-2.5586,-2.5544,-2.6072,-2.7338,-2.8885,-3.0453,-3.2048,-3.2195,-3.302,-3.4604,-3.4623,-3.5058,-3.5929,-3.6731,-3.7558,-3.839,-3.8324,-3.8171,-3.7941,-3.7231,-3.6777,-3.6582,-3.6556,-3.7441,-3.8689,-3.7808,-3.7778,-3.8237,-3.8164,-3.7519,-3.6802,-5.0102,0.0,0.0,0.0,0.0,0.0,0.0,0.0,-4.8166,-4.8341,-4.8069,-4.7445,-4.6332,-4.5518,-4.4583,-4.3477,-4.1299,-3.9815,-3.9414,-3.7277,-3.5899,-3.5644,-3.4832,-3.4316,-3.4173,-3.4049,-3.3873,-3.3647,0.0,0.0,0.0,0.0,0.0,0.0,0.0,0.0,-3.4338,-3.5853,-3.7322,-3.8696,-3.9373,-4.1227,-4.3637,-4.4285,-4.4369,-4.4083,-4.3675,-4.2942,-4.1879,-3.9883,-3.8902,-3.8209,-3.6521,-3.5408,-3.4456,-3.3166,-3.2363,-3.1514,-2.982,-2.9301,-2.8849,-2.717,-2.7028,0.0,-2.529,-2.4986,-2.4579,-2.3064,-2.2013,-2.1046,-2.0007,-1.9292,-1.8813,-1.8769,-1.8733,-1.8807,-1.9132,-1.9409,-2.03,-2.2223,-2.2662,-2.3526,-2.5338,-2.4926,-2.4838,-2.5546,-2.6025,-2.665,-2.7437,-2.8982,-3.0582,-3.2145,-3.2799,-3.3646,-3.4666,-3.4666,-3.5122,-3.5996,-3.6798,-3.7623,-3.8395,-3.8324,-3.792,-3.7282,-3.7061,-3.6558,-3.5888,-3.5771,-3.6607,-3.7858,-3.7036,-3.7011,-3.7361,-3.6599,-3.6479,-3.6606,-5.1183,0.0,0.0,0.0,0.0,0.0,0.0,0.0,-5.1167,-5.1189,-5.0409,-4.9497,-4.854,-4.7226,-4.6032,-4.5128,-4.3307,-4.1628,-4.0292,-3.8859,-3.7635,-3.6696,-3.5678,-3.5071,-3.4902,-3.4321,-3.3972,-3.3947,0.0,0.0,0.0,0.0,0.0,0.0,0.0,0.0,-3.5192,-3.6566,-3.7532,-3.8248,-4.01,-4.2164,-4.4212,-4.4776,-4.5028,-4.4989,-4.4233,-4.3183,-4.1885,-3.9847,-3.8853,-3.8207,-3.6523,-3.5677,-3.4944,-3.3165,-3.2582,-3.2086,-3.0202,-2.9615,-2.9221,-2.7804,-2.7315,0.0,0.0,-2.4819,-2.421,-2.2665,-2.1676,-2.0788,-1.987,-1.9074,-1.8603,-1.877,-1.8861,-1.8981,-1.9222,-1.939,-2.0214,-2.2174,-2.2633,-2.3521,-2.5329,-2.4763,-2.4442,-2.4814,-2.6275,-2.7271,-2.7574,-2.9505,-3.1121,-3.2203,-3.3031,-3.3859,-3.4687,-3.5164,-3.562,-3.6056,-3.7279,-3.7838,-3.7857,-3.7746,-3.7225,-3.6433,-3.596,-3.5479,-3.4992,-3.4896,-3.5762,-3.7054,-3.6113,-3.6366,-3.7075,-3.6181,-3.5955,-3.6085,-5.1838,0.0,0.0,0.0,0.0,0.0,0.0,0.0,-5.3727,-5.3771,-5.2498,-5.1289,-5.0535,-4.8851,-4.7554,-4.7024,-4.553,-4.3714,-4.1609,-4.0901,-3.9848,-3.8222,-3.6996,-3.6295,-3.6123,-3.4934,-3.4308,-3.4314,0.0,0.0,0.0,0.0,0.0,-3.5624,0.0,-3.5874,-3.6239,-3.7175,-3.7848,-3.8537,-4.159,-4.3178,-4.3846,-4.4999,-4.5298,-4.4962,-4.4194,-4.3073,-4.1758,-4.0301,-3.922,-3.8238,-3.6718,-3.6077,-3.5446,-3.3141,-3.2889,-3.2968,-3.1249,-3.0565,-3.006,-2.8919,-2.7985,-2.697,0.0,0.0,0.0,-2.2547,-2.1597,-2.0732,-1.985,-1.8972,-1.8465,-1.8789,-1.8888,-1.9042,-1.9378,-1.9453,-2.0161,-2.1976,-2.2419,-2.3215,-2.4835,-2.4545,-2.4214,-2.4083,-2.639,-2.7785,-2.7738,-3.0161,-3.1792,-3.2298,-3.3241,-3.4126,-3.4913,-3.5696,-3.6249,-3.6589,-3.7716,-3.8014,-3.7524,-3.7073,-3.6475,-3.575,-3.4892,-3.445,-3.4316,-3.4245,-3.5064,-3.6258,-3.5193,-3.5685,-3.6851,-3.5812,-3.5462,-3.5598,-5.1886,-5.1834,0.0,0.0,0.0,0.0,0.0,0.0,-5.3709,-5.3709,-5.3427,-5.3208,-5.316,-5.1532,-5.0743,-5.1499,-4.8436,-4.6374,-4.6067,-4.3713,-4.1867,-4.091,-3.9101,-3.8075,-3.8005,-3.6242,-3.5374,-3.5423,-3.4641,0.0,0.0,0.0,0.0,-3.568,-3.5712,-3.6242,-3.7194,-3.8148,-3.9546,-4.1226,-4.241,-4.2524,-4.2159,-4.3882,-4.3661,-4.2344,-4.1654,-4.1298,-4.1,-4.0096,-3.9213,-3.8339,-3.7363,-3.654,-3.5675,-3.4478,-3.4186,-3.4003,-3.2827,-3.1886,-3.0844,-2.9118,-2.8416,-2.7512,-2.5022,0.0,-2.4508,-2.28,0.0,-2.0856,-2.0091,0.0,0.0,-1.8858,-1.8596,-1.8578,-1.9379,-1.9687,-2.0238,-2.1292,-2.1615,-2.2127,-2.3101,-2.3766,-2.4099,-2.4023,-2.6351,-2.7832,-2.7871,-3.0786,-3.2431,-3.239,-3.3807,-3.495,-3.576,-3.5918,-3.6793,-3.831,-3.7716,-3.7769,-3.8316,-3.6754,-3.5968,-3.575,-3.4955,-3.4517,-3.4386,-3.4316,-3.4736,-3.5343,-3.4408,-3.4936,-3.604,-3.4368,-3.4521,-3.5493,-5.3313,-5.3716,0.0,0.0,0.0,0.0,0.0,0.0,-5.586,-5.586,-5.5355,-5.5203,-5.5753,-5.3809,-5.2632,-5.301,-5.1106,-4.923,-4.7696,-4.6474,-4.4919,-4.2942,-4.1535,-4.0257,-3.9152,-3.7704,-3.6509,-3.5597,-3.5235,0.0,0.0,0.0,0.0,-3.6647,-3.6625,-3.7251,-3.8347,-3.9242,-3.9833,-4.0285,-4.1675,-4.2055,-4.203,-4.4375,-4.426,-4.2762,-4.2018,-4.144,-4.092,-4.0084,-3.955,-3.9019,-3.7627,-3.6928,-3.6313,-3.4878,-3.442,-3.406,-3.2513,-3.211,-3.1539,-2.9223,-2.8476,-2.7718,-2.5505,-2.4779,-2.4178,-2.279,0.0,0.0,0.0,0.0,0.0,0.0,-1.9142,-1.9245,-1.971,-2.0002,-2.0446,-2.1257,-2.1962,-2.2665,-2.3455,-2.4277,-2.4524,-2.3986,-2.636,-2.7873,-2.7903,-3.0957,-3.2638,-3.2462,-3.3999,-3.4961,-3.5256,-3.575,-3.6396,-3.7156,-3.7222,-3.7159,-3.6971,-3.6179,-3.5548,-3.5019,-3.4664,-3.4427,-3.434,-3.4269,-3.4699,-3.531,-3.4305,-3.4486,-3.5195,-3.3967,-3.4069,-3.4792,-5.5089,0.0,0.0,0.0,0.0,0.0,0.0,-5.7334,-5.7754,-5.775,-5.7001,-5.6792,-5.7653,-5.5486,-5.4153,-5.4648,-5.3333,-5.1589,-4.944,-4.8988,-4.7703,-4.5207,-4.4145,-4.2731,-4.0858,-3.9483,-3.7891,-3.6011,-3.5797,0.0,0.0,0.0,0.0,0.0,-3.7368,-3.8137,-3.9446,-4.0323,-4.0663,-4.0694,-4.2017,-4.2714,-4.3101,-4.437,-4.4305,-4.3386,-4.235,-4.1608,-4.1007,-4.0365,-3.9999,-3.9571,-3.83,-3.7537,-3.6844,-3.5532,-3.4943,-3.4375,-3.2724,-3.2441,-3.1981,-2.9301,-2.8325,-2.753,-2.569,-2.4709,-2.3968,-2.3113,-2.2312,0.0,0.0,0.0,-1.9588,-1.9775,0.0,-1.9824,-1.9973,-2.019,-2.0612,-2.1397,-2.2296,-2.3213,-2.4154,-2.4566,-2.4798,-2.4922,-2.6721,-2.7948,-2.8241,-3.1123,-3.2699,-3.2514,-3.4263,-3.519,-3.5128,-3.5939,-3.6375,-3.6436,-3.6707,-3.6494,-3.5873,-3.5593,-3.5094,-3.4495,-3.4427,-3.4363,-3.4316,-3.4245,-3.4569,-3.507,-3.4212,-3.4156,-3.4428,-3.3767,-3.3882,-3.4384,-5.702,-5.6261,0.0,-5.6902,-5.7774,-5.8414,-5.859,-5.8648,-5.8651,-5.8661,-5.7893,-5.7683,-5.8564,-5.6393,-5.5569,-5.7321,-5.5012,-5.3062,-5.2121,-5.1161,-4.9798,-4.7953,-4.6908,-4.5513,-4.3707,-4.1808,-3.9561,-3.7042,-3.6261,0.0,0.0,0.0,0.0,0.0,-3.7585,-3.8611,-4.043,-4.1341,-4.2742,-4.4332,-4.4394,-4.4989,-4.5597,-4.3149,-4.279,-4.339,-4.1724,-4.1117,-4.1101,-4.1074,-4.05,-3.9797,-3.9736,-3.8501,-3.707,-3.6871,-3.6218,-3.5311,-3.4232,-3.3325,-3.2046,-2.938,-2.8007,-2.686,-2.5043,-2.4411,-2.4173,-2.408,-2.3324,-2.2681,-2.2795,-2.1634,-2.0677,-2.0749,-2.0313,0.0,0.0,-2.0228,-2.072,-2.1596,-2.2293,-2.3272,-2.4734,-2.4117,-2.4707,-2.7287,-2.7555,-2.8061,-2.9089,-3.1398,-3.2653,-3.2507,-3.4736,-3.5977,-3.5956,-3.676,-3.7216,-3.7241,-3.6368,-3.5932,-3.5854,-3.4955,-3.4532,-3.4495,-3.4427,-3.4386,-3.4404,-3.4245,-3.4216,-3.421,-3.3991,-3.386,-3.3798,-3.3661,-3.4018,-3.4576,-5.7851,0.0,-5.8214,-5.7944,-5.8702,-5.9186,-5.8751,-5.9155,-5.954,-5.9603,-5.9336,-5.9471,-6.0386,-5.8702,-5.7732,-5.835,-5.7014,-5.5501,-5.401,-5.3058,-5.1736,-4.9855,-4.8855,-4.7486,-4.5636,-4.425,-4.2304,-3.9735,-3.8931,-3.8033,0.0,0.0,0.0,0.0,-3.7661,-3.872,-4.0531,-4.1474,-4.2584,-4.3769,-4.4324,-4.5157,-4.592,-4.4489,-4.3817,-4.346,-4.2358,-4.1585,-4.1093,-4.1093,-4.0906,-4.045,-3.9301,-3.8487,-3.7719,-3.6464,-3.5836,-3.5316,-3.4318,-3.38,-3.2855,-3.0228,-2.8847,-2.7695,-2.5941,-2.5383,-2.4946,-2.3795,-2.3744,-2.3615,-2.2669,-2.2106,-2.1623,-2.1197,-2.1013,-2.0938,0.0,-2.203,-2.3013,-2.3674,-2.3986,-2.4517,-2.5401,-2.5637,-2.616,-2.726,-2.8403,-2.932,-2.996,-3.2353,-3.3819,-3.4143,-3.487,-3.545,-3.5848,-3.5622,-3.549,-3.5512,-3.5146,-3.4974,-3.4955,-3.4539,-3.4381,-3.4363,-3.4293,-3.4293,-3.4316,-3.4245,-3.4221,-3.4245,-3.4049,-3.3947,-3.3895,-3.3671,-3.3673,-3.3924,-5.8375,-5.9379,-5.99,-5.8991,-5.965,-6.015,-5.9697,-6.0315,-6.0774,-6.0565,-6.0239,-6.0375,-6.1289,-5.9823,-5.8794,-5.883,-5.8012,-5.6747,-5.4948,-5.4281,-5.3288,-5.1756,-5.0797,-4.9433,-4.7567,-4.6167,-4.4068,-4.1209,-4.0374,-3.9315,0.0,0.0,0.0,0.0,-3.8225,-3.9279,-4.108,-4.2,-4.3111,-4.4311,-4.4863,-4.5512,-4.6088,-4.5565,-4.4643,-4.3528,-4.2708,-4.1831,-4.1093,-4.1108,-4.1091,-4.0842,-3.9388,-3.8688,-3.811,-3.661,-3.5855,-3.5335,-3.4364,-3.3795,-3.2912,-3.0586,-2.9298,-2.8142,-2.6419,-2.593,-2.5531,-2.4463,-2.4393,-2.4318,-2.3667,-2.3107,-2.2628,-2.2246,-2.2032,-2.1903,0.0,-2.3324,-2.4399,-2.4601,-2.494,-2.5536,-2.6467,-2.6616,-2.7045,-2.8022,-2.9117,-3.006,-3.0809,-3.2922,-3.4374,-3.5016,-3.5192,-3.5449,-3.5825,-3.5274,-3.4989,-3.5015,-3.4626,-3.4641,-3.4944,-3.4512,-3.4316,-3.4316,-3.4245,-3.4245,-3.4293,-3.4221,-3.4221,-3.4245,-3.4099,-3.4049,-3.3998,-3.3698,-3.3538,-3.3599,-5.8684,-5.9901,-6.0867,-6.0017,-6.0614,-6.1208,-6.1297,-6.2028,-6.2292,-6.1477,-6.0701,-6.0556,-6.1381,-5.9954,-5.8919,-5.8888,-5.8078,-5.6839,-5.5089,-5.487,-5.4417,-5.3553,-5.2619,-5.1276,-4.9508,-4.7567,-4.4954,-4.1647,-4.0691,-3.9891,0.0,0.0,0.0,0.0,-3.9192,-4.0203,-4.1944,-4.284,-4.4277,-4.5944,-4.5997,-4.6084,-4.6203,-4.6162,-4.5109,-4.3587,-4.2763,-4.1874,-4.109,-4.1097,-4.107,-4.0875,-3.9948,-3.9042,-3.816,-3.721,-3.6314,-3.5384,-3.4378,-3.3422,-3.229,-3.0494,-2.932,-2.8183,-2.6597,-2.6129,-2.6012,-2.5991,-2.5316,-2.4963,-2.5679,-2.4639,-2.3717,-2.3803,-2.3314,-2.2931,-2.2911,-2.412,-2.4877,-2.4554,-2.5297,-2.6358,-2.7733,-2.7043,-2.7438,-2.9568,-2.9698,-3.0316,-3.1751,-3.313,-3.4282,-3.5127,-3.5586,-3.5851,-3.5888,-3.5731,-3.5689,-3.5724,-3.4805,-3.4857,-3.5693,-3.4755,-3.434,-3.4386,-3.4245,-3.4245,-3.4293,-3.4221,-3.4197,-3.4197,-3.4124,-3.4099,-3.4049,-3.3726,-3.352,-3.3628,-5.869,-6.0063,-6.1186,-6.0937,-6.1055,-6.1208,-6.1291,-6.2008,-6.2474,-6.2361,-6.2172,-6.2127,-6.2354,-6.1434,-6.0281,-5.9021,-5.8674,-5.78,-5.6051,-5.5267,-5.4488,-5.3611,-5.2713,-5.1683,-5.048,-4.8624,-4.6897,-4.5263,-4.3197,-4.1762,-4.0919,0.0,0.0,0.0,-3.9047,-3.965,-4.0242,-4.1757,-4.3461,-4.5181,-4.5877,-4.6169,-4.6125,-4.5538,-4.4644,-4.3661,-4.3455,-4.2382,-4.1101,-4.1094,-4.0676,-3.9986,-3.9091,-3.814,-3.7181,-3.623,-3.5755,-3.5323,-3.4356,-3.3412,-3.2424,-3.1264,-2.9851,-2.8643,-2.8211,-2.8004,-2.7751,-2.7207,-2.687,-2.6597,-2.6294,-2.5488,-2.472,-2.4249,-2.4528,-2.4728,-2.4463,-2.5685,-2.6862,-2.7478,-2.7531,-2.7441,-2.732,-2.8021,-2.8956,-3.0132,-3.0631,-3.1614,-3.331,-3.3669,-3.4482,-3.5875,-3.5379,-3.5305,-3.5745,-3.5063,-3.4722,-3.468,-3.4498,-3.4493,-3.4675,-3.4428,-3.4269,-3.4245,-3.4221,-3.4245,-3.4293,-3.4221,-3.4221,-3.4269,-3.4148,-3.4049,-3.3921,-3.3807,-3.3698,-3.3733,-5.9351,-6.0395,-6.1326,-6.131,-6.1621,-6.1853,-6.1915,-6.2292,-6.2618,-6.2677,-6.2374,-6.2134,-6.2167,-6.1764,-6.0803,-5.9093,-5.8924,-5.8161,-5.6414,-5.5831,-5.5145,-5.4258,-5.3377,-5.2443,-5.1463,-4.9669,-4.8102,-4.6762,-4.4573,-4.2904,-4.1694,0.0,0.0,0.0,-3.9727,-4.0275,-4.0878,-4.244,-4.3782,-4.492,-4.5838,-4.6216,0.0,-4.532,-4.4457,-4.3667,-4.3437,-4.2379,-4.1101,-4.1104,-4.0511,-3.9641,-3.8728,-3.7802,-3.686,-3.5921,-3.5604,-3.5412,-3.4872,-3.4012,-3.3047,-3.2111,-3.0868,-2.9715,-2.8962,-2.8726,-2.8578,-2.815,-2.7775,-2.7407,-2.6993,-2.6082,-2.5263,-2.4916,-2.5811,-2.6436,-2.6106,-2.6927,-2.7661,-2.7949,-2.8273,-2.8273,-2.7819,-2.8841,-2.9712,-3.0057,-3.1212,-3.243,-3.3581,-3.4052,-3.485,-3.6081,-3.5164,-3.4993,-3.5651,-3.4745,-3.4503,-3.4852,-3.4503,-3.4498,-3.4852,-3.446,-3.4269,-3.4197,-3.4269,-3.4293,-3.4293,-3.4293,-3.4316,-3.434,-3.4221,-3.4148,-3.4074,-3.3972,-3.3842,-3.3835,-6.0187,-6.0764,-6.1381,-6.1318,-6.2085,-6.2696,-6.271,-6.2793,-6.2885,-6.2873,-6.2128,-6.1615,-6.1659,-6.1573,-6.0884,-5.9299,-5.9006,-5.8215,-5.6597,-5.6434,-5.5936,-5.4886,-5.4109,-5.3229,-5.2161,-5.0487,-4.881,-4.7182,-4.5365,-4.3673,0.0,0.0,0.0,0.0,-4.0642,-4.1284,-4.228,-4.3462,-4.4253,-4.4819,-4.5793,-4.6234,-4.6171,-4.5194,-4.4325,-4.351,-4.2889,-4.1986,-4.1103,-4.1109,-4.0599,-3.9778,-3.8721,-3.7802,-3.6908,-3.5989,-3.5648,-3.555,-3.5393,-3.4697,-3.38,-3.2848,-3.1949,-3.0931,-2.9452,-2.9053,-2.8958,-2.8992,-2.8401,-2.7872,-2.7826,-2.6649,-2.5732,-2.5896,-2.7013,-2.7826,-2.7709,-2.8032,-2.8157,-2.7749,-2.8592,0.0,-2.8923,-2.963,-3.0061,-2.9989,-3.1565,-3.2784,-3.3318,-3.4144,-3.4999,-3.5784,-3.5049,-3.4927,-3.5578,-3.476,-3.4779,-3.5553,-3.4654,-3.4654,-3.5392,-3.4647,-3.4269,-3.4221,-3.434,-3.4381,-3.4316,-3.4381,-3.4386,-3.4404,-3.434,-3.4316,-3.4293,-3.4197,-3.4049,-3.3979,-6.0195,-6.0825,-6.1402,-6.1383,-6.2102,-6.2718,-6.2763,-6.3353,-6.38,-6.3845,-6.3091,-6.2558,-6.2569,-6.1987,-6.1177,-6.0172,-5.9406,-5.8559,-5.7517,-5.6787,-5.5686,-5.408,-5.3866,-5.3016,-5.1365,-5.0287,-4.9232,-4.8164,-4.6399,-4.4654,-4.296,-4.2149,0.0,0.0,0.0,-4.1014,-4.126,-4.1502,-4.2461,-4.3977,-4.5557,-4.6216,-4.6046,-4.4518,-4.3569,-4.2908,-4.1814,-4.1281,-4.1097,-4.1105,-4.0959,-4.0513,-3.8909,-3.7805,-3.6929,-3.5979,-3.5657,-3.5434,-3.4642,-3.4268,-3.3853,-3.2928,-3.2023,-3.1302,-3.094,-3.035,-2.9884,-2.9947,-2.9379,-2.8874,-2.8974,-2.7714,-2.6866,-2.7484,-2.767,-2.8083,-2.9085,-2.9622,-3.0178,-3.0894,-3.0804,-3.0641,-3.0439,-3.0578,-3.0878,-3.1402,-3.166,-3.2437,-3.3939,-3.3529,-3.3705,-3.4727,-3.5133,-3.5367,-3.5442,-3.5254,-3.5266,-3.5421,-3.4649,-3.4344,-3.4444,-3.4391,-3.434,-3.4293,-3.4381,-3.4386,-3.4386,-3.4404,-3.4386,-3.4427,-3.4517,-3.4473,-3.4404,-3.4427,-3.4363,-3.4264,-6.0864,-6.1184,-6.1445,-6.144,-6.2172,-6.276,-6.2791,-6.3161,-6.3434,-6.3434,-6.2666,-6.2132,-6.2172,-6.1831,-6.1253,-6.041,-5.9545,-5.8679,-5.7806,-5.6951,-5.5658,-5.3877,-5.3799,-5.2962,-5.1189,-5.0717,-4.9814,-4.8438,-4.7157,-4.5394,-4.322,-4.2428,-4.1369,-4.0192,-4.0655,-4.1166,-4.176,-4.315,-4.3966,-4.4434,-4.5738,-4.6241,-4.6104,-4.4841,-4.3925,-4.3125,-4.1634,-4.1101,-4.1094,-4.1105,-4.0769,-4.0207,-3.9188,-3.8159,-3.71,-3.6057,-3.5687,-3.5554,-3.5046,-3.4866,-3.4601,-3.3667,-3.3121,-3.257,-3.1661,-3.1158,-3.0764,-3.0394,-3.0048,-2.9747,-2.9463,-2.8708,-2.8252,-2.8623,-2.8858,-2.9306,-3.0203,-3.0348,-3.0564,-3.1168,-3.1122,-3.0992,-3.0803,-3.106,-3.1289,-3.1479,-3.2023,-3.2762,-3.3732,-3.3617,-3.3944,-3.4835,-3.481,-3.4964,-3.5332,-3.4899,-3.4678,-3.4729,-3.4401,-3.4245,-3.4245,-3.4427,-3.445,-3.4363,-3.4539,-3.4561,-3.4517,-3.458,-3.4623,-3.4623,-3.4645,-3.4623,-3.4561,-3.4539,-3.4517,-3.4473,-6.152,-6.1529,-6.1519,-6.1518,-6.2229,-6.2756,-6.2562,-6.2757,-6.2883,-6.2834,-6.2055,-6.1539,-6.1586,-6.1603,-6.1295,-6.0471,-5.9593,-5.8728,-5.7856,-5.6815,-5.5592,-5.4156,-5.3738,-5.2912,-5.1541,-5.1258,-5.0281,-4.8549,-4.783,-4.6177,-4.3606,-4.2978,-4.2156,-4.1198,-4.1226,-4.1731,-4.274,-4.5234,-4.5904,-4.5347,-4.603,-4.6295,-4.6209,-4.5332,-4.4394,-4.3337,-4.1884,-4.1253,-4.1094,-4.1105,-4.0623,-3.997,-3.9526,-3.8692,-3.7638,-3.6415,-3.5892,-3.5684,-3.5628,-3.5554,-3.5347,-3.4595,-3.426,-3.3786,-3.2436,-3.1885,-3.1448,-3.0833,-3.0608,-3.0379,-2.9867,-2.9523,-2.9372,-2.9552,-2.9759,-3.0238,-3.1163,-3.093,-3.0814,-3.1265,-3.1324,-3.1357,-3.1377,-3.1543,-3.1649,-3.1703,-3.2449,-3.3057,-3.335,-3.3762,-3.4242,-3.486,-3.4515,-3.4589,-3.5237,-3.46,-3.4301,-3.4351,-3.4266,-3.4245,-3.4293,-3.4517,-3.4539,-3.4473,-3.4706,-3.4747,-3.4645,-3.4769,-3.481,-3.479,-3.479,-3.4769,-3.4749,-3.4689,-3.4687,-3.4647,-6.158,-6.1595,-6.1588,-6.1586,-6.2316,-6.2628,-6.1829,-6.2391,-6.2906,-6.2882,-6.2121,-6.1584,-6.1607,-6.1648,-6.1342,-6.0489,-5.9611,-5.8727,-5.7849,-5.6238,-5.525,-5.5074,-5.3559,-5.2641,-5.2469,-5.1685,-5.0432,-4.8691,-4.8545,-4.7153,-4.4665,-4.4579,-4.3821,-4.2516,-4.2595,-4.2942,-4.361,-4.5499,-4.6249,-4.6195,-4.6264,-4.6295,-4.6209,-4.5332,-4.416,-4.2908,-4.2451,-4.178,-4.1108,-4.1105,-4.1008,-4.0739,-3.9928,-3.9431,-3.8835,-3.7327,-3.6309,-3.5697,-3.5612,-3.5596,-3.5547,-3.5424,-3.4762,-3.4128,-3.3928,-3.2737,-3.168,-3.1669,-3.1142,-3.0669,-3.0683,-2.9977,-2.963,-3.0358,-2.966,-2.9751,-3.1877,-3.1773,-3.1955,-3.3177,-3.2809,-3.268,-3.3283,-3.2385,-3.2208,-3.3301,-3.2908,-3.2816,-3.3292,-3.3481,-3.3623,-3.3835,-3.4532,-3.4945,-3.5018,-3.5137,-3.518,-3.518,-3.4587,-3.4293,-3.4293,-3.4517,-3.4583,-3.4602,-3.4747,-3.4788,-3.4788,-3.485,-3.4851,-3.4812,-3.4983,-3.5039,-3.4983,-3.4964,-3.4927,-3.4851,-6.1595,-6.16,-6.1592,-6.16,-6.1892,-6.199,-6.1639,-6.19,-6.2122,-6.2168,-6.1841,-6.1607,-6.1667,-6.1225,-6.0787,-6.0422,-5.9114,-5.8178,-5.7816,-5.6659,-5.5522,-5.4476,-5.3748,-5.2903,-5.1902,-5.1491,-5.0463,-4.876,-4.8688,-4.7358,-4.4859,-4.4857,-4.4114,-4.2779,-4.3506,-4.3938,-4.4235,-4.5687,-4.6309,-4.6245,-4.5735,-4.5525,-4.5429,-4.4549,-4.355,-4.2589,-4.2444,-4.1833,-4.1104,-4.1105,-4.1086,-4.0992,-4.0643,-3.9979,-3.912,-3.813,-3.6813,-3.5679,-3.5665,-3.5631,-3.5596,-3.5566,-3.5303,-3.4776,-3.3747,-3.3001,-3.228,-3.1327,-3.0934,-3.0762,-3.0799,-3.0427,-3.0218,-3.0481,-3.0451,-3.0856,-3.2179,-3.2439,-3.2831,-3.3729,-3.3641,-3.3568,-3.3821,-3.3089,-3.3101,-3.4359,-3.3263,-3.2787,-3.3322,-3.3393,-3.3709,-3.4355,-3.4265,-3.4467,-3.499,-3.4623,-3.4515,-3.4643,-3.4413,-3.434,-3.4427,-3.4623,-3.4769,-3.4831,-3.485,-3.4908,-3.4982,-3.5,-3.5018,-3.5054,-3.5126,-3.5126,-3.5053,-3.5126,-3.5073,-3.502,-6.164,-6.1634,-6.1628,-6.1628,-6.1628,-6.1628,-6.1628,-6.1628,-6.1654,-6.1685,-6.166,-6.164,-6.1685,-6.0924,-6.0305,-6.0041,-5.8656,-5.7695,-5.745,-5.6397,-5.5338,-5.4357,-5.359,-5.2726,-5.179,-5.1486,-5.0615,-4.9172,-4.8872,-4.7669,-4.5663,-4.5409,-4.4741,-4.3836,-4.4665,-4.5035,-4.5093,-4.5938,-4.6145,-4.5858,-4.5253,-4.4844,-4.4548,-4.3939,-4.3154,-4.2407,-4.2396,-4.1843,-4.1097,-4.1096,-4.0925,-4.0713,-4.0682,-4.0045,-3.9147,-3.8361,-3.6996,-3.5728,-3.5716,-3.5665,-3.5623,-3.5596,-3.5596,-3.5292,-3.4107,-3.3664,-3.3128,-3.1767,-3.1125,-3.0953,-3.1477,-3.1051,-3.0678,-3.0858,-3.1193,-3.1665,-3.2327,-3.288,-3.3411,-3.4006,-3.3949,-3.4038,-3.4393,-3.3688,-3.3738,-3.4925,-3.3721,-3.3125,-3.3647,-3.3508,-3.3706,-3.4397,-3.3935,-3.3973,-3.4596,-3.4163,-3.3998,-3.4173,-3.4269,-3.4386,-3.4539,-3.4749,-3.4888,-3.502,-3.4982,-3.5018,-3.5122,-3.5157,-3.5193,-3.5226,-3.5242,-3.5207,-3.5207,-3.5223,-3.5209,-3.5143,-6.1697,-6.1709,-6.1701,-6.1701,-6.1701,-6.1701,-6.1701,-6.1701,-6.1701,-6.1701,-6.169,-6.1694,-6.1701,-6.092,-6.0041,-5.9183,-5.8304,-5.7465,-5.6665,-5.4986,-5.442,-5.524,-5.2811,-5.1826,-5.2665,-5.1829,-5.0965,-5.0087,-4.9229,-4.834,-4.745,-4.6593,-4.6176,-4.6167,-4.624,-4.6273,-4.628,-4.629,-4.5795,-4.5019,-4.5,-4.4472,-4.3704,-4.37,-4.3169,-4.2405,-4.2389,-4.1846,-4.1091,-4.11,-4.0538,-3.9799,-3.9738,-3.9524,-3.9069,-3.7858,-3.6696,-3.5775,-3.5718,-3.5707,-3.5678,-3.5623,-3.5604,-3.5588,-3.5568,-3.5011,-3.4272,-3.3512,-3.1997,-3.1328,-3.3051,-3.1919,-3.0943,-3.1669,-3.1619,-3.1738,-3.239,-3.3015,-3.3583,-3.4134,-3.3725,-3.3936,-3.5259,-3.4285,-3.4005,-3.4995,-3.4355,-3.4008,-3.4271,-3.3719,-3.3441,-3.3509,-3.3577,-3.3633,-3.3716,-3.3895,-3.4023,-3.4099,-3.4293,-3.4473,-3.4623,-3.4811,-3.4964,-3.5092,-3.5107,-3.5141,-3.5209,-3.5277,-3.5312,-3.5293,-3.5285,-3.533,-3.5398,-3.5315,-3.53,-3.53,-6.1707,-6.1704,-6.1701,-6.1701,-6.1701,-6.1701,-6.1701,-6.1701,-6.1701,-6.1701,-6.1177,-6.0806,-6.0803,-6.0041,-5.9185,-5.8342,-5.7483,-5.6878,-5.6624,-5.5511,-5.473,-5.444,-5.3051,-5.213,-5.1818,-5.1542,-5.0975,-5.0097,-4.9231,-4.8076,-4.6687,-4.6394,-4.6261,-4.627,-4.6293,-4.6297,-4.6301,-4.6306,-4.5801,-4.494,-4.4353,-4.359,-4.2747,-4.2156,-4.176,-4.1501,-4.1518,-4.1347,-4.1013,-4.0408,-4.0028,-3.9583,-3.839,-3.7948,-3.7824,-3.7638,-3.6695,-3.5737,-3.5718,-3.5698,-3.5688,-3.5667,-3.5658,-3.5514,-3.4971,-3.4275,-3.3687,-3.3448,-3.2965,-3.2731,-3.3243,-3.2386,-3.1817,-3.2503,-3.2485,-3.2642,-3.335,-3.398,-3.4406,-3.4542,-3.4555,-3.4906,-3.5854,-3.5317,-3.5236,-3.6041,-3.4894,-3.4051,-3.3762,-3.3478,-3.3422,-3.3633,-3.3587,-3.3671,-3.3815,-3.3947,-3.4099,-3.4293,-3.4427,-3.4604,-3.4811,-3.4908,-3.5056,-3.516,-3.5176,-3.5223,-3.5335,-3.5417,-3.5446,-3.5435,-3.5495,-3.5489,-3.5476,-3.5509,-3.5476,-3.543,-6.1694,-6.1694,-6.1694,-6.169,-6.1709,-6.1709,-6.1709,-6.1709,-6.1573,-6.126,-6.0735,-6.0169,-5.9524,-5.8979,-5.8452,-5.794,-5.7101,-5.6593,-5.6593,-5.548,-5.4562,-5.4015,-5.2843,-5.1965,-5.1418,-5.1398,-5.1125,-5.0598,-4.9402,-4.7974,-4.6297,-4.63,-4.6301,-4.6305,-4.6306,-4.6307,-4.6308,-4.6308,-4.5799,-4.4956,-4.4403,-4.3676,-4.2834,-4.2279,-4.1862,-4.1585,-4.1581,-4.1374,-4.1028,-4.0476,-3.9847,-3.9115,-3.8027,-3.7228,-3.6735,-3.688,-3.6354,-3.5727,-3.5747,-3.5747,-3.5737,-3.5737,-3.5747,-3.56,-3.5135,-3.4419,-3.3945,-3.4295,-3.3866,-3.3586,-3.4172,-3.329,-3.2687,-3.3372,-3.3121,-3.3077,-3.377,-3.4168,-3.4431,-3.4567,-3.4734,-3.5061,-3.5593,-3.543,-3.5431,-3.581,-3.4988,-3.422,-3.3613,-3.3422,-3.3452,-3.3698,-3.3615,-3.3698,-3.3947,-3.4023,-3.4197,-3.445,-3.4564,-3.4752,-3.4983,-3.5037,-3.5124,-3.5239,-3.5273,-3.5335,-3.5416,-3.5122,-3.5027,-3.5027,-3.4743,-3.4588,-3.4576,-3.4631,-3.4631,-3.4588,-6.1699,-6.1699,-6.1699,-6.1694,-6.1692,-6.1672,-6.1614,-6.1612,-6.1299,-6.042,-6.027,-5.9626,-5.8064,-5.7851,-5.7812,-5.7806,-5.7064,-5.6595,-5.6593,-5.4974,-5.3997,-5.3997,-5.2338,-5.14,-5.14,-5.14,-5.1361,-5.1302,-4.9682,-4.8041,-4.6381,-4.6326,-4.6307,-4.6307,-4.6308,-4.6308,-4.6286,-4.6286,-4.5794,-4.5001,-4.4992,-4.4477,-4.3708,-4.3695,-4.3183,-4.2481,-4.2407,-4.1875,-4.1167,-4.1033,-3.9916,-3.8572,-3.852,-3.7371,-3.6047,-3.5846,-3.5799,-3.581,-3.5784,-3.5794,-3.5794,-3.5794,-3.5803,-3.5821,-3.5891,-3.5262,-3.4949,-3.5812,-3.4706,-3.4053,-3.56,-3.4465,-3.3507,-3.4204,-3.3557,-3.3173,-3.3753,-3.3802,-3.3942,-3.4383,-3.4427,-3.4494,-3.4731,-3.4897,-3.4887,-3.4546,-3.4702,-3.4491,-3.3753,-3.352,-3.352,-3.3698,-3.3661,-3.3753,-3.3998,-3.4148,-3.4279,-3.4423,-3.4696,-3.485,-3.4939,-3.5005,-3.5105,-3.522,-3.5225,-3.5301,-3.5361,-3.4481,-3.4147,-3.4145,-3.333,-3.3012,-3.3012,-3.3082,-3.3112,-3.3112,-6.1694,-6.1694,-6.1695,-6.1698,-6.1699,-6.1484,-6.08,-6.0703,-6.041,-5.959,-5.8906,-5.834,-5.7949,-5.7304,-5.6913,-5.6914,-5.6718,-5.6601,-5.6601,-5.4961,-5.4004,-5.4003,-5.2324,-5.1406,-5.1406,-5.1405,-5.1072,-5.0408,-4.9393,-4.8356,-4.7282,-4.6618,-4.6306,-4.6306,-4.6301,-4.628,-4.6219,-4.6228,-4.575,-4.5,-4.4933,-4.4436,-4.3695,-4.369,-4.3548,-4.3226,-4.2557,-4.2188,-4.1818,-4.0487,-3.976,-3.9291,-3.8634,-3.8144,-3.7536,-3.6204,-3.5799,-3.5784,-3.5737,-3.5718,-3.5708,-3.5708,-3.5766,-3.5818,-3.5872,-3.5741,-3.5665,-3.5938,-3.5663,-3.5481,-3.5849,-3.4951,-3.4232,-3.436,-3.4058,-3.3853,-3.3926,-3.4387,-3.4718,-3.4773,-3.4586,-3.4722,-3.533,-3.5243,-3.5101,-3.4906,-3.4934,-3.4614,-3.3817,-3.378,-3.378,-3.378,-3.3753,-3.386,-3.4074,-3.4221,-3.4113,-3.3807,-3.3978,-3.3777,-3.3268,-3.3333,-3.3767,-3.4422,-3.3776,-3.391,-3.4518,-3.3697,-3.3371,-3.3362,-3.3151,-3.3113,-3.316,-3.3169,-3.3178,-3.3175,-6.1104,-6.1433,-6.1707,-6.1694,-6.1694,-6.1538,-6.1069,-6.0662,-6.0095,-5.9254,-5.8416,-5.7752,-5.7341,-5.6871,-5.6597,-5.6597,-5.6597,-5.6598,-5.6599,-5.5348,-5.4411,-5.4021,-5.2712,-5.1812,-5.1402,-5.14,-5.0969,-5.0109,-4.966,-4.8801,-4.7608,-4.7489,-4.7037,-4.6312,-4.6674,-4.6612,-4.6195,-4.6206,-4.5943,-4.5553,-4.5518,-4.522,-4.483,-4.4844,-4.4578,-4.4072,-4.3215,-4.2636,-4.2081,-4.0738,-4.003,-3.9626,-3.9132,-3.8727,-3.8205,-3.7261,-3.6684,-3.627,-3.5853,-3.5747,-3.5747,-3.5737,-3.581,-3.5857,-3.5898,-3.5897,-3.5919,-3.5991,-3.5994,-3.5873,-3.5435,-3.521,-3.482,-3.3945,-3.3701,-3.3563,-3.3465,-3.3745,-3.4048,-3.4319,-3.4525,-3.4752,-3.5021,-3.4915,-3.474,-3.4557,-3.4557,-3.44,-3.3965,-3.3998,-3.3998,-3.3947,-3.3947,-3.4049,-3.4269,-3.4102,-3.3938,-3.373,-3.3454,-3.3112,-3.279,-3.2837,-3.314,-3.3621,-3.3157,-3.3257,-3.3697,-3.288,-3.2542,-3.2502,-3.215,-3.2039,-3.2054,-3.2069,-3.2084,-3.2104,-6.0568,-6.119,-6.1658,-6.1528,-6.1492,-6.1414,-6.114,-6.0498,-5.9717,-5.8839,-5.8136,-5.7413,-5.6671,-5.6593,-5.6591,-5.6591,-5.6591,-5.6591,-5.6593,-5.5653,-5.4777,-5.4035,-5.3039,-5.216,-5.1416,-5.1396,-5.1042,-5.0298,-5.0164,-4.9305,-4.7779,-4.834,-4.7868,-4.6573,-4.7084,-4.6899,-4.6206,-4.6201,-4.6201,-4.6195,-4.6203,-4.6196,-4.617,-4.604,-4.5538,-4.4764,-4.3751,-4.2938,-4.2163,-4.128,-4.0501,-3.9871,-3.9871,-3.9377,-3.8758,-3.8622,-3.8025,-3.7182,-3.6239,-3.589,-3.5784,-3.5801,-3.5842,-3.5891,-3.5898,-3.5897,-3.5914,-3.5997,-3.5991,-3.5779,-3.5023,-3.5388,-3.5251,-3.3586,-3.3244,-3.3108,-3.2851,-3.2847,-3.3083,-3.3652,-3.4245,-3.4543,-3.4289,-3.424,-3.4125,-3.3914,-3.4049,-3.4148,-3.4173,-3.4221,-3.4245,-3.4197,-3.4173,-3.4237,-3.4352,-3.3903,-3.3634,-3.3522,-3.2844,-3.2527,-3.2526,-3.2538,-3.2632,-3.2814,-3.2703,-3.2754,-3.2851,-3.2046,-3.1712,-3.1658,-3.0976,-3.0698,-3.073,-3.0728,-3.0745,-3.0799,-6.1283,-6.1562,-6.1476,-6.0729,-6.06,-6.0119,-5.8635,-5.8348,-5.7977,-5.7093,-5.6883,-5.6749,-5.6612,-5.6607,-5.6602,-5.6602,-5.6595,-5.6598,-5.6593,-5.5084,-5.4147,-5.4015,-5.2468,-5.1548,-5.1391,-5.1398,-5.1323,-5.1191,-5.0464,-4.9591,-4.8591,-4.7986,-4.7713,-4.7693,-4.6791,-4.6326,-4.6209,-4.619,-4.6196,-4.6201,-4.6201,-4.6166,-4.6033,-4.5367,-4.5025,-4.4686,-4.3074,-4.2416,-4.2155,-4.1226,-4.082,-4.0703,-4.0703,-4.0626,-4.0374,-3.9703,-3.9306,-3.8789,-3.7288,-3.6318,-3.5737,-3.5784,-3.581,-3.5834,-3.5891,-3.5897,-3.5914,-3.5997,-3.6005,-3.5957,-3.5812,-3.5792,-3.5468,-3.4454,-3.4124,-3.375,-3.2994,-3.3355,-3.3745,-3.3862,-3.3825,-3.3771,-3.3733,-3.3508,-3.3396,-3.3396,-3.3989,-3.4381,-3.4431,-3.4561,-3.4623,-3.4623,-3.4495,-3.4223,-3.3733,-3.3714,-3.3058,-3.1794,-3.1733,-3.136,-3.0794,-3.0844,-3.1283,-3.1961,-3.1327,-3.1449,-3.2023,-3.1227,-3.0898,-3.0859,-3.0749,-3.0734,-3.0774,-3.0782,-3.0798,-3.0807,-5.9469,-5.9963,-6.0165,-5.9767,-5.9695,-5.9427,-5.8627,-5.8124,-5.7699,-5.7309,-5.6844,-5.6556,-5.6598,-5.6595,-5.6591,-5.6547,-5.6558,-5.6558,-5.6543,-5.5829,-5.4974,-5.4044,-5.3233,-5.2366,-5.1425,-5.1391,-5.14,-5.1394,-5.099,-5.0118,-4.8806,-4.8869,-4.822,-4.7025,-4.693,-4.6645,-4.6196,-4.6208,-4.6193,-4.6205,-4.6158,-4.6149,-4.6111,-4.5702,-4.5246,-4.4673,-4.3391,-4.2644,-4.211,-4.1208,-4.0907,-4.0907,-4.0908,-4.0898,-4.0829,-4.0422,-3.9296,-3.8045,-3.725,-3.6406,-3.5756,-3.5791,-3.5834,-3.5857,-3.5892,-3.5933,-3.5962,-3.599,-3.6001,-3.5859,-3.5388,-3.5611,-3.5254,-3.3446,-3.3431,-3.3186,-3.1799,-3.2225,-3.2651,-3.2607,-3.2885,-3.3031,-3.2958,-3.2806,-3.2895,-3.3325,-3.3679,-3.3867,-3.3907,-3.403,-3.3883,-3.3411,-3.3844,-3.3941,-3.3658,-3.2887,-3.2176,-3.1492,-3.1142,-3.0791,-3.0509,-3.055,-3.0789,-3.12,-3.0858,-3.0918,-3.1229,-3.0898,-3.0753,-3.0753,-3.075,-3.0763,-3.0794,-3.0807,-3.0799,-3.0808,-5.8031,-5.8623,-5.9014,-5.8838,-5.8806,-5.8728,-5.8533,-5.7928,-5.7506,-5.7504,-5.6913,-5.6528,-5.6563,-5.6577,-5.6553,-5.6503,-5.6503,-5.6497,-5.6504,-5.6352,-5.5582,-5.404,-5.3601,-5.2752,-5.1408,-5.1388,-5.1382,-5.1375,-5.1187,-5.0296,-4.8788,-4.9262,-4.832,-4.6235,-4.6898,-4.6819,-4.6177,-4.6177,-4.6177,-4.6149,-4.5899,-4.5782,-4.5713,-4.5335,-4.4831,-4.419,-4.3257,-4.249,-4.181,-4.1121,-4.0907,-4.0898,-4.0888,-4.0897,-4.0867,-4.0818,-3.9305,-3.757,-3.7123,-3.6396,-3.5812,-3.5807,-3.5857,-3.5905,-3.5898,-3.5958,-3.6005,-3.6005,-3.5999,-3.5799,-3.5137,-3.5493,-3.5236,-3.3229,-3.323,-3.3014,-3.1603,-3.1719,-3.1898,-3.1832,-3.2123,-3.2279,-3.2193,-3.2087,-3.2279,-3.2845,-3.309,-3.3184,-3.3184,-3.3299,-3.307,-3.2406,-3.3086,-3.3368,-3.3194,-3.2076,-3.1462,-3.1328,-3.0766,-3.054,-3.0597,-3.0629,-3.0649,-3.0704,-3.0724,-3.0722,-3.0739,-3.0779,-3.0808,-3.0793,-3.0804,-3.0796,-3.0799,-3.0808,-3.0796,-3.08,-5.8752,-5.8964,-5.8757,-5.8024,-5.7902,-5.7616,-5.6816,-5.6641,-5.6608,-5.6601,-5.6536,-5.6491,-5.6509,-5.6517,-5.6504,-5.6504,-5.6504,-5.6504,-5.6504,-5.5744,-5.4892,-5.3955,-5.2408,-5.1505,-5.1317,-5.1317,-5.1316,-5.1315,-5.0555,-4.9685,-4.869,-4.8009,-4.7151,-4.6196,-4.6279,-4.6236,-4.6122,-4.6122,-4.6104,-4.6047,-4.523,-4.4705,-4.4297,-4.2995,-4.2635,-4.2713,-4.1585,-4.1138,-4.1079,-4.0936,-4.0908,-4.0907,-4.0907,-4.0867,-4.0807,-4.0807,-4.0087,-3.8972,-3.7424,-3.6396,-3.5803,-3.5803,-3.5854,-3.5905,-3.5905,-3.5953,-3.6005,-3.6005,-3.5996,-3.5972,-3.5917,-3.5909,-3.5838,-3.563,-3.4932,-3.4348,-3.4138,-3.3399,-3.287,-3.2801,-3.2029,-3.1488,-3.1474,-3.1366,-3.1303,-3.1362,-3.2101,-3.2574,-3.2574,-3.2627,-3.2673,-3.2676,-3.2667,-3.234,-3.1671,-3.1615,-3.1244,-3.0565,-3.0539,-3.053,-3.0602,-3.0664,-3.0698,-3.0703,-3.0764,-3.0784,-3.0798,-3.0798,-3.0806,-3.0798,-3.0794,-3.0804,-3.0792,-3.0801,-3.0798,-3.079,-5.7379,-5.7446,-5.7357,-5.7045,-5.6995,-5.6878,-5.6547,-5.6508,-5.6496,-5.6491,-5.651,-5.6491,-5.6491,-5.6504,-5.6498,-5.6503,-5.6503,-5.6262,-5.5728,-5.5884,-5.5131,-5.3176,-5.1967,-5.133,-5.1292,-5.1292,-5.1276,-5.1249,-5.0927,-5.0352,-4.9487,-4.8639,-4.7782,-4.6917,-4.6383,-4.6113,-4.6095,-4.6095,-4.6105,-4.6076,-4.5687,-4.5492,-4.5308,-4.4229,-4.3763,-4.353,-4.2208,-4.1392,-4.0936,-4.0908,-4.0868,-4.0839,-4.0846,-4.0823,-4.0792,-4.08,-3.9789,-3.8539,-3.7912,-3.7161,-3.6425,-3.5926,-3.5857,-3.5905,-3.5898,-3.5958,-3.6005,-3.6005,-3.5996,-3.5992,-3.5995,-3.5974,-3.5784,-3.5246,-3.4818,-3.4179,-3.3068,-3.2531,-3.2046,-3.148,-3.1008,-3.072,-3.072,-3.0666,-3.0858,-3.1363,-3.1707,-3.1863,-3.1828,-3.1412,-3.1197,-3.1271,-3.1282,-3.1379,-3.1565,-3.1133,-3.0807,-3.055,-3.0604,-3.0634,-3.0664,-3.0736,-3.075,-3.0754,-3.0782,-3.0794,-3.0801,-3.0807,-3.0518,-3.0052,-3.0051,-3.0057,-3.0058,-3.0055,-3.0376,-3.0791,-5.6474,-5.6474,-5.6474,-5.6474,-5.6483,-5.6483,-5.6474,-5.6483,-5.6492,-5.6488,-5.6508,-5.6496,-5.6491,-5.651,-5.6503,-5.6508,-5.6508,-5.6238,-5.5617,-5.5628,-5.4857,-5.307,-5.19,-5.13,-5.1278,-5.1278,-5.1249,-5.1201,-5.0948,-5.0384,-4.9547,-4.8691,-4.7835,-4.6979,-4.6376,-4.6095,-4.6066,-4.6066,-4.6066,-4.6047,-4.5735,-4.558,-4.5444,-4.4656,-4.3889,-4.3151,-4.2451,-4.1636,-4.0888,-4.0898,-4.0868,-4.0839,-4.0804,-4.0607,-4.0382,-4.0397,-3.9352,-3.8133,-3.7893,-3.7422,-3.6804,-3.5976,-3.583,-3.5905,-3.5898,-3.5958,-3.6005,-3.6009,-3.5996,-3.5992,-3.5995,-3.5996,-3.5794,-3.5201,-3.5045,-3.4501,-3.3011,-3.2477,-3.1911,-3.1043,-3.0593,-3.0364,-3.0364,-3.0348,-3.0561,-3.1117,-3.1142,-3.1128,-3.109,-3.0637,-3.0383,-3.0471,-3.0511,-3.0782,-3.132,-3.082,-3.0586,-3.0623,-3.0676,-3.0717,-3.0736,-3.0774,-3.0802,-3.0807,-3.0804,-3.0813,-3.0823,-3.0806,-3.0478,-2.9975,-2.998,-2.9979,-2.9973,-2.9984,-3.0313,-3.0774,-5.6407,-5.6388,-5.6388,-5.6388,-5.6455,-5.6474,-5.6417,-5.6455,-5.6492,-5.6488,-5.65,-5.6492,-5.6488,-5.65,-5.6503,-5.6503,-5.6503,-5.6474,-5.6388,-5.4772,-5.3789,-5.3798,-5.2182,-5.1278,-5.1211,-5.1211,-5.1201,-5.1189,-5.0403,-4.9518,-4.8584,-4.7787,-4.6931,-4.6115,-4.6095,-4.6066,-4.5997,-4.5997,-4.5997,-4.5919,-4.5122,-4.4617,-4.4238,-4.3635,-4.2371,-4.1052,-4.1897,-4.1625,-4.0907,-4.0898,-4.0908,-4.0897,-4.0818,-4.0203,-3.9522,-3.9507,-3.8899,-3.8031,-3.7219,-3.6997,-3.6784,-3.5922,-3.5799,-3.5905,-3.5905,-3.5947,-3.6009,-3.5997,-3.5999,-3.5992,-3.5995,-3.5996,-3.5991,-3.5991,-3.5932,-3.5607,-3.4725,-3.3797,-3.2878,-3.1995,-3.1071,-3.0491,-3.0491,-3.0449,-3.0398,-3.0398,-3.0402,-3.0402,-3.0398,-3.0471,-3.0521,-3.0595,-3.0593,-3.0626,-3.069,-3.069,-3.069,-3.0697,-3.071,-3.0739,-3.0804,-3.0798,-3.0798,-3.0782,-3.0777,-3.0825,-3.0877,-3.0817,-3.0781,-3.0779,-3.0797,-3.079,-3.0771,-3.0771,-3.075,-3.0672,-5.6397,-5.6397,-5.6397,-5.6397,-5.6427,-5.6407,-5.6407,-5.6427,-5.6426,-5.6426,-5.6464,-5.6511,-5.6492,-5.6455,-5.6426,-5.6426,-5.6427,-5.6407,-5.6407,-5.4198,-5.3146,-5.3758,-5.2144,-5.123,-5.12,-5.12,-5.1208,-5.1194,-5.0351,-4.9787,-4.9485,-4.8019,-4.7203,-4.692,-4.6298,-4.6026,-4.5997,-4.5997,-4.5997,-4.5977,-4.5744,-4.5569,-4.5336,-4.3986,-4.3354,-4.3042,-4.1742,-4.1121,-4.0877,-4.0858,-4.0828,-4.0826,-4.08,-4.0622,-4.0416,-4.0416,-3.9797,-3.8926,-3.8067,-3.7431,-3.6804,-3.5976,-3.583,-3.5905,-3.5898,-3.5908,-3.5938,-3.5986,-3.5994,-3.6007,-3.5992,-3.5996,-3.5995,-3.5994,-3.5989,-3.5664,-3.4788,-3.3853,-3.2953,-3.2064,-3.1142,-3.0567,-3.0577,-3.0501,-3.0462,-3.0462,-3.0472,-3.0482,-3.053,-3.0558,-3.0602,-3.0668,-3.0678,-3.0704,-3.0778,-3.0716,-3.071,-3.071,-3.076,-3.0786,-3.0781,-3.0228,-2.9964,-2.9915,-2.9308,-2.9408,-2.9999,-2.9961,-2.9569,-2.9036,-2.9647,-2.9143,-2.8147,-2.8744,-2.8921,-2.8877,-5.6372,-5.6353,-5.6353,-5.6364,-5.6386,-5.6386,-5.6356,-5.6377,-5.6398,-5.6398,-5.6446,-5.6456,-5.6456,-5.6427,-5.6398,-5.6398,-5.6064,-5.5858,-5.585,-5.3716,-5.2694,-5.3207,-5.1928,-5.1208,-5.1197,-5.1197,-5.1206,-5.1202,-5.0328,-4.9707,-4.9357,-4.7958,-4.7123,-4.6754,-4.623,-4.5997,-4.5997,-4.5997,-4.5997,-4.5997,-4.5997,-4.5802,-4.5414,-4.4374,-4.3742,-4.3227,-4.1867,-4.1158,-4.0848,-4.0818,-4.0796,-4.0804,-4.0808,-4.0563,-4.0293,-4.03,-3.9449,-3.8396,-3.7862,-3.7121,-3.6377,-3.5912,-3.5845,-3.5905,-3.5892,-3.5908,-3.5914,-3.5942,-3.5988,-3.6003,-3.5992,-3.5995,-3.5996,-3.5995,-3.5993,-3.5695,-3.4822,-3.3903,-3.301,-3.211,-3.1195,-3.0645,-3.0649,-3.0585,-3.0548,-3.0585,-3.0574,-3.061,-3.0645,-3.0649,-3.0671,-3.0743,-3.0734,-3.076,-3.0798,-3.0763,-3.0739,-3.0745,-3.0785,-3.0623,-3.0313,-2.9817,-2.9411,-2.9059,-2.8533,-2.8593,-2.9082,-2.9097,-2.8737,-2.8254,-2.8778,-2.832,-2.7434,-2.797,-2.8106,-2.8008,-5.6265,-5.6291,-5.6304,-5.629,-5.6345,-5.6375,-5.6302,-5.6345,-5.6386,-5.6386,-5.6406,-5.6406,-5.6406,-5.6386,-5.6386,-5.6386,-5.5532,-5.4964,-5.4891,-5.3327,-5.2408,-5.2407,-5.163,-5.1202,-5.1202,-5.1202,-5.1202,-5.1202,-5.0328,-4.9454,-4.858,-4.7706,-4.6832,-4.5997,-4.5997,-4.5997,-4.5997,-4.5997,-4.5997,-4.5997,-4.5997,-4.5511,-4.4773,-4.4644,-4.3585,-4.2158,-4.2039,-4.1466,-4.0807,-4.0807,-4.0804,-4.08,-4.08,-4.0258,-3.9588,-3.9507,-3.8415,-3.7188,-3.7044,-3.6425,-3.5805,-3.5795,-3.5845,-3.5878,-3.5905,-3.5897,-3.589,-3.5903,-3.5962,-3.5999,-3.5993,-3.5996,-3.5996,-3.5995,-3.5993,-3.5696,-3.4827,-3.3955,-3.3052,-3.2118,-3.1236,-3.071,-3.0688,-3.0645,-3.0626,-3.0707,-3.071,-3.0704,-3.0717,-3.0716,-3.0734,-3.0789,-3.0793,-3.079,-3.0804,-3.081,-3.0792,-3.0796,-3.0813,-3.0425,-2.97,-2.955,-2.9043,-2.8281,-2.8144,-2.8102,-2.8172,-2.8181,-2.8142,-2.8095,-2.8165,-2.8067,-2.7886,-2.7961,-2.784,-2.7672,-5.6228,-5.6204,-5.6213,-5.6226,-5.6272,-5.6317,-5.6304,-5.6309,-5.6314,-5.6314,-5.6375,-5.6406,-5.6406,-5.6341,-5.6317,-5.6317,-5.5456,-5.4652,-5.4032,-5.299,-5.2408,-5.2407,-5.1586,-5.1159,-5.1202,-5.1202,-5.1171,-5.1127,-5.0297,-4.9454,-4.858,-4.7706,-4.6832,-4.5997,-4.5994,-4.6003,-4.6003,-4.6003,-4.6003,-4.6003,-4.6003,-4.5509,-4.4715,-4.3965,-4.3031,-4.202,-4.133,-4.097,-4.0812,-4.0812,-4.08,-4.08,-4.08,-4.0672,-4.0377,-3.9704,-3.9228,-3.8667,-3.7362,-3.686,-3.6571,-3.5946,-3.5823,-3.5845,-3.5891,-3.5897,-3.5908,-3.5977,-3.5981,-3.5996,-3.5991,-3.5995,-3.5996,-3.5996,-3.5995,-3.57,-3.4817,-3.3949,-3.3074,-3.2186,-3.1305,-3.0753,-3.071,-3.0685,-3.0685,-3.0704,-3.071,-3.0716,-3.0773,-3.0784,-3.0784,-3.0806,-3.0801,-3.0799,-3.0795,-3.0798,-3.0797,-3.0793,-3.0859,-3.0761,-3.0507,-2.9178,-2.8472,-2.8213,-2.6867,-2.6648,-2.7276,-2.7238,-2.7191,-2.7234,-2.7887,-2.729,-2.6149,-2.6771,-2.6525,-2.5947,-5.6149,-5.6145,-5.6175,-5.619,-5.6223,-5.6238,-5.6238,-5.6259,-5.6253,-5.6259,-5.6285,-5.6297,-5.6304,-5.5896,-5.5475,-5.5048,-5.4178,-5.3485,-5.3067,-5.2219,-5.1754,-5.1774,-5.1328,-5.1114,-5.1153,-5.119,-5.1171,-5.1095,-5.0297,-4.9454,-4.8577,-4.7714,-4.6821,-4.5994,-4.6003,-4.5991,-4.5949,-4.5949,-4.5949,-4.5949,-4.5949,-4.5223,-4.407,-4.3594,-4.2602,-4.1408,-4.097,-4.08,-4.0796,-4.0788,-4.0808,-4.0796,-4.0796,-4.0803,-4.0629,-3.9762,-3.9201,-3.8589,-3.7345,-3.6726,-3.6328,-3.5899,-3.5788,-3.5818,-3.5879,-3.5891,-3.5908,-3.5953,-3.5978,-3.5996,-3.6007,-3.5994,-3.5996,-3.5996,-3.5996,-3.5702,-3.482,-3.3955,-3.3085,-3.2198,-3.1319,-3.0769,-3.0703,-3.0703,-3.0709,-3.0739,-3.0759,-3.0764,-3.0793,-3.0798,-3.081,-3.0804,-3.0801,-3.0793,-3.0799,-3.08,-3.0604,-3.0234,-3.0269,-3.0032,-2.956,-2.8247,-2.7422,-2.701,-2.6066,-2.5902,-2.6337,-2.629,-2.6257,-2.6262,-2.6694,-2.6273,-2.5498,-2.5899,-2.5657,-2.5203,-5.6082,-5.6098,-5.6133,-5.6164,-5.6199,-5.6199,-5.6199,-5.6209,-5.6204,-5.6199,-5.6209,-5.6132,-5.5986,-5.521,-5.4319,-5.3432,-5.2705,-5.2221,-5.2094,-5.1388,-5.102,-5.1101,-5.1089,-5.1102,-5.1114,-5.1146,-5.1159,-5.1095,-5.0297,-4.9443,-4.8572,-4.7703,-4.6829,-4.5991,-4.598,-4.5949,-4.5905,-4.5905,-4.5905,-4.5886,-4.575,-4.4761,-4.3385,-4.323,-4.2191,-4.0796,-4.0812,-4.0796,-4.0803,-4.0808,-4.0796,-4.079,-4.0803,-4.0803,-4.0629,-3.9774,-3.8903,-3.8042,-3.723,-3.6425,-3.5803,-3.581,-3.5788,-3.5811,-3.5878,-3.5905,-3.5894,-3.5909,-3.5955,-3.5994,-3.6003,-3.5991,-3.5995,-3.5995,-3.5996,-3.5703,-3.4821,-3.3958,-3.3073,-3.2189,-3.1328,-3.0774,-3.0714,-3.0714,-3.0745,-3.0804,-3.0799,-3.0793,-3.0801,-3.0801,-3.0807,-3.0821,-3.0816,-3.082,-3.082,-3.0813,-3.0389,-2.9589,-2.943,-2.8981,-2.8259,-2.7326,-2.6539,-2.5885,-2.5687,-2.5593,-2.558,-2.5585,-2.5544,-2.5466,-2.5445,-2.5397,-2.5341,-2.5261,-2.5099,-2.4947,-5.6012,-5.6065,-5.6098,-5.6098,-5.6149,-5.6199,-5.6199,-5.6199,-5.6199,-5.6199,-5.6199,-5.5908,-5.5152,-5.4289,-5.3406,-5.2465,-5.2276,-5.1924,-5.1233,-5.1063,-5.102,-5.1101,-5.1101,-5.1095,-5.1114,-5.1114,-5.1108,-5.1095,-5.0297,-4.9454,-4.8569,-4.7711,-4.6826,-4.5991,-4.5944,-4.5906,-4.5906,-4.5906,-4.5906,-4.5829,-4.5092,-4.4214,-4.3327,-4.2555,-4.1652,-4.08,-4.08,-4.0796,-4.0803,-4.0808,-4.0796,-4.0803,-4.0808,-4.0788,-4.0645,-3.9827,-3.8965,-3.8112,-3.7308,-3.6463,-3.5803,-3.581,-3.5788,-3.5811,-3.5878,-3.5905,-3.5914,-3.5977,-3.6001,-3.5994,-3.6003,-3.6009,-3.5993,-3.5995,-3.5995,-3.5703,-3.4823,-3.3943,-3.3081,-3.2207,-3.1324,-3.0798,-3.0793,-3.0793,-3.0793,-3.0798,-3.0806,-3.0801,-3.0796,-3.0799,-3.0827,-3.0878,-3.0898,-3.0898,-3.0891,-3.0825,-3.0367,-2.9497,-2.8739,-2.8326,-2.8177,-2.7296,-2.6833,-2.669,-2.5926,-2.5565,-2.5512,-2.5505,-2.5434,-2.532,-2.5254,-2.5192,-2.5126,-2.4987,-2.4851,-2.4832,-5.5979,-5.5979,-5.5996,-5.6048,-5.6068,-5.6104,-5.6082,-5.5707,-5.5417,-5.542,-5.5029,-5.4599,-5.4161,-5.3333,-5.2465,-5.1544,-5.1467,-5.1312,-5.0975,-5.0937,-5.0971,-5.1053,-5.1087,-5.1095,-5.1095,-5.1095,-5.0862,-5.0358,-5.0033,-4.9411,-4.8584,-4.7668,-4.6783,-4.5949,-4.5899,-4.5893,-4.5847,-4.5847,-4.5847,-4.5808,-4.544,-4.4782,-4.4021,-4.3641,-4.2641,-4.1415,-4.0963,-4.0808,-4.0796,-4.0788,-4.0808,-4.0796,-4.0796,-4.0808,-4.0645,-3.9846,-3.8975,-3.8123,-3.7316,-3.6462,-3.5801,-3.5791,-3.5823,-3.5872,-3.5898,-3.5897,-3.5924,-3.5981,-3.6004,-3.6001,-3.6003,-3.5991,-3.5994,-3.5995,-3.5584,-3.4961,-3.4101,-3.3222,-3.2342,-3.1472,-3.1031,-3.0804,-3.0804,-3.0804,-3.0807,-3.0794,-3.0794,-3.0819,-3.0852,-3.0813,-3.0837,-3.0898,-3.0856,-3.0831,-3.0845,-3.081,-3.0115,-2.8778,-2.8388,-2.7935,-2.7433,-2.6563,-2.6174,-2.6149,-2.5768,-2.5564,-2.549,-2.5472,-2.5395,-2.5284,-2.5182,-2.508,-2.4974,-2.4808,-2.4673,-2.4617]},{"header":{"parameterUnit":"m.s-1","parameterCategory":1,"la1":30.6,"la2":28.766,"lo1":-90.7593,"lo2":-88.6598,"dy":0.0162,"dx":0.0183,"nx":116,"ny":114,"refTime":"2023-07-02T12:00:00:Z","depth":0,"parameterNumber":3,"parameterNumberName":"V-component_of_WINDS"},"data":[0.0,0.0,0.0,0.0,0.0,0.0,0.0,0.0,0.0,0.0,0.0,0.0,0.0,0.0,0.0,0.0,0.0,0.0,0.0,0.0,0.0,0.0,0.0,0.0,0.0,0.0,0.0,0.0,0.0,0.0,0.0,0.0,0.0,0.0,0.0,0.0,0.0,0.0,0.0,0.0,0.0,0.0,0.0,0.0,0.0,0.0,0.0,0.0,0.0,0.0,0.0,0.0,0.0,0.0,0.0,0.0,0.0,0.0,0.0,0.0,0.0,0.0,0.0,0.0,0.0,0.0,0.0,0.0,0.0,0.0,0.0,0.0,0.0,0.0,0.0,0.0,0.0,0.0,0.0,0.0,0.0,0.0,0.0,0.0,0.0,0.0,0.0,0.0,0.0,0.0,0.0,0.0,0.0,0.0,0.0,0.0,0.0,0.0,0.0,0.0,0.0,0.0,0.0,0.0,0.0,0.0,0.0,0.0,0.0,0.0,0.0,0.0,0.0,0.0,0.0,0.0,0.0,0.0,0.0,0.0,0.0,0.0,0.0,0.0,0.0,0.0,0.0,0.0,0.0,0.0,0.0,0.0,0.0,0.0,0.0,0.0,0.0,0.0,0.0,0.0,0.0,0.0,0.0,0.0,0.0,0.0,0.0,0.0,0.0,0.0,0.0,0.0,0.0,0.0,0.0,0.0,0.0,0.0,0.0,0.0,0.0,0.0,0.0,0.0,0.0,0.0,0.0,0.0,0.0,0.0,0.0,0.0,0.0,0.0,0.0,0.0,0.0,0.0,0.0,0.0,0.0,0.0,0.0,0.0,0.0,0.0,0.0,0.0,0.0,0.0,0.0,0.0,0.0,0.0,0.0,0.0,0.0,0.0,0.0,0.0,0.0,0.0,0.0,0.0,0.0,0.0,0.0,0.0,0.0,0.0,0.0,0.0,0.0,0.0,0.0,0.0,0.0,0.0,0.0,0.0,0.0,0.0,0.0,0.0,0.0,0.0,0.0,0.0,0.0,0.0,0.0,0.0,0.0,0.0,0.0,0.0,0.0,0.0,0.0,0.0,0.0,0.0,0.0,0.0,0.0,0.0,0.0,0.0,0.0,0.0,0.0,0.0,0.0,0.0,0.0,0.0,0.0,0.0,0.0,0.0,0.0,0.0,0.0,0.0,0.0,0.0,0.0,0.0,0.0,0.0,0.0,0.0,0.0,0.0,0.0,0.0,0.0,0.0,0.0,0.0,0.0,0.0,0.0,0.0,0.0,0.0,0.0,0.0,0.0,0.0,0.0,0.0,0.0,0.0,0.0,0.0,0.0,0.0,0.0,0.0,0.0,0.0,0.0,0.0,0.0,0.0,0.0,0.0,0.0,0.0,0.0,0.0,0.0,0.0,0.0,0.0,0.0,0.0,0.0,0.0,0.0,0.0,0.0,0.0,0.0,0.0,0.0,0.0,0.0,0.0,0.0,0.0,0.0,0.0,0.0,0.0,0.0,0.0,0.0,0.0,0.0,0.0,0.0,0.0,0.0,0.0,0.0,0.0,0.0,0.0,0.0,0.0,0.0,0.0,0.0,0.0,0.0,0.0,0.0,0.0,0.0,0.0,0.0,0.0,0.0,0.0,0.0,0.0,0.0,0.0,0.0,0.0,0.0,0.0,0.0,0.0,0.0,0.0,0.0,0.0,0.0,0.0,0.0,0.0,0.0,0.0,0.0,0.0,0.0,0.0,0.0,0.0,0.0,0.0,0.0,0.0,0.0,0.0,0.0,0.0,0.0,0.0,0.0,0.0,0.0,0.0,0.0,0.0,0.0,0.0,0.0,0.0,0.0,0.0,0.0,0.0,0.0,0.0,0.0,0.0,0.0,0.0,0.0,0.0,0.0,0.0,0.0,0.0,0.0,0.0,0.0,0.0,0.0,0.0,0.0,0.0,0.0,0.0,0.0,0.0,0.0,0.0,0.0,0.0,0.0,0.0,0.0,0.0,0.0,0.0,0.0,0.0,0.0,0.0,0.0,0.0,0.0,0.0,0.0,0.0,0.0,0.0,0.0,0.0,0.0,0.0,0.0,0.0,0.0,0.0,0.0,0.0,0.0,0.0,0.0,0.0,0.0,0.0,0.0,0.0,0.0,0.0,0.0,0.0,0.0,0.0,0.0,0.0,0.0,0.0,0.0,0.0,0.0,0.0,0.0,0.0,0.0,0.0,0.0,0.0,0.0,0.0,0.0,0.0,0.0,0.0,0.0,0.0,0.0,0.0,0.0,0.0,0.0,0.0,0.0,0.0,0.0,0.0,0.0,0.0,0.0,0.0,0.0,0.0,0.0,0.0,0.0,0.0,0.0,0.0,0.0,0.0,0.0,0.0,0.0,0.0,0.0,0.0,0.0,0.0,0.0,0.0,0.0,0.0,0.0,0.0,0.0,0.0,0.0,0.0,0.0,0.0,0.0,0.0,0.0,0.0,0.0,0.0,0.0,0.0,0.0,0.0,0.0,0.0,0.0,0.0,0.0,0.0,0.0,0.0,0.0,0.0,0.0,0.0,0.0,0.0,0.0,0.0,0.0,0.0,0.0,0.0,0.0,0.0,0.0,0.0,0.0,0.0,0.0,0.0,0.0,0.0,0.0,0.0,0.0,0.0,0.0,0.0,0.0,0.0,0.0,0.0,0.0,0.0,0.0,0.0,0.0,0.0,0.0,0.0,0.0,0.0,0.0,0.0,0.0,0.0,0.0,0.0,0.0,0.0,0.0,0.0,0.0,0.0,0.0,0.0,0.0,0.0,0.0,0.0,0.0,0.0,0.0,0.0,0.0,0.0,0.0,0.0,0.0,0.0,0.0,0.0,0.0,0.0,0.0,0.0,0.0,0.0,0.0,0.0,0.0,0.0,0.0,0.0,0.0,0.0,0.0,0.0,0.0,0.0,0.0,0.0,0.0,0.0,0.0,0.0,0.0,0.0,0.0,0.0,0.0,0.0,0.0,0.0,0.0,0.0,0.0,0.0,0.0,0.0,0.0,0.0,0.0,0.0,0.0,0.0,0.0,0.0,0.0,0.0,0.0,0.0,0.0,0.0,0.0,0.0,0.0,0.0,0.0,0.0,0.0,0.0,0.0,0.0,0.0,0.0,0.0,0.0,0.0,0.0,0.0,0.0,0.0,0.0,0.0,0.0,0.0,0.0,0.0,0.0,0.0,0.0,0.0,0.0,0.0,0.0,0.0,0.0,0.0,0.0,0.0,0.0,0.0,0.0,0.0,0.0,0.0,0.0,0.0,0.0,0.0,0.0,0.0,0.0,0.0,0.0,0.0,0.0,0.0,0.0,0.0,0.0,0.0,0.0,0.0,0.0,0.0,0.0,0.0,0.0,0.0,0.0,0.0,0.0,0.0,0.0,0.0,0.0,0.0,0.0,0.0,0.0,0.0,0.0,0.0,0.0,0.0,0.0,0.0,0.0,0.0,0.0,0.0,0.0,0.0,0.0,0.0,0.0,0.0,0.0,0.0,0.0,0.0,0.0,0.0,0.0,0.0,0.0,0.0,0.0,0.0,0.0,0.0,0.0,0.0,0.0,0.0,0.0,0.0,0.0,0.0,0.0,0.0,0.0,0.0,0.0,0.0,0.0,0.0,0.0,0.0,0.0,0.0,0.0,0.0,0.0,0.0,0.0,0.0,0.0,0.0,0.0,0.0,0.0,0.0,0.0,0.0,0.0,0.0,0.0,0.0,0.0,0.0,0.0,0.0,0.0,0.0,0.0,0.0,0.0,0.0,0.0,0.0,0.0,0.0,0.0,0.0,0.0,0.0,0.0,0.0,0.0,0.0,0.0,0.0,0.0,0.0,0.0,0.0,0.0,0.0,0.0,0.0,0.0,0.0,0.0,0.0,0.0,0.0,0.0,0.0,0.0,0.0,0.0,0.0,0.0,0.0,0.0,0.0,0.0,0.0,0.0,0.0,0.0,0.0,0.0,0.0,0.0,0.0,0.0,0.0,0.0,0.0,0.0,0.0,0.0,0.0,0.0,0.0,0.0,0.0,0.0,0.0,0.0,0.0,0.0,0.0,0.0,0.0,0.0,0.0,0.0,0.0,0.0,0.0,0.0,0.0,0.0,0.0,0.0,0.0,0.0,0.0,0.0,0.0,0.0,0.0,0.0,0.0,0.0,0.0,0.0,0.0,0.0,0.0,0.0,0.0,0.0,0.0,0.0,0.0,0.0,0.0,0.0,0.0,0.0,0.0,0.0,0.0,0.0,0.0,0.0,0.0,0.0,0.0,0.0,0.0,0.0,0.0,0.0,0.0,0.0,0.0,0.0,0.0,0.0,0.0,0.0,0.0,0.0,0.0,0.0,0.0,0.0,0.0,0.0,0.0,0.0,0.0,0.0,0.0,0.0,0.0,0.0,0.0,0.0,0.0,0.0,0.0,0.0,0.0,0.0,0.0,0.0,0.0,0.0,0.0,0.0,0.0,0.0,0.0,0.0,0.0,0.0,0.0,0.0,0.0,0.0,0.0,0.0,0.0,0.0,0.0,0.0,0.0,0.0,0.0,0.0,0.0,0.0,0.0,0.0,0.0,0.0,0.0,0.0,0.0,0.0,0.0,0.0,0.0,0.0,0.0,0.0,0.0,0.0,0.0,0.0,0.0,0.0,0.0,0.0,0.0,0.0,0.0,0.0,0.0,0.0,0.0,0.0,0.0,0.0,0.0,0.0,0.0,0.0,0.0,0.0,0.0,0.0,0.0,0.0,0.0,0.0,0.0,0.0,0.0,0.0,0.0,0.0,0.0,0.0,0.0,0.0,0.0,0.0,0.0,0.0,0.0,0.0,0.0,0.0,0.0,0.0,0.0,0.0,0.0,0.0,0.0,0.0,0.0,0.0,0.0,0.0,0.0,0.0,0.0,0.0,0.0,0.0,0.0,0.0,0.0,0.0,0.0,0.0,0.0,0.0,0.0,0.0,0.0,0.0,0.0,0.0,0.0,0.0,0.0,0.0,0.0,0.0,0.0,0.0,0.0,0.0,0.0,0.0,0.0,0.0,0.0,0.0,0.0,0.0,0.0,0.0,0.0,0.0,0.0,0.0,0.0,0.0,0.0,0.0,0.0,0.0,0.0,0.0,0.0,0.0,0.0,0.0,0.0,0.0,0.0,0.0,0.0,0.0,0.0,0.0,0.0,0.0,0.0,0.0,0.0,0.0,0.0,0.0,0.0,0.0,0.0,0.0,0.0,0.0,0.0,0.0,0.0,0.0,0.0,0.0,0.0,0.0,0.0,0.0,0.0,0.0,0.0,0.0,0.0,0.0,0.0,0.0,0.0,0.0,0.0,0.0,0.0,0.0,0.0,0.0,0.0,0.0,0.0,0.0,0.0,0.0,0.0,0.0,0.0,0.0,0.0,0.0,0.0,0.0,0.0,0.0,0.0,0.0,0.0,0.0,0.0,0.0,0.0,0.0,0.0,0.0,0.0,0.0,0.0,0.0,0.0,0.0,0.0,0.0,0.0,0.0,0.0,0.0,0.0,0.0,0.0,0.0,0.0,0.0,0.0,0.0,0.0,0.0,0.0,0.0,0.0,0.0,0.0,0.0,0.0,0.0,0.0,0.0,0.0,0.0,0.0,0.0,0.0,0.0,0.0,0.0,0.0,0.0,0.0,0.0,0.0,0.0,0.0,0.0,0.0,0.0,0.0,0.0,0.0,0.0,0.0,0.0,0.0,0.0,0.0,0.0,0.0,0.0,0.0,0.0,0.0,0.0,0.0,0.0,0.0,0.0,0.0,0.0,0.0,0.0,0.0,0.0,0.0,0.0,0.0,0.0,0.0,0.0,0.0,0.0,0.0,0.0,0.0,0.0,0.0,0.0,0.0,0.0,0.0,0.0,0.0,0.0,0.0,0.0,0.0,0.0,0.0,0.0,0.0,0.0,0.0,0.0,0.0,0.0,0.0,0.0,0.0,0.0,0.0,0.0,0.0,0.0,0.0,0.0,0.0,0.0,0.0,0.0,0.0,0.0,0.0,0.0,0.0,0.0,0.0,0.0,0.0,0.0,0.0,0.0,0.0,0.0,0.0,0.0,0.0,0.0,0.0,0.0,0.0,0.0,0.0,0.0,-3.4539,-3.409,0.0,0.0,0.0,0.0,0.0,0.0,0.0,0.0,0.0,0.0,0.0,0.0,0.0,0.0,0.0,0.0,0.0,0.0,0.0,0.0,0.0,0.0,0.0,0.0,0.0,0.0,0.0,0.0,0.0,0.0,0.0,0.0,0.0,0.0,0.0,0.0,0.0,0.0,0.0,0.0,0.0,0.0,0.0,0.0,0.0,0.0,0.0,0.0,0.0,0.0,0.0,0.0,0.0,0.0,0.0,0.0,0.0,0.0,0.0,0.0,0.0,0.0,0.0,0.0,0.0,0.0,0.0,0.0,0.0,0.0,0.0,0.0,0.0,0.0,0.0,0.0,0.0,0.0,0.0,0.0,0.0,0.0,0.0,0.0,0.0,0.0,0.0,0.0,0.0,0.0,0.0,0.0,0.0,0.0,0.0,0.0,0.0,0.0,0.0,0.0,0.0,0.0,0.0,0.0,0.0,0.0,0.0,0.0,0.0,0.0,0.0,0.0,0.0,0.0,-3.4851,-3.4604,0.0,0.0,0.0,0.0,0.0,0.0,0.0,0.0,0.0,0.0,0.0,0.0,0.0,0.0,0.0,0.0,0.0,0.0,0.0,0.0,0.0,0.0,0.0,0.0,0.0,0.0,0.0,0.0,0.0,0.0,0.0,0.0,0.0,0.0,0.0,0.0,0.0,0.0,0.0,0.0,0.0,0.0,0.0,0.0,0.0,0.0,0.0,0.0,0.0,0.0,0.0,0.0,0.0,0.0,0.0,0.0,0.0,0.0,0.0,0.0,0.0,0.0,0.0,0.0,0.0,0.0,0.0,0.0,0.0,0.0,0.0,0.0,0.0,0.0,0.0,0.0,0.0,0.0,0.0,0.0,0.0,0.0,0.0,0.0,0.0,0.0,0.0,0.0,0.0,0.0,0.0,0.0,0.0,0.0,0.0,0.0,0.0,0.0,0.0,0.0,0.0,0.0,0.0,0.0,0.0,0.0,0.0,0.0,-2.5947,-2.7984,-3.0528,-3.1765,-3.2988,-3.4148,-3.4483,-3.4591,-3.443,-3.3245,0.0,0.0,0.0,0.0,0.0,0.0,0.0,0.0,0.0,0.0,0.0,0.0,0.0,0.0,0.0,0.0,0.0,0.0,0.0,0.0,0.0,0.0,-1.9261,-2.0254,-2.0391,0.0,0.0,0.0,0.0,0.0,0.0,0.0,0.0,0.0,0.0,0.0,0.0,0.0,-2.2097,-2.2906,-2.3467,-2.3649,-2.3047,0.0,0.0,0.0,0.0,0.0,0.0,0.0,0.0,0.0,0.0,0.0,0.0,0.0,0.0,0.0,0.0,0.0,0.0,0.0,0.0,0.0,0.0,0.0,0.0,0.0,0.0,0.0,0.0,0.0,0.0,0.0,0.0,0.0,0.0,0.0,0.0,0.0,0.0,0.0,0.0,0.0,0.0,0.0,-1.724,-1.7954,0.0,0.0,0.0,0.0,0.0,0.0,0.0,0.0,0.0,0.0,0.0,0.0,0.0,-2.3844,-2.3079,-2.3516,-2.4326,-2.5589,-2.5959,-2.7794,-3.0826,-3.1038,-3.2128,-3.3842,-3.3972,0.0,-3.408,-3.2988,0.0,0.0,0.0,0.0,0.0,0.0,0.0,0.0,0.0,0.0,0.0,0.0,0.0,0.0,0.0,0.0,0.0,0.0,0.0,0.0,0.0,0.0,-1.9975,-2.0814,-2.1573,-2.2443,0.0,0.0,0.0,0.0,0.0,0.0,0.0,0.0,0.0,0.0,-2.2254,-2.3012,-2.4084,-2.4676,-2.5469,-2.6464,-2.6311,-2.53,-2.3774,-2.3256,0.0,0.0,0.0,0.0,0.0,0.0,0.0,0.0,0.0,0.0,0.0,0.0,0.0,0.0,0.0,0.0,0.0,0.0,0.0,0.0,0.0,0.0,0.0,0.0,0.0,0.0,0.0,0.0,0.0,0.0,0.0,0.0,0.0,0.0,0.0,0.0,0.0,0.0,0.0,-1.7799,-1.7611,-1.8349,-1.9171,-2.0053,0.0,0.0,0.0,0.0,0.0,0.0,0.0,0.0,0.0,-2.5391,-2.5204,-2.4892,-2.444,-2.4703,-2.5289,-2.6131,-2.6854,-2.837,-3.0595,-3.0946,-3.1984,-3.3473,-3.3522,-3.3662,-3.3797,-3.3266,-3.2801,-3.2304,0.0,0.0,0.0,0.0,-3.338,-3.4268,0.0,0.0,0.0,0.0,0.0,0.0,0.0,0.0,0.0,0.0,0.0,0.0,-1.9626,-2.0109,-2.0666,-2.1326,-2.2672,-2.3709,-2.4278,0.0,0.0,0.0,0.0,0.0,0.0,0.0,0.0,0.0,-2.4141,-2.5133,-2.6166,-2.6811,-2.7699,-2.8645,-2.9015,-2.7799,-2.5386,-2.4685,-2.3688,0.0,0.0,0.0,0.0,0.0,0.0,0.0,0.0,0.0,0.0,0.0,0.0,0.0,0.0,0.0,0.0,0.0,0.0,0.0,0.0,0.0,0.0,0.0,0.0,0.0,0.0,0.0,0.0,0.0,0.0,0.0,0.0,0.0,0.0,0.0,0.0,0.0,0.0,-1.8336,-1.8056,-1.8613,-1.9242,-2.0006,0.0,0.0,0.0,0.0,0.0,0.0,-2.5831,-2.6015,-2.6113,-2.6136,-2.5997,-2.5827,-2.5682,-2.5754,-2.6096,-2.6795,-2.7538,-2.876,-3.034,-3.0803,-3.1711,-3.2862,-3.2939,-3.3093,-3.3357,-3.3512,-3.3291,-3.2749,-3.2091,-3.2139,-3.2588,-3.2846,-3.3493,-3.4386,0.0,0.0,0.0,0.0,0.0,0.0,0.0,0.0,0.0,0.0,0.0,-2.0064,-1.9896,-2.0515,-2.1192,-2.1826,-2.3309,-2.4489,-2.5098,0.0,0.0,0.0,0.0,0.0,0.0,0.0,0.0,-2.5332,-2.6795,-2.7841,-2.8575,-2.9907,-3.0491,-3.0493,-3.048,-2.9515,-2.7751,-2.678,-2.5256,-2.3358,0.0,0.0,0.0,0.0,0.0,0.0,0.0,0.0,0.0,0.0,0.0,0.0,0.0,0.0,0.0,0.0,0.0,0.0,0.0,0.0,0.0,0.0,0.0,0.0,0.0,0.0,0.0,0.0,0.0,0.0,0.0,0.0,0.0,0.0,0.0,0.0,0.0,0.0,0.0,-1.8284,-1.9452,0.0,0.0,0.0,0.0,-2.3826,-2.4292,-2.4956,-2.5997,-2.5921,-2.6248,-2.7107,-2.6891,-2.6744,-2.6722,-2.6619,-2.6968,-2.7841,-2.7517,-2.8394,-3.0393,-3.037,-3.0917,-3.1897,-3.2021,-3.2283,-3.2719,-3.3465,-3.3426,-3.277,-3.1397,-3.1274,-3.1915,-3.229,-3.2072,-3.1807,0.0,0.0,0.0,0.0,0.0,0.0,0.0,0.0,0.0,-2.0626,-2.0427,-2.0481,-2.1007,-2.1243,-2.1895,-2.3213,-2.4302,-2.5411,-2.6552,0.0,0.0,0.0,0.0,0.0,0.0,0.0,-2.7296,-2.7472,-2.8732,-2.9833,-3.0885,-3.1469,-3.1952,-3.2349,-3.1957,-3.1103,-2.9763,-2.7822,-2.6078,-2.4403,-2.2384,-2.0439,0.0,0.0,0.0,0.0,0.0,0.0,0.0,0.0,0.0,0.0,0.0,0.0,0.0,0.0,0.0,0.0,0.0,0.0,0.0,0.0,0.0,0.0,0.0,0.0,0.0,0.0,0.0,0.0,0.0,0.0,0.0,0.0,0.0,0.0,0.0,0.0,0.0,-1.9182,-1.9839,0.0,-2.0952,-2.2143,-2.3063,-2.3536,-2.4255,-2.5095,-2.6126,-2.6298,-2.6685,-2.7354,-2.7287,-2.7305,-2.7631,-2.7726,-2.8119,-2.8801,-2.8323,-2.8865,-3.0376,-2.984,-3.0146,-3.1089,-3.1016,-3.1072,-3.1261,-3.1274,-3.1497,-3.1711,-3.0942,-3.0821,-3.1179,-3.1352,-3.1677,-3.1955,0.0,0.0,0.0,0.0,0.0,0.0,0.0,0.0,0.0,-2.1588,-2.1423,-2.1384,-2.1762,-2.2052,-2.2751,-2.4137,-2.5263,-2.6497,-2.7962,0.0,0.0,0.0,0.0,0.0,0.0,-2.8398,-2.9004,-2.9826,-3.0854,-3.1918,-3.2982,-3.333,-3.3691,-3.3891,-3.3229,-3.226,-3.1032,-2.9189,-2.7328,-2.5379,-2.3269,-2.1189,-1.905,0.0,0.0,0.0,0.0,0.0,0.0,0.0,0.0,0.0,0.0,0.0,0.0,0.0,0.0,0.0,0.0,0.0,0.0,0.0,0.0,0.0,0.0,0.0,0.0,0.0,0.0,0.0,0.0,0.0,0.0,0.0,0.0,0.0,0.0,-1.9822,-1.9504,-1.9606,-2.0091,-2.0595,-2.1028,-2.2165,-2.3028,-2.3447,-2.4234,-2.5075,-2.5943,-2.6371,-2.685,-2.739,-2.7536,-2.7741,-2.8051,-2.8372,-2.8699,-2.8972,-2.8852,-2.9172,-2.9831,-2.9454,-2.9562,-3.0021,-2.9843,-2.9919,-3.013,-2.9798,-2.9766,-2.9978,-3.0027,-2.9657,-2.9194,-2.9594,-3.0241,-3.0854,0.0,0.0,0.0,0.0,0.0,0.0,0.0,0.0,0.0,-2.1872,-2.2624,-2.2876,-2.2176,-2.2918,-2.3802,-2.4629,-2.6163,-2.7755,-2.9304,-2.9667,0.0,0.0,0.0,0.0,-2.943,-2.9366,-3.025,-3.2288,-3.3201,-3.4015,-3.4787,-3.5594,-3.5627,-3.5085,-3.4179,-3.2974,-3.1558,-3.088,-2.8964,-2.6255,-2.4309,-2.1894,-1.9198,0.0,0.0,0.0,0.0,0.0,0.0,0.0,0.0,0.0,0.0,0.0,0.0,0.0,0.0,0.0,0.0,0.0,0.0,0.0,0.0,0.0,0.0,0.0,0.0,0.0,0.0,0.0,0.0,0.0,0.0,0.0,0.0,0.0,-2.0227,-2.0446,-2.0325,-1.9354,-2.039,-2.1222,-2.1356,-2.2305,-2.3106,-2.3475,-2.4192,-2.4909,-2.5511,-2.607,-2.6633,-2.7268,-2.7723,-2.7967,-2.7919,-2.8507,-2.8663,-2.8326,-2.9042,-2.919,-2.8843,-2.9219,-2.9162,-2.87,-2.8638,-2.8919,-2.9425,-2.9136,-2.8462,-2.773,-2.8684,-2.781,-2.6101,-2.7056,-2.7766,-2.8214,0.0,0.0,0.0,0.0,0.0,0.0,0.0,0.0,-2.2902,-2.3546,-2.3859,-2.4002,-2.3913,-2.4714,-2.5649,-2.6547,-2.8193,-2.9259,-2.9457,0.0,0.0,0.0,0.0,0.0,-3.06,-3.1165,-3.2232,-3.3795,-3.4849,-3.5518,-3.5892,-3.6638,-3.6459,-3.5447,-3.4842,-3.3553,-3.1719,-3.0385,-2.8942,-2.7454,-2.5445,-2.3036,-2.0294,0.0,0.0,0.0,0.0,0.0,0.0,0.0,0.0,0.0,0.0,0.0,0.0,0.0,0.0,0.0,0.0,0.0,0.0,0.0,0.0,0.0,0.0,0.0,0.0,0.0,0.0,0.0,0.0,0.0,0.0,0.0,-2.152,-2.1539,-2.1398,-2.0586,-1.9995,-1.9919,-2.0116,-2.0252,-2.0286,-2.1092,-2.1657,-2.1942,-2.2831,-2.3756,-2.462,-2.5399,-2.6164,-2.685,-2.739,-2.7776,-2.7943,-2.8647,-2.9114,-2.9405,-2.9377,-2.9418,-2.951,-2.9213,-2.8979,-2.8785,-2.8241,-2.8122,-2.8288,-2.7849,-2.8228,-2.8986,-2.8293,-2.7948,-2.7797,-2.7159,-2.7418,-2.8002,0.0,0.0,0.0,0.0,0.0,0.0,0.0,0.0,-2.4007,-2.5133,-2.5375,-2.5467,-2.5555,-2.6153,-2.6921,-2.7869,-2.8777,-2.9674,-3.0584,0.0,0.0,0.0,0.0,-2.9302,-3.0744,-3.1562,-3.2822,-3.4603,-3.5242,-3.5817,-3.6437,-3.6757,-3.6483,-3.5697,-3.5189,-3.4038,-3.2344,-3.1302,-2.9835,-2.8152,-2.6654,-2.4228,-2.1133,-1.7995,-1.532,-1.3084,-1.1992,-1.1683,-1.1945,-1.2718,0.0,0.0,0.0,0.0,0.0,0.0,0.0,0.0,0.0,0.0,0.0,0.0,0.0,0.0,0.0,0.0,0.0,0.0,0.0,0.0,0.0,0.0,0.0,0.0,-2.1522,-2.1921,-2.1829,-2.0874,-2.0036,-1.976,-1.9835,-1.9949,-2.0031,-2.0573,-2.1073,-2.1407,-2.2259,-2.3157,-2.4084,-2.4944,-2.5664,-2.6314,-2.6985,-2.7443,-2.7776,-2.843,-2.8944,-2.9324,-2.9147,-2.9082,-2.9066,-2.8711,-2.8383,-2.8097,-2.7683,-2.7342,-2.7056,-2.6707,-2.7627,-2.9087,0.0,0.0,0.0,0.0,-2.6781,-2.6687,0.0,0.0,0.0,0.0,0.0,0.0,0.0,0.0,-2.5059,-2.6418,-2.6834,-2.6989,-2.6916,-2.7284,-2.7886,-2.8771,-2.8757,-2.9702,0.0,0.0,0.0,-2.8237,-2.8928,-2.9709,-3.0452,-3.1141,-3.2607,-3.4755,-3.4861,-3.5431,-3.6413,-3.6368,-3.6125,-3.5701,-3.5231,-3.4266,-3.2899,-3.2599,-3.0933,-2.8481,-2.7648,-2.5247,-2.1816,-1.9143,-1.6792,-1.4704,-1.3529,-1.2963,-1.2929,-1.3813,0.0,0.0,0.0,0.0,0.0,0.0,0.0,0.0,0.0,0.0,0.0,0.0,0.0,0.0,0.0,0.0,0.0,0.0,0.0,0.0,0.0,0.0,0.0,0.0,-2.1525,-2.1776,-2.1673,-2.0978,-2.0106,-1.9163,-1.9453,-1.9889,-2.0022,-2.0358,-2.082,-2.1438,-2.2093,-2.2828,-2.3784,-2.4492,0.0,0.0,0.0,-2.7108,-2.7456,-2.7973,-2.8365,-2.8587,-2.8675,-2.8515,-2.8133,-2.8071,-2.7755,-2.716,-2.7092,-2.6693,-2.6064,-2.5981,-2.6937,-2.8392,-2.8457,-2.7618,-2.6436,-2.6762,-2.6155,-2.4985,0.0,0.0,0.0,0.0,0.0,0.0,0.0,0.0,-2.6252,-2.6565,-2.729,-2.7559,-2.6953,-2.8146,-2.9195,-2.9626,-3.0565,-3.1499,0.0,0.0,-2.8989,-2.9636,-2.9003,-2.947,-3.1321,-3.153,-3.2395,-3.3956,-3.5118,-3.553,-3.533,-3.6489,-3.6223,-3.4757,-3.466,-3.3627,-3.1852,-3.1239,-3.0172,-2.873,-2.7503,-2.5261,-2.2481,-2.083,-1.8478,-1.5948,-1.5639,-1.5098,-1.4544,-1.4856,-1.5617,-1.6574,-1.7352,0.0,0.0,0.0,0.0,0.0,0.0,0.0,0.0,0.0,0.0,0.0,0.0,0.0,0.0,0.0,0.0,0.0,0.0,0.0,0.0,-2.0688,-2.0948,-2.1007,-2.1036,-2.0353,-1.971,-1.9541,-1.9282,-1.9043,-1.8901,-1.9264,-1.9737,-2.038,-2.1188,-2.2085,-2.318,-2.3948,-2.4766,-2.5606,-2.622,-2.6688,-2.7108,-2.7643,-2.8039,-2.8365,-2.8235,0.0,-2.8241,-2.7996,-2.7799,-2.7601,-2.6982,-2.6852,-2.7128,-2.6479,-2.6671,-2.7348,-2.7603,-2.7406,-2.6891,-2.6848,-2.6329,-2.5617,0.0,0.0,0.0,0.0,0.0,0.0,0.0,0.0,-2.7222,-2.7602,-2.848,-2.8897,-2.8544,-2.9687,-3.0456,-3.0302,-3.1094,0.0,0.0,-2.9897,-2.8965,-2.8458,-2.8618,-2.899,-2.969,-3.0472,-3.153,-3.2844,-3.3442,-3.3863,-3.4108,-3.4722,-3.4485,-3.3494,-3.3541,-3.2842,-3.1603,-3.1416,-3.0656,-2.9471,-2.8475,-2.6842,-2.4782,-2.2304,-2.0277,-1.8699,-1.7805,-1.7015,-1.6371,-1.6434,-1.659,-1.691,-1.7682,-1.8324,-1.8946,0.0,0.0,0.0,0.0,0.0,0.0,0.0,0.0,0.0,0.0,0.0,0.0,0.0,0.0,-1.7476,-1.7641,0.0,-1.9438,-1.9818,-2.0386,-2.0846,-2.0767,-2.0247,-1.9727,-1.9372,-1.8794,-1.8468,-1.8613,-1.8596,-1.9043,-2.0066,-2.0554,-2.1396,-2.267,-2.3458,-2.4261,-2.5052,-2.5746,-2.6289,-2.6633,-2.7391,-2.7941,-2.8211,-2.8009,-2.8009,-2.8198,-2.7654,-2.7546,-2.7793,-2.7359,-2.7382,-2.7662,-2.7331,-2.6878,-2.6465,-2.6863,-2.6794,-2.6521,-2.6577,-2.6077,-2.5276,0.0,0.0,0.0,0.0,0.0,0.0,0.0,0.0,0.0,-2.8597,-2.9503,-3.0088,-3.0088,-3.0962,-3.1381,0.0,0.0,0.0,0.0,-2.984,-2.8965,-2.6888,-2.7805,-2.82,-2.7864,-2.8991,-3.0254,-3.1567,-3.1608,-3.1981,-3.2757,-3.2844,-3.2547,-3.1982,-3.2088,-3.1737,-3.112,-3.1466,-3.1061,-3.0156,-2.9708,-2.8852,-2.7494,-2.4308,-2.2547,-2.1584,-2.0273,-1.9277,-1.8522,-1.8396,-1.7889,-1.7385,-1.8249,-1.8497,-1.8568,-1.9162,-2.0037,0.0,0.0,0.0,0.0,0.0,0.0,0.0,0.0,-1.626,-1.6037,-1.5896,-1.6562,-1.7149,-1.6892,-1.7979,-1.8863,-1.8802,-1.9752,-2.0487,-2.0468,-2.022,-1.9836,-1.9273,-1.8537,-1.8202,-1.8402,-1.8269,-1.865,-1.9928,-2.0186,-2.0853,-2.2285,-2.3001,-2.3751,-2.4345,-2.5361,-2.5975,-2.6243,-2.7284,-2.7915,-2.8068,-2.7915,-2.7915,-2.8055,-2.7411,-2.7367,-2.7844,-2.7844,-2.7863,-2.7885,-2.8056,-2.7304,-2.6058,-2.6364,-2.6245,-2.6094,-2.622,-2.5728,-2.4856,0.0,0.0,0.0,0.0,0.0,0.0,0.0,0.0,0.0,-2.8594,-2.9428,-3.002,-3.002,-3.0808,0.0,0.0,0.0,0.0,-3.0234,-2.8853,-2.7706,-2.6843,-2.641,-2.6739,-2.7943,-2.8138,-2.8828,-3.0071,-3.1165,-3.1479,-3.1065,-3.2181,-3.1836,-3.0185,-3.0217,-2.987,-2.9312,-2.9641,-2.9939,-3.0228,-3.0576,-3.0312,-2.954,-2.7993,-2.574,-2.3437,-2.3424,-2.2654,-2.1528,-2.0933,-2.0088,-1.9262,-1.9009,-1.8772,-1.8755,-1.9636,-1.9993,-1.9995,-1.9404,-1.8379,-1.7612,-1.7916,-1.747,-1.7097,0.0,-1.7412,-1.6786,-1.6786,-1.6836,-1.6904,-1.6913,-1.7323,-1.765,-1.7915,-1.8619,-1.9418,-2.0017,-1.9871,-1.97,-1.9787,-1.8909,-1.826,-1.7943,-1.836,-1.8832,-1.943,-2.0158,-2.0998,-2.2101,-2.2553,-2.315,-2.397,-2.5189,-2.6009,-2.6383,-2.731,-2.7863,-2.7971,-2.7875,-2.7875,-2.8082,-2.7654,-2.7667,-2.8082,-2.8082,-2.7949,-2.7852,-2.8024,-2.7528,-2.6574,-2.6293,-2.6037,-2.591,-2.5968,-2.5767,-2.5338,0.0,0.0,0.0,0.0,0.0,0.0,0.0,0.0,0.0,0.0,0.0,-3.0549,-3.0576,0.0,0.0,0.0,0.0,0.0,-3.0517,-2.8865,-2.7197,-2.5525,-2.5707,-2.5679,-2.5336,-2.6488,-2.7442,-2.8228,-2.9274,-2.9755,-2.97,-3.0021,-2.9625,-2.8637,-2.8268,-2.8019,-2.7849,-2.8714,-2.9447,-3.0065,-3.0628,-3.1179,-3.1533,-3.0234,-2.8887,-2.7437,-2.5266,-2.3764,0.0,0.0,-2.0529,-1.9694,-1.9262,-1.8932,-1.8819,-1.929,-1.9333,-1.9077,-1.8182,-1.776,-1.747,-1.7131,-1.7156,-1.7188,-1.6917,-1.6707,-1.6413,-1.5973,-1.5983,-1.6064,-1.6014,-1.6056,-1.624,-1.6652,-1.7588,-1.8583,-1.9392,-1.9338,-1.938,-1.9877,-1.8763,-1.7943,-1.781,-1.7723,-1.8009,-1.8974,-1.9554,-2.037,-2.1492,-2.2176,-2.2777,-2.3372,-2.4648,-2.5359,-2.5507,-2.686,-2.7509,-2.756,-2.7824,-2.7975,-2.8038,-2.7656,-2.7705,-2.8139,-2.8637,-2.8849,-2.895,-2.8773,-2.8237,-2.7619,-2.7379,-2.6748,-2.591,-2.6094,-2.6082,-2.5869,0.0,0.0,0.0,0.0,0.0,0.0,0.0,0.0,0.0,0.0,0.0,0.0,0.0,0.0,0.0,0.0,0.0,0.0,0.0,-2.867,-2.669,-2.4802,-2.488,-2.4527,-2.3517,-2.4853,-2.5837,-2.6468,-2.7341,-2.7833,-2.7985,-2.7985,-2.7462,-2.644,-2.6094,-2.5905,-2.5979,-2.7354,-2.8731,-3.0068,-3.0967,-3.2073,-3.3012,-3.1853,-3.1016,-3.0036,-2.6892,-2.4991,0.0,0.0,-2.1066,-2.0157,-1.9605,-1.9165,-1.8821,-1.8942,-1.8594,-1.8027,-1.7151,-1.7108,-1.7103,-1.6512,-1.6758,-1.7019,-1.6094,-1.6121,-1.6167,-1.558,-1.5479,-1.5376,-1.5214,-1.5061,-1.5034,-1.5359,-1.6512,-1.762,-1.8377,-1.8701,-1.9088,-1.9578,-1.8476,-1.7694,-1.7742,-1.7478,-1.7635,-1.8525,-1.9114,-1.9918,-2.0876,-2.1731,-2.2327,-2.2777,-2.4111,-2.4903,-2.4979,-2.6508,-2.7349,-2.7349,-2.7753,-2.7999,-2.8142,-2.7907,-2.8022,-2.8445,-2.8963,-2.9365,-2.9546,-2.9221,-2.8602,-2.7903,-2.784,-2.7058,-2.605,-2.644,-2.6427,-2.6252,0.0,0.0,0.0,0.0,0.0,0.0,0.0,0.0,0.0,0.0,0.0,0.0,0.0,0.0,0.0,0.0,0.0,0.0,0.0,-2.7841,-2.6039,-2.532,-2.3632,-2.3041,-2.3777,-2.3534,-2.388,-2.486,-2.5756,-2.6021,-2.5728,-2.6565,-2.5635,-2.3348,-2.3451,-2.3436,-2.3436,-2.5018,-2.7432,-3.0336,-3.1958,-3.3082,-3.3615,-3.2983,-3.1608,-2.9857,-2.8647,0.0,0.0,-2.3568,-2.2172,-2.0926,-2.0194,-1.946,0.0,-1.8857,-1.7907,-1.683,-1.665,-1.619,-1.5864,-1.6407,-1.6515,-1.6531,-1.6507,-1.6395,-1.6271,-1.6136,-1.5683,-1.5197,-1.4964,-1.4471,-1.4158,-1.4148,-1.5275,-1.6392,-1.7,-1.7934,-1.8747,-1.8956,-1.826,-1.766,-1.7543,-1.8002,-1.8312,-1.8166,-1.9219,-2.001,-2.0342,-2.1118,-2.1731,-2.2101,-2.3852,-2.4904,-2.506,-2.6668,-2.7487,-2.7499,-2.7765,-2.8099,-2.8486,-2.8688,-2.8821,-2.8912,-2.8937,-2.8961,-2.9131,-2.9131,-2.8218,-2.6883,-2.7137,-2.6834,-2.6283,-2.682,-2.6726,-2.6264,0.0,0.0,0.0,0.0,0.0,0.0,0.0,0.0,0.0,0.0,0.0,0.0,0.0,0.0,0.0,0.0,0.0,0.0,0.0,-2.6953,-2.5057,-2.4036,-2.2796,-2.2158,-2.222,-2.2719,-2.3243,-2.3856,-2.4668,-2.4876,-2.4507,-2.4038,-2.3059,-2.1586,-2.0635,-2.0439,-2.0955,-2.3062,-2.5665,-2.8634,-3.1016,-3.3077,-3.4606,-3.3844,-3.2738,-3.1388,0.0,0.0,-2.4862,-2.3402,-2.2151,-2.1015,-2.0055,-1.9257,-1.8555,-1.7625,-1.6618,-1.5713,-1.5503,-1.5332,-1.5311,-1.5389,-1.5744,-1.5863,-1.541,-1.5459,-1.5531,-1.5162,-1.4608,-1.4069,-1.3766,-1.315,-1.2709,-1.2895,-1.4178,-1.5487,-1.6456,-1.7333,-1.8075,-1.8708,-1.7972,-1.7608,-1.7773,-1.7941,-1.8029,-1.8089,-1.8994,-1.9706,-2.0264,-2.0799,-2.147,-2.233,-2.3409,-2.4207,-2.4692,-2.5898,-2.6467,-2.6467,-2.7115,-2.7696,-2.8122,-2.8339,-2.8407,-2.8419,-2.8578,-2.8258,-2.7605,-2.7605,-2.7053,-2.6113,-2.6396,-2.6387,-2.6371,-2.6807,-2.7011,-2.6934,0.0,0.0,0.0,0.0,0.0,0.0,0.0,0.0,0.0,0.0,0.0,0.0,0.0,0.0,0.0,0.0,0.0,-3.0029,0.0,0.0,-2.4325,-2.307,-2.2002,-2.1355,-2.1133,-2.1639,-2.2164,-2.2752,-2.326,-2.3264,-2.2787,-2.1921,-2.0622,-1.8923,-1.7872,-1.7706,-1.836,-2.0858,-2.3937,-2.738,-3.0196,-3.2657,-3.4474,-3.3706,-3.2513,0.0,0.0,0.0,-2.4327,-2.3201,-2.1839,-2.0505,-1.9825,-1.8733,-1.7487,-1.6523,-1.5443,-1.4576,-1.4355,-1.4416,-1.4523,-1.4451,-1.4839,-1.4979,-1.4582,-1.4754,-1.4874,-1.4494,-1.3862,-1.3178,-1.2866,-1.2011,-1.1397,-1.1757,-1.2877,-1.4099,-1.5455,-1.6272,-1.7098,-1.799,-1.7569,-1.7412,-1.7839,-1.7909,-1.7917,-1.8066,-1.9054,-1.9696,-1.9951,-2.078,-2.1481,-2.2097,-2.302,-2.3648,-2.404,-2.5153,-2.5895,-2.6146,-2.6798,-2.729,-2.7626,-2.7765,-2.7938,-2.8111,-2.8271,-2.7831,-2.6899,-2.6514,-2.6094,-2.5746,-2.5886,-2.6094,-2.6371,-2.6726,-2.7011,-2.7175,0.0,0.0,0.0,0.0,0.0,0.0,0.0,0.0,0.0,0.0,0.0,0.0,0.0,0.0,0.0,0.0,0.0,0.0,0.0,0.0,0.0,-2.2508,-2.1243,-2.062,-2.0707,-2.0395,-2.0657,-2.1583,-2.163,-2.1287,-2.0547,-2.0218,-1.8474,-1.56,-1.5247,-1.5262,-1.573,-1.8498,-2.2204,-2.6528,-2.9574,-3.1807,-3.328,-3.2755,0.0,0.0,0.0,0.0,-2.3698,-2.3068,-2.1384,-1.9526,-1.9469,-1.7801,-1.5785,-1.5605,-1.4558,-1.3401,-1.3329,-1.3354,-1.3432,-1.3567,-1.3848,-1.3985,-1.4036,-1.4137,-1.4267,-1.4048,-1.3314,-1.2633,-1.229,-1.107,-1.0301,-1.0901,-1.1507,-1.2434,-1.3945,-1.49,-1.5809,-1.6836,-1.6884,-1.7047,-1.7518,-1.7772,-1.7968,-1.7985,-1.9372,-1.9913,-1.9384,-2.0919,-2.168,-2.154,-2.2744,-2.3329,-2.3256,-2.4681,-2.5874,-2.6561,-2.6809,-2.6962,-2.7185,-2.7185,-2.7522,-2.8111,-2.8099,-2.7687,-2.6812,-2.5829,-2.5513,-2.5712,-2.5676,-2.5898,-2.627,-2.6589,-2.6794,-2.7002,0.0,0.0,0.0,0.0,0.0,0.0,0.0,0.0,0.0,0.0,0.0,0.0,0.0,0.0,0.0,0.0,0.0,0.0,0.0,0.0,0.0,0.0,0.0,0.0,0.0,0.0,0.0,0.0,0.0,-2.0603,-1.9747,-1.8485,-1.6625,-1.4331,-1.3096,-1.2979,-1.3927,-1.6609,-2.0412,-2.4984,0.0,-3.0535,-3.2133,0.0,0.0,0.0,0.0,0.0,-2.3697,-2.2686,-2.0709,-1.866,-1.8115,-1.668,-1.5111,-1.493,-1.3793,-1.2656,-1.2511,-1.2221,-1.2011,-1.2193,-1.248,-1.2819,-1.2679,-1.3101,-1.3317,-1.2864,-1.2128,-1.1481,-1.1147,-1.0125,-0.9633,-1.0335,-1.0974,-1.1765,-1.2878,-1.3866,-1.4509,-1.4605,-1.513,-1.5607,-1.5862,-1.6563,-1.7335,-1.8194,-1.9197,-1.9907,-2.0347,-2.081,-2.136,-2.1916,-2.2308,-2.2778,-2.3423,-2.449,-2.538,-2.6063,-2.6479,-2.6809,-2.6974,-2.7278,-2.7522,-2.7684,-2.8007,-2.7731,-2.7014,-2.6653,-2.6286,-2.5961,-2.5693,-2.5955,-2.6371,-2.6427,-2.6782,-2.7124,0.0,0.0,0.0,0.0,0.0,0.0,0.0,0.0,0.0,0.0,0.0,0.0,0.0,0.0,0.0,0.0,0.0,0.0,0.0,0.0,0.0,0.0,0.0,0.0,0.0,0.0,0.0,0.0,0.0,0.0,0.0,-1.6741,-1.4945,-1.2988,-1.1492,-1.1524,-1.2804,-1.5436,0.0,0.0,0.0,0.0,0.0,0.0,0.0,0.0,0.0,0.0,0.0,0.0,-1.9647,-1.8173,-1.7238,-1.5713,-1.4239,-1.3811,-1.2593,-1.1342,-1.0907,-1.0697,-1.0574,-1.0709,-1.1161,-1.1459,-1.1624,-1.1896,-1.1975,-1.1508,-1.0724,-1.0069,-0.9753,-0.8979,-0.8587,-0.9399,-0.998,-1.0775,-1.1845,-1.2506,-1.3108,-1.3561,-1.3964,-1.4439,-1.5146,-1.5868,-1.6854,-1.8126,-1.9173,-2.0023,-2.0661,-2.1022,-2.1416,-2.1988,-2.2083,-2.2553,-2.3503,-2.4077,-2.483,-2.5633,-2.5979,-2.6396,-2.6809,-2.7044,-2.7196,-2.7371,-2.7765,-2.7446,-2.6597,-2.6664,-2.6181,-2.5552,-2.5456,-2.5664,-2.6082,-2.622,-2.6645,-2.7015,0.0,0.0,0.0,0.0,0.0,0.0,0.0,0.0,0.0,0.0,0.0,0.0,0.0,0.0,0.0,0.0,0.0,0.0,0.0,0.0,0.0,0.0,0.0,0.0,0.0,0.0,0.0,0.0,0.0,0.0,0.0,0.0,0.0,0.0,0.0,0.0,0.0,0.0,0.0,0.0,0.0,0.0,0.0,0.0,0.0,0.0,0.0,0.0,0.0,0.0,-1.8441,-1.7734,-1.6534,-1.4902,-1.324,-1.2575,-1.1215,-0.9728,-0.9096,-0.8937,-0.8985,-0.9239,-0.9633,-1.0181,-1.0505,-1.0627,-1.0556,-1.003,-0.9219,-0.8532,-0.8273,-0.7717,-0.7485,-0.8231,-0.881,-0.952,-1.0641,-1.1043,-1.1598,-1.2744,-1.289,-1.3407,-1.4691,-1.5206,-1.6255,-1.7975,-1.9153,-1.9965,-2.0498,-2.1171,-2.1636,-2.1673,-2.197,-2.2511,-2.3327,-2.3683,-2.4304,-2.52,-2.5464,-2.5979,-2.6644,-2.6644,-2.6809,-2.7138,-2.7371,-2.6908,-2.6039,-2.6253,-2.5742,-2.4884,-2.5016,-2.5253,-2.5606,-2.6025,-2.6321,-2.6587,0.0,0.0,0.0,0.0,0.0,0.0,0.0,0.0,0.0,0.0,0.0,0.0,0.0,0.0,0.0,0.0,0.0,0.0,0.0,0.0,0.0,0.0,0.0,0.0,0.0,-1.8455,-1.852,-1.8639,-1.7827,0.0,0.0,0.0,0.0,0.0,0.0,0.0,0.0,0.0,0.0,0.0,0.0,0.0,0.0,0.0,0.0,0.0,0.0,0.0,0.0,0.0,-1.7902,-1.6963,-1.5759,-1.4205,-1.2629,-1.1577,-1.0142,-0.8691,-0.7809,-0.737,-0.7267,-0.7446,-0.8162,-0.8822,-0.8865,-0.9271,-0.948,-0.876,-0.7846,-0.719,-0.7383,-0.6824,-0.668,-0.7591,-0.8118,-0.8533,-0.8814,-0.9446,-0.9985,-1.016,-1.1027,-1.1934,-1.2946,-1.3998,-1.5488,-1.7447,-1.8292,-1.9349,-2.0597,-2.0926,-2.1096,-2.0962,-2.1873,-2.2358,-2.2427,-2.3579,-2.4372,-2.4946,-2.5549,-2.6146,-2.6644,-2.6809,-2.6891,-2.6974,-2.736,-2.6933,-2.6109,-2.624,-2.5866,-2.5133,-2.5147,-2.5182,-2.5382,-2.5828,-2.5878,-2.5753,0.0,0.0,0.0,0.0,0.0,0.0,0.0,0.0,0.0,0.0,0.0,0.0,0.0,0.0,0.0,0.0,0.0,0.0,0.0,0.0,0.0,0.0,0.0,0.0,0.0,-1.7626,-1.7325,-1.6403,0.0,-1.5073,-1.3594,-1.2309,-1.125,-1.0383,-0.9883,-1.0475,-1.1991,0.0,0.0,-2.0532,-2.2933,-2.4829,0.0,0.0,0.0,0.0,0.0,0.0,0.0,0.0,-1.7179,-1.6115,-1.5025,-1.3437,-1.1632,-1.0324,-0.8794,-0.7301,-0.6566,-0.6147,-0.5978,-0.6269,-0.6923,-0.745,-0.7561,-0.7866,-0.7923,-0.7182,-0.6374,-0.5795,-0.5956,-0.5711,-0.5868,-0.676,-0.7407,-0.778,-0.7763,-0.8337,-0.8812,-0.8974,-0.9688,-1.0684,-1.1995,-1.3049,-1.4473,-1.6397,-1.7334,-1.8699,-2.061,-2.0907,-2.0909,-2.0613,-2.152,-2.2067,-2.1988,-2.3199,-2.411,-2.4529,-2.5211,-2.5801,-2.6229,-2.6479,-2.6644,-2.6715,-2.6689,-2.628,-2.5701,-2.5509,-2.5154,-2.4669,-2.48,-2.4969,-2.5158,-2.5465,-2.5656,-2.5692,0.0,0.0,0.0,0.0,0.0,0.0,0.0,0.0,0.0,0.0,0.0,0.0,0.0,0.0,0.0,0.0,0.0,0.0,0.0,0.0,0.0,0.0,0.0,0.0,0.0,0.0,0.0,-1.4268,-1.4046,0.0,0.0,0.0,0.0,0.0,-0.9824,-1.0785,-1.2379,-1.4694,-1.7276,0.0,0.0,-2.3731,0.0,0.0,0.0,0.0,0.0,0.0,0.0,0.0,-1.6338,-1.5168,-1.413,-1.2499,-1.0643,-0.906,-0.7423,-0.6031,-0.5315,-0.5006,-0.4874,-0.5243,-0.5737,-0.6213,-0.6361,-0.6436,-0.6193,-0.5675,-0.4974,-0.4398,-0.4539,-0.4656,-0.4923,-0.5777,-0.6508,-0.6904,-0.6791,-0.7207,-0.7656,-0.8179,-0.87,-0.9737,-1.1473,-1.2392,-1.3595,-1.5348,-1.6573,-1.8249,-2.0348,-2.0645,-2.0606,-2.014,-2.0952,-2.1498,-2.1532,-2.262,-2.3491,-2.411,-2.4786,-2.5295,-2.5812,-2.5979,-2.6146,-2.6362,-2.6065,-2.5688,-2.5273,-2.4932,-2.4585,-2.4276,-2.4391,-2.4611,-2.4945,-2.517,-2.5463,-2.5664,0.0,0.0,0.0,0.0,0.0,0.0,0.0,0.0,0.0,0.0,0.0,0.0,0.0,0.0,0.0,0.0,0.0,0.0,0.0,0.0,0.0,0.0,0.0,0.0,0.0,0.0,0.0,-1.3962,-1.2257,0.0,0.0,0.0,0.0,0.0,0.0,-1.1844,-1.4057,-1.5091,0.0,0.0,0.0,0.0,0.0,0.0,0.0,0.0,0.0,-1.8616,-1.7564,0.0,0.0,-1.387,-1.282,-1.1426,-0.9756,-0.8086,-0.6466,-0.5001,-0.4161,-0.3853,-0.3882,-0.4147,-0.4514,-0.4975,-0.5233,-0.4987,-0.4672,-0.4669,-0.3823,-0.3159,-0.3585,-0.3702,-0.394,-0.4716,-0.5232,-0.5545,-0.5325,-0.5856,-0.6494,-0.726,-0.7938,-0.9204,-1.1389,-1.2157,-1.3163,-1.487,-1.6566,-1.8151,-1.9654,-1.9845,-1.9779,-1.923,-2.0096,-2.0557,-2.0679,-2.175,-2.283,-2.3841,-2.4358,-2.4871,-2.5538,-2.5538,-2.5622,-2.5622,-2.5986,-2.5771,-2.5124,-2.5049,-2.4724,-2.4307,-2.4226,-2.4345,-2.4634,-2.5099,-2.5151,-2.4876,0.0,0.0,0.0,0.0,0.0,0.0,0.0,0.0,0.0,0.0,0.0,0.0,0.0,0.0,0.0,0.0,0.0,0.0,0.0,0.0,0.0,0.0,0.0,0.0,0.0,0.0,-1.3994,-1.2691,-1.1355,0.0,0.0,0.0,0.0,0.0,0.0,-1.2754,-1.4348,-1.5687,0.0,0.0,0.0,0.0,0.0,0.0,0.0,0.0,0.0,0.0,-1.7216,-1.5939,-1.4737,0.0,-1.1621,-1.0237,0.0,-0.7477,-0.5867,-0.4255,-0.3325,-0.295,-0.2913,-0.2876,-0.3327,-0.3682,-0.3728,-0.3667,-0.3446,-0.3095,-0.2608,-0.2222,-0.2542,-0.2698,-0.309,-0.4095,-0.4632,-0.4989,-0.5129,-0.5504,-0.6132,-0.7048,-0.7506,-0.8727,-1.0965,-1.1553,-1.2549,-1.4562,-1.5948,-1.7146,-1.8123,-1.8983,-1.9314,-1.8929,-1.9608,-2.0139,-2.0352,-2.1419,-2.2447,-2.3406,-2.4024,-2.454,-2.4871,-2.5031,-2.52,-2.5348,-2.5247,-2.493,-2.4454,-2.4292,-2.4039,-2.3724,-2.383,-2.397,-2.4189,-2.4539,-2.4637,-2.4625,0.0,0.0,0.0,0.0,0.0,0.0,0.0,0.0,0.0,0.0,0.0,0.0,0.0,0.0,0.0,0.0,0.0,0.0,0.0,0.0,0.0,0.0,0.0,0.0,0.0,0.0,-1.3482,-1.1757,-1.0618,-0.9593,0.0,0.0,-0.9887,-1.0794,0.0,0.0,0.0,0.0,0.0,0.0,0.0,0.0,0.0,0.0,0.0,0.0,0.0,0.0,0.0,0.0,0.0,0.0,0.0,0.0,0.0,0.0,-0.5315,-0.3808,-0.2854,-0.2348,-0.219,-0.2078,-0.2345,-0.2606,-0.2584,-0.2383,-0.2186,-0.1902,-0.1609,-0.1411,-0.1655,-0.1811,-0.2303,-0.3362,-0.3908,-0.4264,-0.4488,-0.4898,-0.5486,-0.6318,-0.7031,-0.8249,-1.0348,-1.1222,-1.2371,-1.4135,-1.5041,-1.5917,-1.6862,-1.7825,-1.8466,-1.8584,-1.8961,-1.9428,-1.9835,-2.0902,-2.1826,-2.2601,-2.3391,-2.3902,-2.4186,-2.4385,-2.4577,-2.4724,-2.4502,-2.4264,-2.3945,-2.3697,-2.3525,-2.3348,-2.3427,-2.3604,-2.3824,-2.4116,-2.4273,-2.4432,0.0,0.0,0.0,0.0,0.0,0.0,0.0,0.0,0.0,0.0,0.0,0.0,0.0,0.0,0.0,0.0,0.0,0.0,0.0,0.0,0.0,0.0,0.0,0.0,0.0,0.0,-1.2562,-1.1417,-0.9978,-0.9212,-0.9012,-0.962,-1.053,-1.1762,0.0,0.0,0.0,0.0,0.0,0.0,0.0,0.0,0.0,0.0,0.0,0.0,0.0,0.0,0.0,0.0,0.0,0.0,0.0,0.0,0.0,0.0,-0.4727,-0.3786,-0.287,-0.2256,-0.1917,-0.1857,-0.1741,-0.1629,-0.1853,-0.1255,-0.0853,-0.13,-0.0832,-0.0457,-0.0963,-0.1238,-0.1679,-0.2451,-0.2821,-0.3035,-0.3038,-0.3798,-0.451,-0.4878,-0.6276,-0.7847,-0.9625,-1.1271,-1.2662,-1.3454,-1.3993,-1.473,-1.6087,-1.6286,-1.6903,-1.804,-1.7965,-1.8288,-1.9046,-1.9808,-2.0629,-2.1549,-2.2169,-2.283,-2.3484,-2.3473,-2.3533,-2.3533,-2.4033,-2.3937,-2.3465,-2.3463,-2.3414,-2.3371,-2.3337,-2.3457,-2.3677,-2.4043,-2.42,-2.42,0.0,0.0,0.0,0.0,0.0,0.0,0.0,0.0,0.0,0.0,0.0,0.0,0.0,0.0,0.0,0.0,0.0,0.0,0.0,0.0,0.0,0.0,0.0,0.0,0.0,0.0,-1.2845,-1.1727,-1.0862,-1.0374,-1.0399,-1.1362,-1.2784,-1.4621,-1.5556,-1.6759,0.0,0.0,0.0,0.0,0.0,0.0,-2.0482,0.0,0.0,0.0,0.0,0.0,0.0,0.0,0.0,0.0,0.0,0.0,0.0,0.0,0.0,-0.3219,-0.192,-0.1356,-0.1072,-0.0686,-0.0387,-0.0095,0.0,0.0383,0.0571,0.0378,0.056,0.0553,-0.0182,-0.0361,-0.0807,-0.1886,-0.2292,-0.272,-0.3342,-0.4053,-0.4899,-0.5906,-0.8016,-0.9585,-1.0035,-1.1333,-1.2243,-1.2417,-1.3182,-1.4084,-1.4993,-1.549,-1.6229,-1.7243,-1.7564,-1.7936,-1.853,-1.9374,-2.0134,-2.0893,-2.139,-2.1878,-2.2434,-2.2666,-2.2922,-2.3094,-2.34,-2.3258,-2.2777,-2.2788,-2.2692,-2.2539,-2.2757,-2.2927,-2.3075,-2.3604,-2.3666,-2.3677,0.0,0.0,0.0,0.0,0.0,0.0,0.0,0.0,0.0,0.0,0.0,0.0,0.0,0.0,0.0,0.0,0.0,0.0,0.0,0.0,0.0,0.0,0.0,0.0,0.0,-1.4306,-1.3145,-1.2166,-1.163,-1.1481,-1.18,-1.3049,-1.4601,-1.6296,-1.7101,-1.8099,0.0,0.0,0.0,0.0,0.0,0.0,-1.9929,0.0,0.0,0.0,0.0,0.0,0.0,0.0,0.0,0.0,0.0,0.0,0.0,0.0,-0.3655,-0.2608,0.0,-0.0785,-0.0393,0.0198,0.0489,0.0869,0.1264,0.1461,0.1555,0.1544,0.1423,0.1123,0.0561,0.0183,-0.0271,-0.1199,-0.1709,-0.2219,-0.3007,-0.3821,-0.4965,-0.6688,-0.8605,-0.9836,-1.0154,-1.1044,-1.1658,-1.1882,-1.2619,-1.3468,-1.4263,-1.4846,-1.5489,-1.6285,-1.6972,-1.7473,-1.7805,-1.8768,-1.9457,-1.9883,-2.0458,-2.0948,-2.1441,-2.187,-2.2195,-2.2382,-2.2655,-2.2604,0.0,-2.2309,-2.222,-2.2101,-2.2478,-2.2553,-2.2628,-2.3075,-2.315,-2.315,0.0,0.0,0.0,0.0,0.0,0.0,0.0,0.0,0.0,0.0,0.0,0.0,0.0,0.0,0.0,0.0,0.0,0.0,0.0,0.0,0.0,0.0,0.0,0.0,0.0,-1.428,-1.341,-1.2681,-1.236,-1.2565,-1.3205,-1.4697,-1.5924,-1.7105,-1.8256,-1.9076,0.0,0.0,0.0,0.0,0.0,0.0,0.0,0.0,0.0,0.0,0.0,0.0,0.0,0.0,0.0,0.0,0.0,0.0,0.0,0.0,0.0,0.0,0.0,-0.0492,0.0198,0.0704,0.1097,0.1483,0.2009,0.0,0.0,0.207,0.184,0.1625,0.1242,0.0648,-0.0091,-0.0556,-0.1096,-0.1532,-0.2163,-0.3202,-0.4782,-0.7202,-0.8193,-0.8985,-0.9939,-1.0556,-1.1101,-1.1618,-1.2272,-1.296,-1.3646,-1.4321,-1.4901,-1.5311,-1.6147,-1.673,-1.7057,-1.8044,-1.8545,-1.8545,-1.947,-2.0081,-2.0522,-2.0981,-2.1281,-2.1501,-2.1928,-2.1998,-2.1807,-2.1949,-2.2025,-2.2101,-2.2327,-2.2402,-2.2402,-2.2628,-2.2703,-2.2703,0.0,0.0,0.0,0.0,0.0,0.0,0.0,0.0,0.0,0.0,0.0,0.0,0.0,0.0,0.0,0.0,0.0,0.0,0.0,0.0,0.0,0.0,0.0,0.0,0.0,-1.4205,-1.3586,-1.3434,-1.3497,-1.3691,-1.4129,-1.5982,-1.736,-1.8359,-1.9166,-1.9511,0.0,0.0,0.0,0.0,0.0,0.0,0.0,0.0,0.0,0.0,-1.5165,-1.3851,0.0,0.0,0.0,0.0,0.0,0.0,0.0,0.0,-0.2602,-0.1503,-0.0301,0.0,0.0703,0.1312,0.2114,0.281,0.0,0.0,0.0,0.0,0.0,0.0,0.0,0.0,0.0568,-0.029,-0.0667,-0.1222,-0.207,-0.3863,-0.5739,-0.7346,-0.8366,-0.8997,-0.9202,-1.0063,-1.0761,-1.0829,-1.2015,-1.2875,-1.3222,-1.4062,-1.4559,-1.4643,-1.5484,-1.6229,-1.6812,-1.7711,-1.8168,-1.8168,-1.8896,-1.9343,-1.9604,-2.023,-2.0636,-2.082,-2.1064,-2.1283,-2.1359,-2.1359,-2.1502,-2.1655,-2.2035,-2.2176,-2.2176,-2.2553,-2.2628,-2.2553,0.0,0.0,0.0,0.0,0.0,0.0,0.0,0.0,0.0,0.0,0.0,0.0,0.0,0.0,0.0,0.0,0.0,0.0,0.0,0.0,0.0,0.0,0.0,0.0,-1.4893,-1.4033,-1.3632,-1.3756,-1.3942,-1.4573,-1.5641,-1.7082,-1.8512,-1.9935,-2.05,0.0,0.0,0.0,0.0,0.0,-2.0711,0.0,0.0,0.0,0.0,0.0,-1.4636,-1.3197,0.0,-1.0577,-0.9143,-0.7904,0.0,0.0,0.0,0.0,-0.2191,-0.1198,0.0101,0.0813,0.1329,0.2046,0.2863,0.3576,0.4084,0.0,0.0,0.0,0.0,0.0,0.0,0.0,0.096,0.0098,-0.0383,-0.1226,-0.276,-0.4377,-0.5976,-0.7301,-0.8094,-0.871,-0.9019,-0.9844,-1.0445,-1.0564,-1.1843,-1.2705,-1.3058,-1.3815,-1.4321,-1.4398,-1.5235,-1.5899,-1.6229,-1.7131,-1.7627,-1.7716,-1.8282,-1.8674,-1.9002,-1.962,-2.0,-2.0264,-2.0653,-2.086,-2.1041,-2.1128,-2.1359,-2.1512,-2.1731,-2.1883,-2.1949,-2.2176,-2.2252,-2.2327,0.0,0.0,0.0,0.0,0.0,0.0,0.0,0.0,0.0,0.0,0.0,0.0,0.0,0.0,0.0,0.0,0.0,0.0,0.0,0.0,0.0,0.0,0.0,-1.4635,-1.4212,-1.3739,-1.3541,-1.3807,-1.4222,-1.538,-1.7162,-1.8266,-1.9709,-2.1316,-2.1599,-2.124,0.0,0.0,-2.0534,-2.0661,-2.0523,0.0,0.0,0.0,0.0,0.0,0.0,0.0,0.0,-1.0042,-0.8742,-0.7425,-0.6531,0.0,0.0,0.0,0.0,0.0,0.02,0.1225,0.2072,0.2792,0.3526,0.4159,0.4872,0.0,0.0,0.0,0.0,0.0,0.0,0.1967,0.1161,0.0492,-0.0287,-0.1596,-0.3528,-0.4683,-0.581,-0.691,-0.7684,-0.8299,-0.8828,-0.9544,-1.0233,-1.0477,-1.1585,-1.2534,-1.3052,-1.3652,-1.4075,-1.4314,-1.5151,-1.565,-1.565,-1.664,-1.7221,-1.74,-1.7878,-1.8282,-1.87,-1.9073,-1.9469,-1.9863,-2.0333,-2.0634,-2.0867,-2.1051,-2.1282,-2.1436,-2.1512,-2.1578,-2.1731,-2.1807,-2.1883,-2.2025,0.0,0.0,0.0,0.0,0.0,0.0,0.0,0.0,0.0,0.0,0.0,0.0,0.0,0.0,0.0,0.0,0.0,0.0,0.0,0.0,0.0,0.0,-1.5126,-1.4458,-1.3821,-1.3187,-1.3121,-1.3702,-1.5293,-1.6475,-1.7339,-1.9934,-2.1369,-2.1674,-2.132,-2.0724,-1.9951,-1.9849,-2.0155,-2.0717,-2.0072,0.0,0.0,0.0,0.0,0.0,0.0,0.0,0.0,-0.9305,-0.785,-0.6471,-0.5393,0.0,0.0,0.0,0.0,0.0,0.0785,0.192,0.2786,0.2849,0.394,0.5067,0.5302,0.0,0.0,0.0,0.0,0.0,0.0,0.2312,0.1504,0.0603,-0.079,-0.2142,-0.3509,-0.4485,-0.5503,-0.642,-0.7118,-0.7712,-0.8063,-0.8882,-0.9639,-1.0038,-1.116,-1.2106,-1.2705,-1.3222,-1.3737,-1.4166,-1.4838,-1.5242,-1.5477,-1.6722,-1.7392,-1.74,-1.804,-1.8362,-1.8442,-1.8843,-1.9152,-1.9381,-1.9863,-2.0177,-2.042,-2.0819,-2.0984,-2.1061,-2.1359,-2.1512,-2.1589,-2.1731,-2.1807,-2.1883,0.0,0.0,0.0,0.0,0.0,0.0,0.0,0.0,0.0,0.0,0.0,0.0,0.0,0.0,0.0,0.0,0.0,0.0,0.0,0.0,0.0,0.0,-1.449,-1.3965,-1.3504,-1.2947,-1.3232,-1.4359,-1.5359,-1.6728,-1.8397,-2.0643,-2.1576,-2.1409,-2.1061,-2.0559,-1.9899,-1.9719,-1.995,-2.0418,0.0,0.0,0.0,0.0,0.0,0.0,0.0,0.0,0.0,0.0,-0.7225,-0.5901,-0.4517,0.0,0.0,0.0,0.0,0.0,0.0769,0.1887,0.2746,0.2996,0.425,0.5491,0.5769,0.5819,0.0,0.0,0.0,0.0,0.2893,0.2207,0.141,0.0199,-0.0987,-0.2052,-0.3093,-0.4188,-0.5092,-0.5764,-0.6435,-0.7088,-0.7571,-0.8524,-0.9248,-0.9607,-1.0809,-1.1671,-1.2106,-1.2705,-1.3222,-1.3737,-1.4489,-1.5068,-1.5394,-1.664,-1.731,-1.74,-1.7789,-1.8112,-1.8442,-1.8594,-1.8834,-1.9152,-1.946,-1.9784,-2.0108,-2.043,-2.0664,-2.0906,-2.1128,-2.1205,-2.1359,-2.1436,-2.1512,-2.1425,0.0,0.0,0.0,0.0,0.0,0.0,0.0,0.0,0.0,0.0,0.0,0.0,0.0,0.0,0.0,0.0,0.0,0.0,0.0,0.0,-1.5111,-1.4502,-1.3955,-1.3427,-1.2877,-1.2668,-1.3266,-1.462,-1.5325,-1.6977,-1.9515,-2.093,-2.129,-2.0801,-2.0727,-2.0313,-1.9706,-1.9557,-1.9661,-1.9889,0.0,0.0,0.0,0.0,0.0,0.0,0.0,0.0,0.0,0.0,0.0,0.0,0.0,0.0,0.0,-0.0821,-0.0184,0.0277,0.0942,0.185,0.27,0.3266,0.0,0.564,0.5969,0.6122,0.6037,0.5645,0.478,0.3797,0.3079,0.2099,0.1104,0.0,-0.0886,-0.1765,-0.2694,-0.3788,-0.4582,-0.5186,-0.579,-0.6467,-0.7106,-0.812,-0.879,-0.9191,-1.0351,-1.1219,-1.1594,-1.2242,-1.2875,-1.3392,-1.423,-1.4901,-1.5394,-1.6386,-1.7057,-1.731,-1.7627,-1.7942,-1.8273,-1.8353,-1.8603,-1.8843,-1.9143,-1.946,-1.9784,-2.0108,-2.043,-2.0664,-2.0741,-2.0896,-2.1118,-2.1118,-2.1118,-2.1041,0.0,0.0,0.0,0.0,0.0,0.0,0.0,0.0,0.0,0.0,0.0,0.0,0.0,0.0,0.0,0.0,0.0,0.0,0.0,0.0,-1.4562,-1.4772,-1.38,-1.276,-1.1666,-1.2043,-1.2724,-1.3704,-1.5603,-1.7841,-2.0298,-2.0866,-2.073,-1.9993,-2.0005,-1.9599,-1.9073,-1.9082,-1.9003,-1.8981,-1.8797,0.0,0.0,0.0,0.0,0.0,0.0,0.0,0.0,0.0,0.0,0.0,0.0,0.0,-0.1137,0.0,0.0449,0.0903,0.1845,0.2483,0.3058,0.3809,0.4663,0.5331,0.5861,0.6169,0.6265,0.6052,0.5448,0.4532,0.3436,0.1917,0.0703,0.0394,-0.0498,-0.1502,-0.2355,-0.3132,-0.3917,-0.47,-0.5202,-0.5815,-0.6545,-0.741,-0.8134,-0.8904,-0.9833,-1.0722,-1.1361,-1.2064,-1.2705,-1.3398,-1.4062,-1.4734,-1.5394,-1.6064,-1.664,-1.7139,-1.7708,-1.787,-1.7781,-1.8193,-1.8442,-1.8523,-1.9063,-1.9301,-1.9381,-1.9784,-1.9942,-2.002,-2.0264,-2.0566,-2.0944,-2.0944,-2.0789,-2.0644,0.0,0.0,0.0,0.0,0.0,0.0,0.0,0.0,0.0,0.0,0.0,0.0,0.0,0.0,0.0,0.0,0.0,0.0,0.0,0.0,-1.3781,-1.3968,-1.3548,-1.2937,-1.2085,-1.1965,-1.2675,-1.4337,-1.6492,-1.7922,-1.8697,-1.9004,-1.8982,-1.8822,-1.8786,-1.8754,-1.8772,-1.8772,-1.8832,-1.8854,-1.833,-1.805,0.0,0.0,0.0,0.0,0.0,0.0,0.0,0.0,-0.622,-0.4632,-0.3065,-0.1935,-0.094,0.0087,0.0791,0.1237,0.1805,0.2432,0.3185,0.3597,0.4272,0.0,0.0,0.6165,0.625,0.5768,0.5203,0.4311,0.2694,0.1787,0.1085,0.029,-0.049,-0.1178,-0.1902,-0.2771,-0.3436,-0.3912,-0.4627,-0.5418,-0.6251,-0.7004,-0.7756,-0.8373,-0.9251,-0.9947,-1.0532,-1.1018,-1.1728,-1.2468,-1.3027,-1.3838,-1.5175,-1.5663,-1.6257,-1.6894,-1.7383,-1.7554,-1.7546,-1.7716,-1.7878,-1.8201,-1.8353,-1.8754,-1.9152,-1.9311,-1.9478,-1.9715,-1.9951,-2.0098,-2.0098,-2.0098,-2.002,-1.9951,0.0,0.0,0.0,0.0,0.0,0.0,0.0,0.0,0.0,0.0,0.0,0.0,0.0,0.0,0.0,0.0,0.0,0.0,0.0,-1.2955,-1.3259,-1.3593,-1.3371,-1.3063,-1.2642,-1.2219,-1.2901,-1.4736,-1.6757,-1.7632,-1.7282,-1.7594,-1.7654,-1.7683,-1.794,-1.8121,-1.8362,-1.862,-1.86,-1.8499,-1.7904,-1.7552,0.0,0.0,0.0,0.0,0.0,0.0,0.0,0.0,-0.6225,-0.4571,-0.2997,-0.1725,-0.0668,0.0256,0.095,0.1656,0.2036,0.2564,0.3209,0.3586,0.0,0.0,0.5658,0.6039,0.6155,0.5601,0.4824,0.3841,0.2366,0.1857,0.1259,0.0382,-0.0193,-0.0771,-0.1501,-0.2256,-0.2897,-0.3453,-0.4168,-0.4864,-0.5766,-0.6506,-0.7165,-0.7788,-0.8717,-0.9304,-0.9732,-1.0358,-1.1042,-1.168,-1.2387,-1.3353,-1.4612,-1.5162,-1.5761,-1.6332,-1.6685,-1.7041,-1.731,-1.7392,-1.7554,-1.7797,-1.787,-1.8193,-1.8674,-1.8763,-1.9002,-1.9329,-1.9557,-1.9548,-1.9399,-1.9399,-1.9399,-1.9399,0.0,0.0,0.0,0.0,0.0,0.0,0.0,0.0,0.0,0.0,0.0,0.0,0.0,0.0,0.0,0.0,0.0,0.0,0.0,-1.2356,-1.3008,-1.3752,-1.3295,-1.3046,-1.322,-1.2837,-1.3248,-1.4579,-1.6277,-1.684,-1.6324,-1.694,-1.6988,-1.6547,-1.7548,-1.787,-1.7772,-1.8442,-1.8282,-1.77,-1.7294,-1.6804,-1.6312,0.0,0.0,0.0,0.0,0.0,0.0,0.0,-0.6401,-0.4714,-0.3062,0.0,-0.0408,0.0417,0.1195,0.1911,0.2608,0.2868,0.3141,0.3878,0.0,0.0,0.5291,0.5765,0.5969,0.577,0.4526,0.3237,0.2549,0.1931,0.1335,0.0858,0.0381,-0.0286,-0.1048,-0.1499,-0.2127,-0.3142,-0.3739,-0.442,-0.5112,-0.5936,-0.6627,-0.7046,-0.8081,-0.8837,-0.9118,-1.0108,-1.0875,-1.1278,-1.2301,-1.318,-1.3902,-1.4684,-1.5227,-1.5397,-1.5747,-1.6324,-1.7131,-1.731,-1.7392,-1.7392,-1.7619,-1.7781,-1.804,-1.8282,-1.8523,-1.87,-1.8922,-1.9002,-1.9002,-1.9002,-1.9002,-1.8922,0.0,0.0,0.0,0.0,0.0,0.0,0.0,0.0,0.0,0.0,0.0,0.0,0.0,0.0,0.0,0.0,0.0,0.0,0.0,-1.1905,-1.2535,-1.3208,-1.3064,-1.3252,-1.3821,-1.378,-1.4013,-1.4394,-1.5337,-1.5887,-1.5939,-1.5979,-1.6183,-1.6555,-1.7146,-1.7476,-1.7567,-1.7831,-1.7861,-1.7619,-1.6886,-1.6402,-1.6079,0.0,0.0,0.0,0.0,0.0,0.0,0.0,0.0,0.0,-0.3412,0.0,-0.1035,0.0163,0.0907,0.1664,0.2538,0.3069,0.3529,0.3891,0.4428,0.4998,0.5546,0.5649,0.552,0.5278,0.4357,0.3448,0.2641,0.2086,0.1512,0.0826,0.0277,-0.0186,-0.0733,-0.1346,-0.1948,-0.2569,-0.3368,-0.4071,-0.4746,-0.5556,-0.6276,-0.7038,-0.7604,-0.8164,-0.8803,-0.9406,-1.006,-1.0894,-1.1499,-1.2431,-1.3732,-1.4099,-1.4599,-1.5157,-1.5668,-1.6038,-1.6228,-1.639,-1.6656,-1.6894,-1.7139,-1.7456,-1.7781,-1.8193,-1.8442,-1.8523,-1.8692,-1.8612,-1.8362,-1.8523,-1.8353,-1.8103,0.0,0.0,0.0,0.0,0.0,0.0,0.0,0.0,0.0,0.0,0.0,0.0,0.0,0.0,0.0,0.0,0.0,0.0,0.0,0.0,-1.1951,-1.2742,-1.2883,-1.3241,-1.3857,-1.4007,-1.4097,-1.4124,-1.4706,-1.5162,-1.5372,-1.5447,-1.5731,-1.618,-1.6765,-1.7042,-1.7175,-1.7318,-1.7347,-1.7161,-1.6443,-1.6039,-1.5741,0.0,0.0,0.0,0.0,0.0,0.0,0.0,0.0,0.0,0.0,0.0,-0.1415,-0.032,0.0646,0.1469,0.2341,0.3086,0.3591,0.4064,0.4582,0.5223,0.5887,0.5913,0.5691,0.5239,0.4633,0.3939,0.3057,0.2583,0.1917,0.0978,0.0622,0.0178,-0.0614,-0.1125,-0.163,-0.2317,-0.3026,-0.3729,-0.4311,-0.5106,-0.5909,-0.6541,-0.708,-0.7714,-0.8551,-0.9013,-0.9695,-1.0513,-1.126,-1.2162,-1.3255,-1.3762,-1.4238,-1.4675,-1.5173,-1.5334,-1.5321,-1.5873,-1.6245,-1.6566,-1.6976,-1.7212,-1.7456,-1.787,-1.804,-1.804,-1.8201,-1.804,-1.7797,-1.8031,-1.7942,-1.7781,0.0,0.0,0.0,0.0,0.0,0.0,0.0,0.0,0.0,0.0,0.0,0.0,0.0,0.0,0.0,0.0,0.0,0.0,0.0,0.0,-1.1375,-1.2409,-1.2687,-1.3061,-1.3506,-1.3589,-1.3695,-1.377,-1.4279,-1.4616,-1.4793,-1.5378,-1.5605,-1.5666,-1.6423,-1.6685,-1.6548,-1.68,-1.6706,-1.6412,-1.6015,-1.5551,-1.5223,-1.4476,0.0,0.0,0.0,0.0,0.0,0.0,0.0,0.0,-0.4166,-0.2826,-0.1568,-0.0785,0.0239,0.1383,0.2243,0.2929,0.3533,0.4291,0.4731,0.5364,0.6388,0.6599,0.6312,0.5758,0.5208,0.4497,0.3585,0.3117,0.2426,0.1386,0.1108,0.0674,-0.0421,-0.0841,-0.1343,-0.218,-0.2791,-0.3318,-0.3804,-0.4678,-0.5398,-0.5864,-0.6637,-0.7488,-0.8327,-0.8937,-0.9539,-1.0185,-1.1397,-1.2211,-1.2558,-1.3535,-1.4057,-1.3992,-1.4401,-1.4501,-1.4358,-1.5493,-1.6131,-1.6394,-1.6886,-1.7057,-1.7139,-1.731,-1.7392,-1.7392,-1.7538,-1.7546,-1.7392,-1.7538,-1.7619,-1.7619,0.0,0.0,0.0,0.0,0.0,0.0,0.0,0.0,0.0,0.0,0.0,0.0,0.0,0.0,0.0,0.0,0.0,0.0,0.0,0.0,-1.0994,-1.1819,-1.2796,-1.3393,-1.3531,-1.3353,-1.346,-1.3829,-1.3894,-1.4245,-1.4883,-1.531,-1.5547,-1.5674,-1.6464,-1.6621,-1.6399,-1.6405,-1.6275,-1.6033,-1.5335,-1.4668,-1.4179,-1.3447,-1.2811,0.0,0.0,0.0,0.0,0.0,0.0,0.0,-0.4366,-0.318,-0.2118,-0.0942,-0.0079,0.0712,0.175,0.2583,0.3198,0.387,0.4939,0.5984,0.6983,0.7212,0.7092,0.6403,0.5432,0.4655,0.4132,0.3444,0.2707,0.1947,0.1517,0.0925,0.0168,-0.0332,-0.0983,-0.1718,-0.2405,-0.3082,-0.3553,-0.4321,-0.5165,-0.5864,-0.6405,-0.7253,-0.8327,-0.9003,-0.9526,-1.0087,-1.1371,-1.2118,-1.2257,-1.3216,-1.3564,-1.3419,-1.4044,-1.417,-1.387,-1.475,-1.5583,-1.6394,-1.6476,-1.6722,-1.7139,-1.7139,-1.7139,-1.7139,-1.7221,-1.7057,-1.6894,-1.7131,-1.6968,-1.6722,0.0,0.0,0.0,0.0,0.0,0.0,0.0,0.0,0.0,0.0,0.0,0.0,0.0,0.0,0.0,0.0,0.0,0.0,0.0,0.0,0.0,-1.1717,-1.3031,-1.3588,-1.3157,-1.3099,-1.3035,-1.3193,-1.2921,-1.3308,-1.4421,-1.5079,-1.5355,-1.533,-1.5944,-1.6109,-1.5888,-1.57,-1.5517,-1.536,-1.482,-1.4227,-1.3666,-1.3101,-1.2473,-1.1784,-1.1426,0.0,0.0,0.0,0.0,0.0,0.0,0.0,-0.2586,-0.1413,-0.055,0.0236,0.1352,0.2236,0.3045,0.4208,0.5554,0.6723,0.755,0.7966,0.795,0.7688,0.6532,0.5263,0.4534,0.3775,0.3046,0.2201,0.1693,0.1196,0.0473,0.0,-0.0541,-0.1158,-0.191,-0.2501,-0.3028,-0.3975,-0.4746,-0.5439,-0.6101,-0.6972,-0.8257,-0.8753,-0.9348,-1.022,-1.1361,-1.2096,-1.2374,-1.3114,-1.3419,-1.3346,-1.3667,-1.3679,-1.3618,-1.464,-1.5434,-1.6064,-1.6237,-1.6409,-1.6656,-1.6656,-1.6656,-1.6648,-1.673,-1.6648,-1.6409,-1.6812,-1.673,-1.6648,0.0,0.0,0.0,0.0,0.0,0.0,0.0,0.0,0.0,0.0,0.0,0.0,0.0,0.0,0.0,0.0,0.0,0.0,0.0,0.0,0.0,0.0,-1.314,-1.3546,-1.2883,-1.2713,-1.2614,-1.2438,-1.204,-1.2445,-1.3732,-1.4706,-1.5095,-1.4886,-1.5396,-1.5547,-1.5356,-1.5001,-1.4718,-1.4618,-1.4171,-1.3646,-1.3182,-1.2713,-1.2091,-1.1232,-1.0964,-1.0051,-0.8955,-0.8347,0.0,0.0,0.0,0.0,-0.2896,-0.1953,-0.1015,-0.0157,0.0958,0.1904,0.3071,0.4811,0.6185,0.7297,0.8201,0.8578,0.875,0.891,0.7567,0.6089,0.5157,0.4302,0.3484,0.2563,0.2057,0.1493,0.0804,0.0364,-0.0073,-0.0656,-0.1312,-0.1895,-0.2475,-0.3483,-0.4311,-0.487,-0.5692,-0.6721,-0.8043,-0.8389,-0.914,-1.0224,-1.1198,-1.1938,-1.2298,-1.2956,-1.3288,-1.3346,-1.32,-1.3209,-1.3459,-1.4523,-1.5212,-1.5493,-1.5726,-1.5922,-1.5922,-1.5922,-1.5922,-1.5922,-1.6154,-1.6154,-1.5997,-1.6409,-1.6574,-1.6656,0.0,0.0,0.0,0.0,0.0,0.0,0.0,0.0,0.0,0.0,0.0,0.0,0.0,0.0,0.0,0.0,0.0,0.0,-0.8236,0.0,0.0,-1.1505,-1.2499,-1.3042,-1.2946,-1.2509,-1.2312,-1.2319,-1.2072,-1.2438,-1.328,-1.4082,-1.4759,-1.5242,-1.5591,-1.5545,-1.5083,-1.4731,-1.4339,-1.39,-1.3096,-1.2459,-1.1896,-1.1515,-1.0843,-1.0122,-1.0089,-0.9518,-0.8661,-0.8256,-0.7211,0.0,0.0,0.0,-0.2965,-0.2217,-0.1369,-0.0381,0.0305,0.0,0.3606,0.4948,0.6119,0.7254,0.84,0.8918,0.9226,0.9255,0.7928,0.656,0.6071,0.5243,0.4342,0.3379,0.286,0.2341,0.1678,0.1021,0.0437,-0.0146,-0.0875,-0.1602,-0.211,-0.2921,-0.3726,-0.4432,-0.5165,-0.618,-0.7615,-0.8236,-0.8927,-0.9711,-1.0535,-1.1214,-1.1634,-1.2143,-1.249,-1.2746,-1.2673,-1.2912,-1.3445,-1.3606,-1.4031,-1.477,-1.4871,-1.4992,-1.5257,-1.5257,-1.5257,-1.5249,-1.5484,-1.5477,-1.5567,-1.5997,-1.617,-1.6252,0.0,0.0,0.0,0.0,0.0,0.0,0.0,0.0,0.0,0.0,0.0,0.0,0.0,0.0,0.0,-0.4876,-0.5984,-0.718,-0.8447,-0.962,-1.0579,-1.1162,-1.2269,-1.2643,-1.2255,-1.2186,-1.1963,-1.165,-1.1286,-1.184,0.0,-1.3489,-1.4138,-1.5038,-1.5001,-1.4977,-1.4836,-1.4305,-1.3836,-1.3404,-1.2746,-1.2041,-1.1438,-1.1069,-1.0461,-0.9828,-0.9674,-0.9082,-0.8242,-0.7612,-0.6792,-0.5871,-0.4765,0.0,0.0,0.0,-0.1546,-0.0696,0.0849,0.2156,0.3455,0.4828,0.6112,0.7438,0.8784,0.9433,0.9836,1.0117,0.8773,0.7368,0.6607,0.5568,0.4597,0.3978,0.334,0.2759,0.2207,0.1598,0.1005,0.0409,-0.0205,-0.0891,-0.146,-0.2401,-0.3184,-0.3827,-0.4856,-0.5951,-0.7203,-0.7933,-0.8695,-0.96,-1.0467,-1.1018,-1.1299,-1.1741,-1.1964,-1.2181,-1.2311,-1.254,-1.2682,-1.2905,-1.3542,-1.4455,-1.4426,-1.4662,-1.4915,-1.4915,-1.4915,-1.4908,-1.4985,-1.5068,-1.5242,-1.5741,-1.5997,-1.617,0.0,0.0,0.0,0.0,0.0,0.0,0.0,0.0,0.0,0.0,0.0,0.0,0.0,0.0,0.0,0.0,-0.6003,-0.727,-0.8722,-0.9579,-1.0325,-1.088,-1.2073,-1.2417,-1.1826,-1.1957,-1.1836,-1.1252,0.0,0.0,-1.3236,-1.3163,-1.3823,-1.4976,-1.4729,-1.4532,-1.4506,-1.3863,-1.3393,-1.2952,-1.2267,-1.1623,-1.1066,-1.0667,-1.0131,-0.9519,-0.9154,-0.8526,-0.7854,-0.7111,-0.6402,-0.5619,-0.458,-0.3958,0.0,0.0,0.0,-0.0534,0.1373,0.242,0.3297,0.4633,0.6029,0.7526,0.8941,0.9666,1.0174,1.0724,0.9555,0.8248,0.7304,0.6075,0.5055,0.4555,0.3936,0.3303,0.2789,0.2216,0.1616,0.1082,0.0513,-0.013,-0.0863,-0.1772,-0.2609,-0.3293,-0.4441,-0.559,-0.6734,-0.7541,-0.8456,-0.9429,-1.0227,-1.081,-1.1018,-1.1433,-1.1702,-1.1914,-1.2149,-1.2201,-1.2176,-1.2557,-1.314,-1.3872,-1.3954,-1.4125,-1.4398,-1.4398,-1.4405,-1.4482,-1.4489,-1.4741,-1.5082,-1.5484,-1.5824,-1.617,0.0,0.0,0.0,0.0,0.0,0.0,0.0,0.0,0.0,0.0,0.0,0.0,-0.2616,-0.3125,-0.3772,-0.4549,-0.5985,-0.74,-0.8716,-0.9626,-1.0257,-1.0685,-1.1768,0.0,-1.2212,-1.2061,-1.1762,0.0,0.0,0.0,-1.3015,-1.3433,-1.4223,-1.5318,-1.513,-1.4703,-1.4059,-1.3461,-1.2973,-1.2439,-1.1441,-1.0836,-1.0421,-0.9899,-0.942,-0.8915,-0.8387,-0.7882,-0.7387,-0.6991,-0.6321,-0.5523,-0.4798,-0.3938,-0.3006,0.0,0.0,0.0,0.141,0.2294,0.3209,0.4445,0.5738,0.7095,0.8584,0.9508,1.0142,1.0704,0.9922,0.9034,0.8679,0.7343,0.6065,0.5376,0.4867,0.4314,0.3625,0.295,0.24,0.1914,0.1266,0.0515,-0.0323,-0.0994,-0.1818,-0.2956,-0.403,-0.51,-0.609,-0.7335,-0.8317,-0.904,-0.9616,-1.0147,-1.0604,-1.1143,-1.1627,-1.2068,-1.2132,-1.2117,-1.2221,-1.238,-1.2618,-1.2725,-1.2978,-1.322,-1.3476,-1.3476,-1.3568,-1.3822,-1.3997,-1.4328,-1.4817,-1.5228,-1.5741,-1.617,0.0,0.0,0.0,0.0,0.0,0.0,0.0,0.0,0.0,0.0,0.0,0.0,0.0,-0.3471,-0.4185,-0.4871,-0.6713,-0.8077,-0.8827,-0.9402,-0.9997,-1.058,-1.1266,-1.1755,-1.2013,-1.1999,-1.1829,0.0,0.0,-1.1817,-1.2613,-1.3141,-1.3765,-1.4568,-1.4607,-1.4321,-1.3936,-1.3267,-1.2574,-1.1933,-1.1072,-1.0564,-1.0326,-0.9639,-0.915,-0.8748,-0.8422,-0.774,-0.6936,-0.6569,-0.5934,-0.5074,-0.4339,-0.3601,-0.2856,-0.1598,-0.0215,0.1004,0.1722,0.2497,0.3403,0.4466,0.5787,0.7233,0.8675,0.9846,1.0629,1.0647,1.0028,0.923,0.8543,0.7527,0.6578,0.6141,0.5584,0.493,0.4107,0.3651,0.3067,0.2262,0.1669,0.1102,0.0375,-0.0514,-0.1427,-0.2421,-0.368,-0.491,-0.6101,-0.7191,-0.8184,-0.9053,-0.9576,-1.0049,-1.0536,-1.0718,-1.1112,-1.1623,-1.1534,-1.1599,-1.1834,-1.1831,-1.1978,-1.223,-1.2312,-1.272,-1.3398,-1.3398,-1.3483,-1.3568,-1.3913,-1.4243,-1.4559,-1.5144,-1.5567,-1.5906,0.0,0.0,0.0,0.0,0.0,0.0,0.0,0.0,0.0,0.0,0.0,0.0,0.0,0.0,-0.4477,-0.5634,-0.7364,-0.8596,-0.9082,-0.9439,-0.991,-1.0431,-1.1027,-1.1505,-1.1939,-1.2011,0.0,0.0,0.0,0.0,0.0,-1.3004,-1.3561,-1.4152,-1.4113,-1.4012,-1.3845,-1.3098,-1.2376,-1.1653,-1.0835,-1.0358,-1.0046,-0.9292,-0.8839,-0.8509,-0.8076,-0.7381,-0.6528,-0.6156,-0.5433,-0.4634,-0.3857,-0.2973,-0.2056,-0.0643,0.0638,0.17,0.2196,0.2936,0.379,0.4748,0.5787,0.7017,0.8744,0.9697,1.0332,1.0552,1.0087,0.942,0.8691,0.7978,0.7287,0.6683,0.6213,0.5573,0.4647,0.419,0.3684,0.2747,0.2266,0.1755,0.0967,0.0062,-0.0943,-0.2034,-0.3378,-0.4724,-0.6069,-0.7085,-0.8179,-0.9304,-0.9621,-1.0016,-1.0513,-1.0513,-1.0775,-1.1278,-1.135,-1.1456,-1.1607,-1.1692,-1.1786,-1.2032,-1.211,-1.2548,-1.3137,-1.3137,-1.3222,-1.3398,-1.3737,-1.4153,-1.4559,-1.4985,-1.5484,-1.5906,0.0,0.0,0.0,0.0,0.0,0.0,0.0,0.0,0.0,-0.2779,0.0,0.0,0.0,0.0,0.0,-0.688,-0.7988,-0.8837,-0.9428,-0.9752,-1.0019,-1.0376,-1.1046,-1.1558,-1.2003,0.0,0.0,0.0,0.0,0.0,0.0,0.0,-1.3669,-1.4137,-1.3881,-1.3812,-1.3845,-1.3048,-1.2312,-1.1623,-1.0695,-1.0042,-0.9442,-0.8948,-0.8519,-0.8026,-0.7464,-0.6824,-0.6138,-0.5742,-0.503,-0.4159,-0.3335,-0.2085,-0.0697,0.0271,0.1276,0.2281,0.0,0.0,0.0,0.5325,0.5732,0.6413,0.8712,0.9089,0.9271,1.0327,1.0086,0.9561,0.918,0.8816,0.821,0.702,0.6599,0.6121,0.5233,0.4751,0.4171,0.3431,0.3061,0.2488,0.1403,0.0784,-0.0245,-0.1898,-0.3068,-0.4347,-0.5923,-0.6957,-0.8226,-0.9759,-0.9718,-0.995,-1.0513,-1.0513,-1.077,-1.1272,-1.1439,-1.1629,-1.1688,-1.1866,-1.1952,-1.2032,-1.2283,-1.2528,-1.2693,-1.2699,-1.296,-1.3392,-1.3398,-1.3893,-1.465,-1.4734,-1.5325,-1.6087,0.0,0.0,0.0,0.0,0.0,0.0,0.0,0.0,-0.307,0.0,0.0,0.0,-0.3061,-0.4024,-0.5466,-0.7343,-0.8032,-0.864,-0.9306,-0.9583,-0.9825,-1.0267,-1.0703,-1.126,-1.2003,0.0,0.0,0.0,0.0,0.0,0.0,0.0,0.0,0.0,-1.3564,-1.3338,-1.314,-1.2426,-1.1757,-1.107,-1.0172,-0.9878,-0.9788,-0.8877,-0.8359,-0.8131,-0.754,-0.6706,-0.5742,-0.5448,-0.4624,-0.3577,-0.2329,-0.1265,-0.0359,0.0629,0.1841,0.3004,0.3403,0.0,0.0,0.0,0.0,0.0,0.777,0.8824,0.969,0.9903,0.9835,0.9599,0.898,0.8803,0.8468,0.7715,0.7387,0.6872,0.6033,0.5433,0.4812,0.3963,0.3316,0.2565,0.1753,0.0817,-0.0353,-0.1727,-0.2996,-0.4267,-0.5581,-0.7188,-0.8525,-0.9561,-0.9603,-0.984,-1.0288,-1.0143,-1.0308,-1.0785,-1.0872,-1.0958,-1.1174,-1.1445,-1.1508,-1.1511,-1.1958,-1.2099,-1.2188,-1.2541,-1.2875,-1.3222,-1.3483,-1.3984,-1.4566,-1.5061,-1.5484,-1.5794,0.0,0.0,0.0,0.0,0.0,0.0,0.0,0.0,-0.3465,0.0,0.0,0.0,-0.3671,-0.4963,-0.6225,-0.7407,-0.8197,-0.8877,-0.9419,-0.9524,-0.9795,-1.0148,-1.0513,-1.1037,-1.1706,-1.184,0.0,0.0,0.0,0.0,0.0,0.0,0.0,0.0,0.0,-1.2652,-1.235,-1.166,-1.1151,-1.0696,-0.9975,-0.9642,-0.9605,-0.8773,-0.8149,-0.7896,-0.7406,-0.6495,-0.5428,-0.5008,-0.4046,-0.2779,-0.1718,-0.0756,0.022,0.1047,0.2396,0.3727,0.0,0.0,0.5321,0.5717,0.0,0.0,0.7898,0.8782,0.9418,0.9681,0.971,0.9581,0.8998,0.8936,0.8821,0.8338,0.804,0.7544,0.6546,0.6021,0.5382,0.4485,0.3732,0.2911,0.206,0.0967,-0.0285,-0.1681,-0.2952,-0.438,-0.6006,-0.7544,-0.866,-0.934,-0.9499,-0.9734,-1.0067,-0.9992,-1.004,-1.0361,-1.0525,-1.068,-1.091,-1.1048,-1.1286,-1.14,-1.1617,-1.1804,-1.1998,-1.223,-1.2679,-1.3215,-1.3439,-1.3961,-1.4566,-1.4977,-1.5313,-1.5695,0.0,0.0,0.0,0.0,0.0,0.0,0.0,0.0,0.0,0.0,-0.3939,-0.4195,-0.4514,-0.5784,-0.6781,-0.7131,-0.8349,-0.9271,-0.9463,-0.9528,-0.9787,-1.0116,-1.038,-1.0738,-1.1335,-1.1781,0.0,0.0,0.0,0.0,0.0,0.0,0.0,0.0,0.0,0.0,-1.1558,-1.0877,-1.0532,-1.0447,-0.9885,-0.9404,-0.9017,-0.8534,-0.7945,-0.7445,-0.7071,-0.6186,-0.5073,-0.44,-0.3262,-0.1919,-0.1356,-0.0309,0.0746,0.1524,0.2883,0.4232,0.4712,0.0,0.0,0.663,0.6712,0.0,0.848,0.8743,0.8923,0.954,0.9665,0.9573,0.9097,0.916,0.9122,0.8741,0.8561,0.8103,0.693,0.6435,0.588,0.5003,0.426,0.3359,0.2279,0.1058,-0.0278,-0.1733,-0.3023,-0.4656,-0.669,-0.7807,-0.866,-0.919,-0.9384,-0.9625,-0.9841,-0.9846,-0.9887,-0.9964,-1.0359,-1.0593,-1.0737,-1.0899,-1.1216,-1.1509,-1.1294,-1.1508,-1.1798,-1.1878,-1.2437,-1.3322,-1.3296,-1.3843,-1.4678,-1.465,-1.5063,-1.5622,-0.816,0.0,0.0,0.0,0.0,0.0,0.0,0.0,-0.4532,-0.4548,-0.4523,-0.4882,-0.5689,-0.6195,-0.6663,-0.7276,-0.8121,-0.8736,-0.8828,-0.9294,-0.9703,-0.9969,-1.0318,-1.0738,-1.1186,-1.1558,-1.1829,-1.1998,0.0,0.0,0.0,0.0,0.0,0.0,0.0,0.0,-1.0992,-1.079,-1.035,-0.9738,-0.9181,-0.8951,-0.8977,-0.8208,-0.7624,-0.7081,-0.6527,-0.5558,-0.4402,-0.3051,-0.2209,-0.1585,-0.0398,0.0386,0.1053,0.2247,0.3187,0.4079,0.499,0.5563,0.5935,0.621,0.6802,0.0,0.7732,0.8603,0.9435,0.9494,0.9572,0.9536,0.9224,0.9047,0.8873,0.8504,0.8488,0.8226,0.744,0.6683,0.6013,0.5489,0.4405,0.3254,0.2161,0.087,-0.0542,-0.2011,-0.3716,-0.518,-0.6271,-0.7361,-0.8266,-0.899,-0.9405,-0.9569,-0.9695,-0.9695,-0.9658,-0.9645,-1.0119,-1.0434,-1.0648,-1.0899,-1.0963,-1.0778,-1.0978,-1.109,-1.1143,-1.145,-1.216,-1.3035,-1.2843,-1.338,-1.4342,-1.4417,-1.4924,-1.5633,-0.8565,0.0,0.0,0.0,0.0,0.0,0.0,0.0,-0.5152,-0.4929,-0.5076,-0.553,-0.6283,-0.6532,-0.6879,-0.735,-0.8124,-0.8659,-0.8748,-0.915,-0.9471,-0.9747,-1.0062,-1.0472,-1.1088,-1.1484,-1.1781,-1.1855,0.0,0.0,0.0,0.0,0.0,0.0,0.0,0.0,-1.0341,-1.0226,-0.9794,-0.9271,-0.8982,-0.8866,-0.8694,-0.7794,-0.7233,-0.6724,-0.6217,-0.5207,-0.3941,-0.2437,-0.1611,-0.1084,-0.0159,0.0701,0.1602,0.2537,0.3353,0.4224,0.519,0.5891,0.6345,0.6675,0.7255,0.0,0.0,0.8728,0.9415,0.9738,0.9707,0.9583,0.9425,0.9098,0.8724,0.8357,0.8152,0.7765,0.7091,0.6677,0.6228,0.5683,0.4348,0.2992,0.1771,0.0324,-0.1227,-0.2882,-0.4279,-0.5363,-0.5924,-0.6948,-0.7904,-0.8855,-0.916,-0.939,-0.962,-0.9504,-0.9461,-0.9493,-0.9989,-1.0316,-1.0321,-1.0646,-1.0762,-1.0619,-1.0567,-1.0678,-1.0865,-1.117,-1.1793,-1.2668,-1.27,-1.3326,-1.4325,-1.4252,-1.471,-1.541,-0.8907,0.0,0.0,0.0,0.0,0.0,0.0,0.0,-0.5647,-0.5414,-0.575,-0.6184,-0.6541,-0.6757,-0.7001,-0.7238,-0.8131,-0.8695,-0.8655,-0.9068,-0.9383,-0.9619,-0.9913,-1.0322,-1.1044,-1.1435,-1.1646,-1.1565,0.0,0.0,0.0,0.0,0.0,-1.0806,0.0,-1.0372,-0.9795,-0.9614,-0.9261,-0.8809,-0.884,-0.8687,-0.8324,-0.753,-0.677,-0.6219,-0.5622,-0.4622,-0.3378,-0.2024,-0.1198,-0.0584,0.016,0.1102,0.209,0.2827,0.3602,0.4413,0.544,0.6219,0.6802,0.721,0.7695,0.8181,0.0,0.0,0.0,0.9862,0.9786,0.9612,0.9468,0.8948,0.8464,0.817,0.7631,0.7072,0.6531,0.6368,0.6068,0.5428,0.4003,0.2594,0.1193,-0.0536,-0.2225,-0.3761,-0.4653,-0.5275,-0.5517,-0.6618,-0.7633,-0.8579,-0.8907,-0.9304,-0.9682,-0.9481,-0.9375,-0.9463,-1.0018,-1.0186,-1.0054,-1.0369,-1.0545,-1.059,-1.0253,-1.0368,-1.0738,-1.0962,-1.1478,-1.222,-1.2549,-1.3253,-1.4146,-1.4016,-1.4418,-1.511,-0.9851,-0.949,0.0,0.0,0.0,0.0,0.0,0.0,-0.6001,-0.6001,-0.656,-0.6887,-0.6645,-0.6899,-0.6906,-0.6551,-0.7563,-0.8177,-0.8123,-0.8993,-0.9666,-0.9727,-1.0203,-1.0559,-1.0808,-1.1253,-1.1408,-1.1254,-1.1006,0.0,0.0,0.0,0.0,-1.0823,-1.0578,-1.0221,-0.9619,-0.9511,-0.9039,-0.8387,-0.834,-0.8266,-0.8099,-0.7343,-0.6623,-0.5763,-0.4103,-0.325,-0.2777,-0.1313,-0.0684,-0.0167,0.1223,0.1755,0.2182,0.3624,0.4122,0.4477,0.5936,0.6487,0.6697,0.7058,0.7747,0.8346,0.819,0.0,0.9778,0.9619,0.0,0.934,0.8945,0.0,0.0,0.7908,0.7092,0.6397,0.6343,0.546,0.4719,0.4477,0.323,0.1887,0.0454,-0.1975,-0.3655,-0.4128,-0.4646,-0.4908,-0.4914,-0.6404,-0.7562,-0.8226,-0.9059,-0.9693,-0.9917,-0.9708,-0.9687,-0.9908,-1.0018,-1.012,-1.0267,-1.0279,-1.0399,-1.059,-1.0106,-1.0143,-1.0513,-1.0738,-1.1286,-1.1997,-1.2016,-1.2629,-1.3475,-1.3365,-1.4035,-1.5157,-0.9761,-0.9835,0.0,0.0,0.0,0.0,0.0,0.0,-0.6611,-0.6611,-0.7042,-0.7145,-0.6846,-0.6965,-0.6929,-0.6744,-0.741,-0.7797,-0.7982,-0.8613,-0.9241,-0.952,-0.9972,-1.0411,-1.0766,-1.1348,-1.1511,-1.1224,-1.0941,0.0,0.0,0.0,0.0,-1.0077,-1.0157,-0.9634,-0.8765,-0.879,-0.8467,-0.8013,-0.7818,-0.77,-0.7506,-0.6731,-0.5729,-0.4589,-0.3307,-0.2625,-0.2145,-0.105,-0.0173,0.0596,0.1478,0.2178,0.2858,0.3743,0.4302,0.4787,0.5806,0.646,0.6992,0.7286,0.7897,0.8474,0.8472,0.8897,0.9281,0.944,0.0,0.0,0.0,0.0,0.0,0.0,0.6498,0.5792,0.5374,0.4252,0.3605,0.3844,0.2551,0.0692,-0.1692,-0.352,-0.4545,-0.4446,-0.4707,-0.4789,-0.4607,-0.5947,-0.7086,-0.8018,-0.8714,-0.9204,-0.9612,-0.9579,-0.9582,-0.9609,-0.9974,-1.0131,-1.0079,-1.0374,-1.0445,-1.0373,-1.0268,-1.0443,-1.0663,-1.0887,-1.1274,-1.1729,-1.1896,-1.2552,-1.3334,-1.3209,-1.3851,-1.4858,-0.959,0.0,0.0,0.0,0.0,0.0,0.0,-0.7421,-0.7219,-0.7091,-0.7251,-0.7351,-0.7079,-0.6936,-0.6889,-0.671,-0.714,-0.748,-0.772,-0.8308,-0.8841,-0.9197,-0.9686,-1.0259,-1.0662,-1.1322,-1.1404,-1.101,-1.0774,0.0,0.0,0.0,0.0,0.0,-0.949,-0.898,-0.8025,-0.8021,-0.7812,-0.7542,-0.7126,-0.6861,-0.6538,-0.594,-0.4852,-0.3605,-0.2776,-0.209,-0.1522,-0.0705,0.0262,0.1209,0.1756,0.246,0.3304,0.4048,0.4523,0.5061,0.5844,0.66,0.7163,0.7374,0.7855,0.8286,0.8409,0.8629,0.8842,0.9163,0.8958,0.0,0.0,0.0,0.7227,0.6761,0.0,0.5173,0.4565,0.3243,0.2485,0.2817,0.112,-0.1166,-0.3934,-0.4942,-0.5271,-0.4957,-0.5013,-0.4928,-0.4599,-0.5698,-0.6801,-0.7806,-0.8543,-0.9101,-0.9412,-0.963,-0.9662,-0.9508,-1.0007,-1.0121,-0.9948,-1.029,-1.0395,-1.0218,-1.0443,-1.0588,-1.0738,-1.0962,-1.1232,-1.1395,-1.1864,-1.2432,-1.3044,-1.3131,-1.3689,-1.4419,-0.9542,-0.992,0.0,-0.965,-0.9409,-0.886,-0.7454,-0.7461,-0.7591,-0.7203,-0.7365,-0.7466,-0.7191,-0.6924,-0.6577,-0.6025,-0.6633,-0.7104,-0.7209,-0.8217,-0.8781,-0.8779,-0.965,-1.0194,-1.0292,-1.0812,-1.0971,-1.0622,-1.0227,0.0,0.0,0.0,0.0,0.0,-0.8677,-0.8295,-0.7676,-0.7476,-0.7057,-0.6625,-0.6338,-0.5723,-0.4893,-0.4821,-0.412,-0.3034,-0.2461,-0.1705,-0.0987,0.0,0.0795,0.1477,0.2343,0.2946,0.3406,0.4691,0.501,0.5277,0.6499,0.6856,0.6958,0.7053,0.7308,0.7512,0.7537,0.8109,0.862,0.8764,0.8836,0.882,0.8523,0.7714,0.7019,0.6742,0.5538,0.0,0.0,0.2573,0.1313,0.1037,-0.151,-0.3999,-0.5824,-0.6125,-0.6103,-0.5862,-0.5731,-0.5391,-0.4737,-0.6032,-0.7015,-0.758,-0.8983,-0.964,-0.9718,-1.0108,-1.0146,-0.9979,-0.9915,-0.988,-0.9943,-1.0106,-1.0229,-1.0218,-1.0443,-1.0513,-1.0519,-1.0962,-1.1117,-1.1198,-1.1787,-1.2157,-1.2385,-1.2753,-1.34,-1.4057,-0.9422,0.0,-0.9742,-0.9697,-0.9297,-0.8713,-0.7735,-0.7657,-0.7574,-0.7055,-0.7154,-0.7171,-0.6747,-0.6688,-0.6578,-0.6133,-0.6496,-0.6815,-0.723,-0.7693,-0.8079,-0.8567,-0.9165,-0.9553,-0.9909,-1.0624,-1.0842,-1.0554,-1.0159,-0.9571,0.0,0.0,0.0,0.0,-0.8435,-0.7966,-0.7238,-0.694,-0.6554,-0.6151,-0.5835,-0.5145,-0.4219,-0.399,-0.3352,-0.2563,-0.1942,-0.118,-0.0269,0.0269,0.0982,0.1766,0.2404,0.3114,0.3798,0.4639,0.5196,0.5752,0.636,0.6877,0.7284,0.7118,0.7259,0.7421,0.7316,0.776,0.8045,0.7731,0.7887,0.7902,0.7148,0.6653,0.6149,0.5482,0.4659,0.3739,0.0,0.024,-0.2064,-0.3591,-0.4554,-0.5548,-0.6925,-0.7594,-0.7687,-0.6923,-0.6688,-0.6165,-0.5215,-0.5923,-0.6881,-0.7961,-0.8694,-0.9416,-1.011,-1.0046,-1.0009,-0.9932,-1.0078,-1.0111,-1.0106,-1.0477,-1.0594,-1.0588,-1.0812,-1.0812,-1.0738,-1.0962,-1.1037,-1.0962,-1.1558,-1.1855,-1.2003,-1.2673,-1.3264,-1.3793,-0.9115,-0.9139,-0.9219,-0.9343,-0.8915,-0.832,-0.7727,-0.7673,-0.7462,-0.6901,-0.6997,-0.7012,-0.6577,-0.6684,-0.6569,-0.6054,-0.6353,-0.6591,-0.699,-0.7267,-0.7608,-0.8082,-0.8501,-0.8939,-0.9246,-1.0129,-1.0377,-0.9989,-0.9786,-0.9258,0.0,0.0,0.0,0.0,-0.7951,-0.7457,-0.669,-0.6371,-0.6059,-0.5637,-0.531,-0.4583,-0.3627,-0.3286,-0.273,-0.1996,-0.1491,-0.0639,0.0179,0.0628,0.1345,0.214,0.2582,0.33,0.4006,0.4576,0.5199,0.5755,0.6214,0.6799,0.7296,0.7132,0.7305,0.7409,0.7203,0.7497,0.7745,0.7362,0.7458,0.7435,0.6954,0.6354,0.5642,0.4779,0.3835,0.2544,0.0,-0.2092,-0.4577,-0.6592,-0.6683,-0.7022,-0.8155,-0.8906,-0.8853,-0.7705,-0.7463,-0.6802,-0.5571,-0.6176,-0.6993,-0.8084,-0.8774,-0.9498,-1.0188,-1.0198,-1.0198,-1.004,-1.0257,-1.0343,-1.0351,-1.0634,-1.0738,-1.0738,-1.0962,-1.0962,-1.0812,-1.1037,-1.1037,-1.0962,-1.1409,-1.1558,-1.1706,-1.2599,-1.3127,-1.366,-0.8639,-0.8685,-0.8554,-0.8836,-0.8384,-0.7922,-0.7526,-0.7341,-0.7097,-0.7004,-0.6916,-0.6632,-0.6451,-0.6566,-0.6323,-0.567,-0.6104,-0.6476,-0.6642,-0.698,-0.7285,-0.7407,-0.7864,-0.8236,-0.8396,-0.9246,-0.9453,-0.9042,-0.9114,-0.8661,0.0,0.0,0.0,0.0,-0.7175,-0.6728,-0.6082,-0.5735,-0.5437,-0.5133,-0.4834,-0.4133,-0.313,-0.252,-0.2068,-0.1522,-0.0933,-0.0274,0.0538,0.1166,0.1883,0.259,0.2969,0.3502,0.4095,0.4651,0.5023,0.5446,0.6139,0.6572,0.6937,0.718,0.7378,0.7486,0.7065,0.7369,0.7705,0.7637,0.7439,0.7394,0.7728,0.6602,0.5367,0.4573,0.3069,0.0901,-0.2105,-0.4253,-0.6145,-0.786,-0.8037,-0.8501,-0.9685,-1.0044,-0.9582,-0.82,-0.8166,-0.7418,-0.5741,-0.674,-0.7522,-0.7949,-0.9286,-1.0027,-1.0037,-1.0584,-1.0656,-1.0328,-1.0475,-1.0574,-1.0573,-1.0709,-1.0663,-1.0513,-1.0962,-1.0962,-1.0812,-1.1037,-1.1111,-1.1111,-1.1335,-1.1409,-1.1558,-1.2526,-1.3119,-1.3587,-0.7596,-0.7641,-0.7784,-0.7887,-0.8038,-0.7922,-0.7254,-0.7339,-0.7394,-0.683,-0.6397,-0.6256,-0.6141,-0.5915,-0.5672,-0.5293,-0.565,-0.5948,-0.6139,-0.6297,-0.657,-0.682,-0.7057,-0.7379,-0.777,-0.8464,-0.8904,-0.9312,-0.8789,-0.8496,-0.8325,0.0,0.0,0.0,-0.6534,-0.6103,-0.5566,-0.5127,-0.4664,-0.4152,-0.3812,-0.333,-0.2821,-0.2088,-0.1461,-0.0953,-0.0379,0.0277,0.0987,0.1256,0.1954,0.2708,0.2905,0.3505,0.4236,0.477,0.5344,0.5832,0.6368,0.6722,0.6966,0.7146,0.7098,0.6943,0.6903,0.7242,0.7436,0.6973,0.6949,0.6755,0.601,0.5012,0.386,0.2656,0.0375,-0.1946,-0.3984,-0.5694,-0.7576,-0.9933,-1.0845,-1.1226,-1.1108,-1.1966,-1.1699,-0.9718,-0.9952,-0.9215,-0.6929,-0.731,-0.7882,-0.853,-0.915,-0.9874,-1.0673,-1.0636,-1.0616,-1.0686,-1.0547,-1.0628,-1.0767,-1.0773,-1.0887,-1.0962,-1.1037,-1.0962,-1.0812,-1.1037,-1.1037,-1.0887,-1.126,-1.1558,-1.1929,-1.2305,-1.2599,-1.2949,-0.7025,-0.7015,-0.7123,-0.7257,-0.7293,-0.7321,-0.6781,-0.7097,-0.6996,-0.6449,-0.6143,-0.5983,-0.5849,-0.5539,-0.532,-0.491,-0.5285,-0.5472,-0.5681,-0.5622,-0.5796,-0.6182,-0.6318,-0.6555,-0.7118,-0.7645,-0.8157,-0.8561,-0.8261,-0.8049,-0.7822,0.0,0.0,0.0,-0.6115,-0.575,-0.5382,-0.4835,-0.4216,-0.3535,-0.3306,-0.2928,0.0,-0.1682,-0.1164,-0.0667,0.0,0.0555,0.0987,0.1525,0.2123,0.2598,0.3048,0.3557,0.4118,0.457,0.5162,0.5767,0.6149,0.6611,0.6949,0.7119,0.7126,0.6997,0.6953,0.7096,0.7125,0.6823,0.654,0.6139,0.5553,0.4248,0.2544,0.0544,-0.1579,-0.3598,-0.5311,-0.6964,-0.8788,-1.1009,-1.2367,-1.3034,-1.2899,-1.3526,-1.3074,-1.1014,-1.0976,-1.0225,-0.8373,-0.8175,-0.8447,-0.9163,-0.9504,-1.0117,-1.0985,-1.0872,-1.0796,-1.0989,-1.0796,-1.0877,-1.0989,-1.0865,-1.0887,-1.1111,-1.0887,-1.0812,-1.0812,-1.0812,-1.0738,-1.0663,-1.1037,-1.126,-1.1484,-1.1781,-1.215,-1.2566,-0.6592,-0.6521,-0.6451,-0.6851,-0.6662,-0.6451,-0.6315,-0.6461,-0.6332,-0.6054,-0.5845,-0.5662,-0.5394,-0.5252,-0.5059,-0.4537,-0.4773,-0.5093,-0.5201,-0.5061,-0.514,-0.5648,-0.5568,-0.5712,-0.6289,-0.6759,-0.7186,-0.7367,-0.7592,-0.7406,0.0,0.0,0.0,0.0,-0.5802,-0.5435,-0.5191,-0.4472,-0.3774,-0.3036,-0.3102,-0.2625,-0.1915,-0.1381,-0.0967,-0.0665,0.0374,0.0733,0.0897,0.1885,0.2305,0.2607,0.3132,0.3557,0.4042,0.4339,0.4851,0.5392,0.5764,0.6352,0.6877,0.7132,0.7303,0.7283,0.7003,0.6908,0.6885,0.6827,0.6166,0.5544,0.5472,0.3627,0.1236,-0.147,-0.3078,-0.4594,-0.6397,-0.8104,-0.9833,-1.1707,-1.3181,0.0,-1.4737,-1.4854,-1.4098,-1.2116,-1.1723,-1.0969,-0.979,-0.9309,-0.9214,-0.9756,-1.0133,-1.0678,-1.1218,-1.1211,-1.1217,-1.1295,-1.1093,-1.1093,-1.1159,-1.0924,-1.0887,-1.1037,-1.0663,-1.0594,-1.0738,-1.0594,-1.0513,-1.0519,-1.0663,-1.0738,-1.0812,-1.1111,-1.1558,-1.2116,-0.5531,-0.5723,-0.6048,-0.6046,-0.6116,-0.6039,-0.5767,-0.5961,-0.6003,-0.5726,-0.5381,-0.5198,-0.5062,-0.447,-0.401,-0.3812,-0.4154,-0.4223,-0.4274,-0.4594,-0.4872,-0.485,-0.4831,-0.5105,-0.5512,-0.5841,-0.6263,-0.6876,-0.6934,-0.6973,-0.6804,-0.6299,0.0,0.0,0.0,-0.4401,-0.3701,-0.3631,-0.3155,-0.2401,-0.2487,-0.222,-0.1608,-0.1069,-0.0665,-0.0374,0.0456,0.0811,0.1166,0.1974,0.2505,0.3011,0.3233,0.3723,0.4208,0.4577,0.4932,0.5375,0.5875,0.6197,0.6504,0.6849,0.688,0.6796,0.7072,0.6937,0.6694,0.6502,0.5777,0.4961,0.4201,0.1816,-0.0704,-0.2707,-0.4074,-0.5586,-0.759,-0.9127,-1.091,-1.3194,-1.4446,-1.5277,-1.5761,-1.5833,-1.506,-1.3248,-1.3439,-1.2777,-1.0701,-1.0572,-1.0466,-1.0122,-1.0741,-1.1236,-1.1516,-1.171,-1.18,-1.1766,-1.1175,-1.0911,-1.1109,-1.0761,-1.0663,-1.0812,-1.0594,-1.0513,-1.0513,-1.0519,-1.0513,-1.0443,-1.0143,-1.0293,-1.0519,-1.0443,-1.0588,-1.0968,-0.5057,-0.5218,-0.5376,-0.5646,-0.5576,-0.5353,-0.5218,-0.5248,-0.5271,-0.5271,-0.507,-0.489,-0.462,-0.4188,-0.3746,-0.343,-0.3512,-0.3589,-0.3789,-0.3982,-0.4258,-0.4477,-0.447,-0.4634,-0.4929,-0.5331,-0.5676,-0.6162,-0.6313,-0.638,-0.6267,-0.5869,-0.5538,-0.5202,-0.4632,-0.3873,-0.3103,-0.3112,-0.2593,-0.1843,-0.1997,-0.1615,-0.0905,-0.0489,-0.0192,0.0094,0.0727,0.0987,0.1256,0.1974,0.2404,0.2635,0.317,0.3506,0.3899,0.4427,0.4857,0.5234,0.5708,0.6069,0.6335,0.6544,0.6588,0.6552,0.6513,0.6339,0.6119,0.5771,0.5163,0.4181,0.2513,0.0376,-0.1666,-0.3261,-0.47,-0.6229,-0.8022,-0.9423,-1.1049,-1.315,-1.4595,-1.5536,-1.6035,-1.6428,-1.6029,-1.4429,-1.4174,-1.3487,-1.2111,-1.1493,-1.1193,-1.1235,-1.131,-1.153,-1.1908,-1.1847,-1.1771,-1.162,-1.1178,-1.0962,-1.0962,-1.0443,-1.0368,-1.0588,-1.0067,-0.9992,-1.0143,-0.9997,-0.9846,-0.9846,-0.9771,-0.9846,-0.9992,-1.0067,-1.0143,-1.0293,-0.4437,-0.4572,-0.4707,-0.4977,-0.4898,-0.4664,-0.4649,-0.4388,-0.4259,-0.4669,-0.4612,-0.4438,-0.4037,-0.3768,-0.3346,-0.3037,-0.2993,-0.3078,-0.3285,-0.3351,-0.3522,-0.3906,-0.3993,-0.4048,-0.4283,-0.4823,-0.5174,-0.521,-0.5661,-0.567,-0.5451,-0.5277,-0.5083,-0.4694,-0.406,-0.3468,-0.2801,-0.2668,-0.2205,-0.1484,-0.1507,-0.1111,-0.0403,-0.0099,0.0194,0.0473,0.0914,0.117,0.1256,0.1974,0.2218,0.2357,0.3111,0.347,0.3624,0.4229,0.4646,0.5015,0.5404,0.587,0.6153,0.6256,0.635,0.6338,0.6012,0.5766,0.5545,0.509,0.437,0.3193,0.0978,-0.0709,-0.2183,-0.3563,-0.5114,-0.6634,-0.8132,-0.9456,-1.0988,-1.2711,-1.444,-1.5549,-1.5987,-1.6684,-1.6651,-1.5463,-1.4703,-1.3947,-1.339,-1.2372,-1.1958,-1.2259,-1.1884,-1.191,-1.2305,-1.1998,-1.1727,-1.1577,-1.1216,-1.0962,-1.0812,-1.0143,-1.0067,-1.0293,-0.9625,-0.9473,-0.9771,-0.9316,-0.9165,-0.9241,-0.9241,-0.9316,-0.9392,-0.9539,-0.962,-0.969,-0.3497,-0.3902,-0.4307,-0.4037,-0.3948,-0.3968,-0.3917,-0.3679,-0.3572,-0.3984,-0.3936,-0.3767,-0.3363,-0.2961,-0.2812,-0.2641,-0.2603,-0.2692,-0.2652,-0.2824,-0.3016,-0.3007,-0.3159,-0.345,-0.3669,-0.3954,-0.4191,-0.4367,-0.4674,-0.4852,-0.4793,-0.4489,-0.4219,-0.3907,-0.3446,-0.3003,-0.2667,-0.2484,-0.1918,-0.121,-0.1515,-0.1111,-0.0403,-0.0099,0.0193,0.0468,0.0926,0.1185,0.1436,0.1974,0.2329,0.2581,0.323,0.3537,0.3825,0.4335,0.4619,0.4779,0.5243,0.5479,0.5789,0.6167,0.6208,0.6094,0.6212,0.5772,0.523,0.4804,0.3411,0.1809,0.0134,-0.1178,-0.2397,-0.3727,-0.523,-0.6664,-0.8022,-0.9638,-1.1159,-1.2487,-1.4181,-1.5413,-1.5965,-1.659,-1.6677,-1.5973,-1.5433,-1.4697,-1.379,-1.3273,-1.2907,-1.2566,-1.2654,-1.2719,-1.2746,-1.2356,-1.2113,-1.2113,-1.1238,-1.0812,-1.0812,-1.0143,-0.9916,-0.9922,-0.9473,-0.9322,-0.9322,-0.8932,-0.8851,-0.9003,-0.8479,-0.8331,-0.8479,-0.8556,-0.8627,-0.8851,-0.3228,-0.3498,-0.3632,-0.3498,-0.3515,-0.352,-0.35,-0.3379,-0.3256,-0.3122,-0.3376,-0.3363,-0.2962,-0.2807,-0.2521,-0.2374,-0.2323,-0.2286,-0.2524,-0.2598,-0.2667,-0.2855,-0.2934,-0.3004,-0.3061,-0.3375,-0.3529,-0.3517,-0.3939,-0.4143,-0.4023,-0.3826,-0.3569,-0.3085,-0.2756,-0.2399,-0.1931,-0.1795,-0.1314,-0.0706,-0.0798,-0.0497,0.0099,0.0389,0.0665,0.0836,0.1204,0.1369,0.1525,0.1974,0.2333,0.2597,0.3109,0.3322,0.3509,0.4008,0.4357,0.4618,0.5012,0.5246,0.5479,0.5792,0.5829,0.5664,0.5421,0.5006,0.4537,0.3846,0.2502,0.1074,-0.0336,-0.1595,-0.2843,-0.4148,-0.5575,-0.6911,-0.8023,-0.9455,-1.0826,-1.1944,-1.3763,-1.5121,-1.5413,-1.6408,-1.6775,-1.6205,-1.5688,-1.4856,-1.3717,-1.3492,-1.3278,-1.3016,-1.2811,-1.2716,-1.2822,-1.2346,-1.1884,-1.1507,-1.1016,-1.0663,-1.0443,-0.9846,-0.9316,-0.9008,-0.8932,-0.8703,-0.8399,-0.8241,-0.8165,-0.8093,-0.7868,-0.7868,-0.8012,-0.7868,-0.8097,-0.8327,-0.2691,-0.2826,-0.296,-0.296,-0.296,-0.296,-0.296,-0.296,-0.2827,-0.2558,-0.2692,-0.2691,-0.2558,-0.2527,-0.2369,-0.2097,-0.2048,-0.2141,-0.2383,-0.2339,-0.2416,-0.2492,-0.2574,-0.2648,-0.2601,-0.2811,-0.2985,-0.29,-0.331,-0.3438,-0.3293,-0.3275,-0.3031,-0.2489,-0.2341,-0.1966,-0.1476,-0.1303,-0.0805,-0.03,-0.0296,0.0,0.0486,0.0767,0.0942,0.111,0.148,0.1644,0.1705,0.2154,0.2413,0.2668,0.3112,0.324,0.3425,0.3863,0.4133,0.4387,0.4781,0.5012,0.5165,0.5479,0.5479,0.5274,0.4869,0.4507,0.3921,0.2849,0.1699,0.0473,-0.0687,-0.1967,-0.3157,-0.4268,-0.5641,-0.6875,-0.791,-0.9118,-1.0294,-1.1378,-1.3202,-1.4536,-1.5044,-1.6159,-1.6638,-1.6286,-1.5724,-1.5009,-1.3851,-1.3623,-1.3447,-1.329,-1.2857,-1.2702,-1.2763,-1.2182,-1.1706,-1.1186,-1.0887,-1.0513,-1.0067,-0.9392,-0.8861,-0.8327,-0.8399,-0.8165,-0.7706,-0.7633,-0.7561,-0.7407,-0.733,-0.7403,-0.7403,-0.7326,-0.7484,-0.7791,-0.1616,-0.1885,-0.2155,-0.2155,-0.2155,-0.2155,-0.2155,-0.2155,-0.2155,-0.2155,-0.1885,-0.175,-0.2155,-0.2127,-0.2097,-0.2067,-0.2036,-0.2007,-0.1979,-0.192,-0.19,-0.1929,-0.2075,-0.2263,-0.2299,-0.2603,-0.2671,-0.2625,-0.258,-0.2745,-0.2902,-0.285,-0.2622,-0.242,-0.212,-0.1818,-0.1616,-0.1313,-0.0699,0.0,0.0,0.0291,0.0763,0.0954,0.113,0.1203,0.1665,0.201,0.2243,0.2424,0.2657,0.287,0.3389,0.3371,0.3418,0.3979,0.4181,0.4155,0.4623,0.4701,0.4776,0.5165,0.5162,0.5002,0.4999,0.4454,0.3527,0.205,0.0978,0.0,-0.101,-0.2162,-0.3252,-0.4099,-0.5362,-0.6529,-0.7478,-0.8615,-0.9789,-1.0926,-1.2358,-1.3711,-1.5057,-1.5715,-1.6038,-1.6133,-1.5656,-1.5141,-1.4636,-1.3881,-1.3426,-1.32,-1.2973,-1.2826,-1.2606,-1.2003,-1.1632,-1.1409,-1.0812,-1.0293,-0.9846,-0.9084,-0.8475,-0.8102,-0.7863,-0.771,-0.7484,-0.7257,-0.7184,-0.718,-0.7019,-0.6788,-0.6641,-0.6865,-0.6942,-0.6942,-0.1212,-0.1346,-0.1481,-0.1481,-0.1481,-0.1481,-0.1481,-0.1481,-0.1481,-0.1481,-0.1335,-0.1327,-0.1459,-0.1441,-0.1291,-0.14,-0.138,-0.1365,-0.1359,-0.1332,-0.1314,-0.1188,-0.1273,-0.1365,-0.1357,-0.1462,-0.1446,-0.1421,-0.1612,-0.1679,-0.1732,-0.1721,-0.1615,-0.1313,-0.1212,-0.101,-0.0808,-0.0505,-0.01,0.0294,0.0484,0.0571,0.0746,0.1012,0.1185,0.1359,0.145,0.1805,0.2239,0.2206,0.2361,0.2594,0.3106,0.3237,0.3309,0.3624,0.4019,0.4309,0.4465,0.4621,0.4698,0.4854,0.4774,0.4518,0.4139,0.33,0.2356,0.1387,0.0503,-0.0428,-0.1597,-0.2478,-0.3344,-0.4496,-0.5509,-0.6493,-0.7394,-0.8551,-0.9461,-0.9986,-1.1646,-1.3051,-1.3853,-1.4719,-1.5504,-1.5953,-1.5263,-1.4454,-1.3726,-1.3696,-1.3419,-1.2826,-1.2893,-1.2673,-1.2224,-1.1855,-1.1409,-1.0812,-1.0443,-0.9841,-0.9084,-0.8703,-0.8174,-0.7714,-0.7638,-0.7326,-0.6868,-0.6644,-0.649,-0.6328,-0.6099,-0.6018,-0.6096,-0.6022,-0.6096,-0.6247,-0.0808,-0.0808,-0.0808,-0.1077,-0.1077,-0.1077,-0.1077,-0.1077,-0.1075,-0.1069,-0.0928,-0.0919,-0.0909,-0.0772,-0.0765,-0.1011,-0.0997,-0.0988,-0.0988,-0.0968,-0.0952,-0.0943,-0.0922,-0.0907,-0.0898,-0.0897,-0.0892,-0.0883,-0.1078,-0.1152,-0.101,-0.0909,-0.0808,-0.0606,-0.0505,-0.0303,-0.0101,0.0101,0.04,0.0687,0.0969,0.1144,0.1215,0.1476,0.1645,0.1725,0.1815,0.2078,0.233,0.2387,0.2437,0.2564,0.2993,0.3175,0.3214,0.3551,0.3901,0.4229,0.4231,0.4389,0.4467,0.4467,0.4389,0.4135,0.3538,0.2784,0.2002,0.1198,0.0296,-0.0733,-0.1791,-0.2693,-0.3652,-0.4764,-0.5617,-0.6505,-0.7487,-0.8361,-0.9145,-0.983,-1.1035,-1.2158,-1.3219,-1.3867,-1.4495,-1.5108,-1.4493,-1.3739,-1.2987,-1.3419,-1.3346,-1.2599,-1.282,-1.2599,-1.1855,-1.1632,-1.1111,-1.0368,-0.9911,-0.9231,-0.8479,-0.8169,-0.7787,-0.7249,-0.7176,-0.6868,-0.6325,-0.6193,-0.594,-0.5704,-0.5503,-0.5478,-0.5554,-0.533,-0.533,-0.5478,-0.0135,-0.0135,-0.0135,-0.0808,-0.0942,-0.0942,-0.0941,-0.1075,-0.107,-0.1055,-0.0657,-0.052,-0.0507,-0.0126,-0.0252,-0.0883,-0.0872,-0.0864,-0.0988,-0.084,-0.0825,-0.0825,-0.0799,-0.0785,-0.0785,-0.0785,-0.0784,-0.0784,-0.0759,-0.0734,-0.0708,-0.0404,-0.0303,-0.0303,0.0,0.0202,0.0505,0.0505,0.0799,0.1277,0.1571,0.1748,0.1908,0.2194,0.2263,0.2226,0.2501,0.2561,0.2608,0.2869,0.2879,0.2782,0.2947,0.3105,0.3233,0.3688,0.3763,0.3843,0.4077,0.4157,0.4157,0.4157,0.4079,0.3923,0.3219,0.2775,0.2214,0.1407,0.0303,-0.0817,-0.1788,-0.294,-0.404,-0.4883,-0.5615,-0.6523,-0.756,-0.7959,-0.8699,-1.0185,-1.0443,-1.1208,-1.3072,-1.2961,-1.3044,-1.387,-1.3582,-1.3154,-1.262,-1.3119,-1.3119,-1.2599,-1.2753,-1.2452,-1.1706,-1.126,-1.0726,-1.0115,-0.9135,-0.8447,-0.7986,-0.76,-0.7222,-0.6846,-0.6608,-0.6304,-0.5838,-0.577,-0.5638,-0.5408,-0.5056,-0.4934,-0.4934,-0.4723,-0.4654,-0.4654,0.0808,0.0808,0.0673,0.0269,0.0135,0.0134,0.0133,-0.0132,-0.0132,0.013,0.0,-0.0127,-0.0126,0.0125,0.0372,0.0124,0.0124,0.0,-0.0247,0.0,0.0,-0.0236,0.0,0.0112,0.0112,0.0336,0.0446,0.044,0.0431,0.0528,0.0516,0.0509,0.0505,0.0505,0.0808,0.0909,0.1009,0.1412,0.1698,0.1866,0.206,0.2232,0.2194,0.229,0.2378,0.2549,0.2603,0.2858,0.3108,0.3098,0.3129,0.3351,0.3465,0.3673,0.3862,0.3646,0.3763,0.4077,0.4309,0.4307,0.4384,0.4543,0.4233,0.3765,0.3217,0.2656,0.2025,0.1176,0.0233,-0.0697,-0.1879,-0.2981,-0.39,-0.4753,-0.5699,-0.6504,-0.7134,-0.786,-0.8495,-0.9074,-0.9836,-1.0616,-1.1479,-1.2049,-1.2516,-1.3051,-1.2974,-1.277,-1.2392,-1.2378,-1.2378,-1.2378,-1.2452,-1.2157,-1.1484,-1.1037,-1.0267,-0.9059,-0.8314,-0.7721,-0.7223,-0.7009,-0.664,-0.6225,-0.5956,-0.5751,-0.5544,-0.5111,-0.4913,-0.4837,-0.4659,-0.4359,-0.4145,-0.4073,-0.4,-0.3853,0.1067,0.1206,0.1212,0.0808,0.0808,0.0806,0.0799,0.0529,0.0524,0.0646,0.051,0.0504,0.05,0.062,0.0741,0.0741,0.0741,0.0617,0.0494,0.0604,0.0594,0.0471,0.0575,0.0678,0.0673,0.0785,0.089,0.0875,0.0867,0.0852,0.0935,0.1036,0.1129,0.1213,0.1528,0.1628,0.1815,0.2017,0.2207,0.2188,0.2485,0.2568,0.2546,0.2645,0.2824,0.3082,0.3022,0.3168,0.3497,0.3385,0.3414,0.3554,0.3596,0.3729,0.3847,0.367,0.3937,0.4293,0.4164,0.4231,0.4231,0.4309,0.3843,0.3374,0.3141,0.2668,0.204,0.1335,0.0393,-0.0626,-0.1547,-0.2694,-0.3737,-0.4469,-0.5338,-0.6145,-0.6657,-0.7327,-0.7939,-0.8398,-0.917,-0.9965,-1.0707,-1.1176,-1.1708,-1.2237,-1.2237,-1.2097,-1.1861,-1.1706,-1.1706,-1.1855,-1.1855,-1.1558,-1.0887,-1.0101,-0.9173,-0.8176,-0.7647,-0.7114,-0.6448,-0.6309,-0.6067,-0.5702,-0.54,-0.5267,-0.5111,-0.4621,-0.4356,-0.4207,-0.3876,-0.365,-0.3511,-0.3371,-0.3231,-0.3021,0.1454,0.1602,0.1615,0.1343,0.1208,0.1206,0.1201,0.1056,0.1042,0.1027,0.1015,0.1002,0.0989,0.0988,0.1111,0.1111,0.1111,0.1111,0.0988,0.1093,0.0956,0.0943,0.0926,0.091,0.101,0.1009,0.1114,0.1207,0.1095,0.1076,0.1147,0.1371,0.1463,0.1626,0.2056,0.2253,0.2422,0.2522,0.2522,0.2623,0.2826,0.2927,0.3026,0.3219,0.3384,0.3523,0.3443,0.3568,0.3689,0.3702,0.3632,0.3664,0.3664,0.3705,0.3817,0.3804,0.4248,0.4565,0.4049,0.401,0.4077,0.3921,0.353,0.3219,0.3141,0.2668,0.2118,0.165,0.0628,-0.039,-0.107,-0.2397,-0.355,-0.4198,-0.4968,-0.5689,-0.6237,-0.6757,-0.7334,-0.8001,-0.8618,-0.9256,-1.0157,-1.0387,-1.076,-1.1347,-1.131,-1.126,-1.1186,-1.1037,-1.0962,-1.1111,-1.1186,-1.0795,-1.0013,-0.8926,-0.8075,-0.7432,-0.7056,-0.647,-0.5735,-0.5664,-0.5461,-0.5197,-0.4888,-0.4676,-0.4544,-0.4077,-0.3753,-0.3537,-0.3119,-0.2956,-0.2824,-0.2621,-0.242,-0.2221,0.281,0.2688,0.2415,0.1988,0.1719,0.1443,0.1407,0.1146,0.1139,0.137,0.1117,0.0991,0.0988,0.1235,0.1482,0.1482,0.1729,0.1606,0.0988,0.1202,0.1181,0.0943,0.1145,0.1237,0.1234,0.1683,0.2129,0.2459,0.2093,0.1948,0.2015,0.199,0.1979,0.1978,0.2452,0.2732,0.2725,0.3027,0.323,0.3433,0.3433,0.3633,0.3825,0.357,0.3445,0.3517,0.3579,0.3711,0.3781,0.406,0.42,0.4188,0.4188,0.436,0.4511,0.4173,0.4565,0.4935,0.4331,0.4218,0.4309,0.4077,0.3843,0.3608,0.3219,0.2668,0.2118,0.165,0.0864,0.0,-0.0781,-0.2189,-0.3337,-0.3849,-0.5024,-0.5875,-0.5892,-0.671,-0.7327,-0.743,-0.8199,-0.8813,-0.896,-0.9767,-1.021,-1.021,-1.0473,-1.0594,-1.0363,-0.9992,-0.9846,-0.9846,-1.0218,-0.9894,-0.896,-0.8406,-0.7708,-0.6831,-0.6456,-0.6025,-0.543,-0.5023,-0.4745,-0.4563,-0.3846,-0.3653,-0.379,-0.3351,-0.3111,-0.3107,-0.2825,-0.2554,-0.2287,-0.1883,-0.1614,-0.1412,0.3117,0.3011,0.289,0.2609,0.2476,0.2335,0.2303,0.2157,0.2015,0.2001,0.1861,0.1728,0.1606,0.1729,0.1853,0.1975,0.2222,0.2222,0.2098,0.1828,0.168,0.1415,0.1743,0.1943,0.202,0.2356,0.2581,0.2693,0.2561,0.2407,0.2451,0.2347,0.2422,0.2464,0.2768,0.2955,0.323,0.3332,0.3534,0.3636,0.3734,0.3835,0.3831,0.3798,0.3859,0.3908,0.3987,0.4012,0.4055,0.424,0.43,0.43,0.448,0.4569,0.4652,0.4606,0.4651,0.4587,0.4491,0.4309,0.4153,0.3841,0.3608,0.3374,0.2982,0.2434,0.1963,0.1807,0.1021,0.0156,-0.0386,-0.1555,-0.262,-0.3147,-0.4179,-0.496,-0.5108,-0.5972,-0.6643,-0.6857,-0.7592,-0.8159,-0.8447,-0.8944,-0.9355,-0.9556,-0.9737,-0.9791,-0.9723,-0.9357,-0.9079,-0.8952,-0.9148,-0.8936,-0.847,-0.7668,-0.6913,-0.6264,-0.5702,-0.5222,-0.4764,-0.4361,-0.4053,-0.3762,-0.3311,-0.3113,-0.3145,-0.2703,-0.2555,-0.2555,-0.2083,-0.1882,-0.1681,-0.1412,-0.1143,-0.0874,0.3295,0.3201,0.3222,0.3212,0.3082,0.3078,0.3068,0.3036,0.2888,0.2511,0.2609,0.2468,0.2099,0.2223,0.2346,0.259,0.259,0.2714,0.2961,0.246,0.2184,0.2123,0.234,0.2534,0.2807,0.2806,0.2918,0.303,0.2907,0.2746,0.277,0.269,0.2744,0.2929,0.2971,0.3274,0.3736,0.3736,0.3736,0.3835,0.4016,0.4005,0.3899,0.3966,0.4119,0.4255,0.4165,0.4185,0.4302,0.4322,0.43,0.4389,0.4659,0.475,0.4837,0.4921,0.4739,0.4447,0.4558,0.4388,0.4001,0.3684,0.3374,0.3062,0.2904,0.2357,0.1887,0.1887,0.11,0.0312,0.0,-0.1007,-0.2001,-0.2469,-0.3346,-0.4054,-0.4442,-0.5237,-0.5912,-0.626,-0.6974,-0.7526,-0.7803,-0.8149,-0.8498,-0.8878,-0.8944,-0.8969,-0.8969,-0.8612,-0.8322,-0.808,-0.8096,-0.8011,-0.7816,-0.6818,-0.6116,-0.5665,-0.5011,-0.4564,-0.4164,-0.3761,-0.3424,-0.3092,-0.2891,-0.2688,-0.2487,-0.222,-0.2087,-0.2018,-0.148,-0.121,-0.1143,-0.0874,-0.0538,-0.0202,0.398,0.3736,0.3594,0.3422,0.3161,0.302,0.2978,0.2968,0.2843,0.2595,0.2716,0.2837,0.2467,0.2715,0.2961,0.2961,0.2961,0.2961,0.2961,0.2921,0.2757,0.271,0.2747,0.2812,0.3026,0.3026,0.3363,0.3926,0.3314,0.3148,0.3405,0.3042,0.2987,0.323,0.3439,0.374,0.3934,0.3934,0.4135,0.4332,0.4256,0.4403,0.4558,0.4235,0.4105,0.4113,0.4004,0.3961,0.3956,0.4212,0.448,0.4661,0.4661,0.4837,0.501,0.501,0.51,0.5044,0.4678,0.4388,0.4079,0.4079,0.361,0.3062,0.3062,0.2435,0.1887,0.1887,0.1178,0.0549,0.0313,-0.0784,-0.1721,-0.1945,-0.2979,-0.3913,-0.4192,-0.4991,-0.5574,-0.5858,-0.6371,-0.6765,-0.6834,-0.7313,-0.766,-0.7747,-0.7929,-0.7971,-0.7971,-0.7833,-0.7468,-0.7095,-0.7317,-0.717,-0.666,-0.6145,-0.5579,-0.4909,-0.47,-0.4359,-0.3825,-0.3291,-0.2956,-0.2686,-0.2421,-0.2153,-0.1951,-0.1951,-0.1817,-0.1614,-0.1277,-0.1008,-0.0739,-0.0067,0.0403,0.0806,0.4012,0.3891,0.3759,0.3739,0.3611,0.3603,0.3582,0.358,0.3455,0.3208,0.3209,0.3208,0.2837,0.2961,0.3085,0.3332,0.3332,0.3441,0.3531,0.354,0.3372,0.302,0.2951,0.3139,0.3699,0.3699,0.3923,0.4258,0.412,0.3963,0.4003,0.3828,0.3761,0.3795,0.3854,0.4034,0.4236,0.4236,0.4338,0.4437,0.46,0.4581,0.4462,0.4454,0.4407,0.4383,0.425,0.4168,0.4212,0.448,0.4656,0.4743,0.5015,0.5193,0.528,0.5371,0.5415,0.5331,0.516,0.4728,0.4311,0.3855,0.3374,0.3062,0.2904,0.2357,0.1887,0.1887,0.1178,0.055,0.0314,-0.0392,-0.1093,-0.1385,-0.213,-0.284,-0.3403,-0.4138,-0.4789,-0.5127,-0.5677,-0.6041,-0.6041,-0.6309,-0.663,-0.6881,-0.6957,-0.7064,-0.7129,-0.6749,-0.6347,-0.5866,-0.5586,-0.5603,-0.5993,-0.542,-0.4879,-0.4498,-0.3961,-0.3558,-0.3291,-0.2757,-0.2353,-0.2016,-0.1883,-0.1681,-0.1547,-0.1412,-0.1332,-0.1246,-0.0656,-0.0262,-0.0066,0.0459,0.0928,0.1344,0.4073,0.4073,0.4073,0.4073,0.395,0.395,0.4073,0.395,0.3826,0.3579,0.358,0.3455,0.3208,0.3209,0.3332,0.358,0.358,0.3809,0.4011,0.4134,0.3956,0.3478,0.3402,0.3587,0.4148,0.4148,0.4258,0.4592,0.4569,0.4519,0.4444,0.4367,0.429,0.4213,0.4159,0.4236,0.4537,0.4537,0.4537,0.4535,0.4706,0.469,0.4476,0.4694,0.471,0.4631,0.4555,0.4468,0.4478,0.4569,0.4656,0.4743,0.5191,0.5346,0.5406,0.5588,0.5443,0.5274,0.5157,0.4844,0.4437,0.394,0.345,0.3062,0.2904,0.2357,0.1887,0.1808,0.1178,0.055,0.0314,-0.0157,-0.0703,-0.0999,-0.153,-0.2186,-0.2743,-0.3413,-0.406,-0.4501,-0.4982,-0.5286,-0.5286,-0.5488,-0.5733,-0.6048,-0.6124,-0.6192,-0.6184,-0.5747,-0.5289,-0.4758,-0.4356,-0.4395,-0.4891,-0.44,-0.4095,-0.3964,-0.336,-0.2958,-0.2757,-0.2287,-0.1884,-0.1412,-0.148,-0.1278,-0.1009,-0.0941,-0.0798,-0.0589,-0.0065,0.0327,0.0654,0.0982,0.1522,0.2017,0.4439,0.4438,0.4438,0.4438,0.4071,0.4073,0.4316,0.4071,0.3826,0.3579,0.3703,0.3826,0.3579,0.3703,0.3951,0.3951,0.3951,0.4073,0.4438,0.4551,0.4588,0.4234,0.4107,0.4148,0.448,0.448,0.4592,0.4929,0.4521,0.455,0.4678,0.4391,0.4312,0.444,0.4438,0.4537,0.4834,0.4834,0.4834,0.4826,0.4743,0.4689,0.4747,0.4875,0.4921,0.4768,0.4774,0.4743,0.4661,0.4389,0.448,0.475,0.4921,0.5114,0.5203,0.5464,0.5294,0.5007,0.4735,0.4625,0.4598,0.4411,0.3763,0.3062,0.3062,0.2514,0.1808,0.165,0.11,0.055,0.0314,-0.0157,-0.0628,-0.0628,-0.1333,-0.2022,-0.2352,-0.2957,-0.3528,-0.3858,-0.4298,-0.4625,-0.4625,-0.4891,-0.5087,-0.5087,-0.5292,-0.5292,-0.5087,-0.4758,-0.4425,-0.4028,-0.3892,-0.3625,-0.3226,-0.3226,-0.3226,-0.3159,-0.2822,-0.2487,-0.2154,-0.1951,-0.1614,-0.1075,-0.1209,-0.0942,-0.0337,-0.0471,-0.0201,0.0336,0.047,0.0806,0.1344,0.1747,0.2353,0.3021,0.481,0.481,0.481,0.481,0.4689,0.4687,0.4687,0.4441,0.4193,0.4193,0.3948,0.3828,0.3826,0.4071,0.4193,0.4193,0.4441,0.4687,0.4687,0.4623,0.4767,0.494,0.4562,0.4482,0.4817,0.4817,0.4931,0.5268,0.507,0.5013,0.5092,0.4835,0.4753,0.4828,0.4764,0.4736,0.4834,0.4834,0.4834,0.4832,0.4808,0.479,0.4765,0.472,0.4748,0.4904,0.4756,0.4685,0.4748,0.4746,0.4832,0.5013,0.5371,0.5528,0.559,0.559,0.5505,0.5384,0.5181,0.4928,0.4437,0.394,0.345,0.3062,0.2904,0.2511,0.2041,0.1886,0.1257,0.0786,0.055,0.0157,-0.0236,-0.0393,-0.0707,-0.1168,-0.1595,-0.2219,-0.2738,-0.3229,-0.3755,-0.4092,-0.4161,-0.4422,-0.4553,-0.4553,-0.4622,-0.4556,-0.4359,-0.4159,-0.3825,-0.3426,-0.3157,-0.2889,-0.249,-0.2755,-0.2822,-0.2822,-0.2218,-0.1816,-0.1546,-0.1254,-0.0981,-0.0653,-0.0703,-0.0578,-0.0262,-0.0065,0.0258,0.0634,0.11,0.1464,0.1783,0.2199,0.2657,0.3099,0.5304,0.5302,0.5302,0.5179,0.4933,0.4933,0.5054,0.4808,0.4562,0.4562,0.4442,0.4319,0.4319,0.4441,0.4562,0.4562,0.5028,0.5133,0.5009,0.5172,0.519,0.5358,0.5,0.4931,0.5043,0.5043,0.5156,0.5382,0.529,0.5224,0.5188,0.5041,0.4953,0.4914,0.4859,0.4834,0.4834,0.4834,0.4834,0.4834,0.4834,0.4814,0.4773,0.4762,0.4791,0.483,0.4863,0.4871,0.4835,0.4921,0.5099,0.5191,0.5463,0.552,0.5484,0.5574,0.5456,0.5225,0.5237,0.4887,0.4386,0.3616,0.3294,0.3062,0.2982,0.2511,0.2118,0.1962,0.1414,0.0943,0.055,0.0236,-0.0079,-0.0236,-0.0471,-0.0779,-0.1216,-0.1703,-0.2236,-0.2739,-0.3279,-0.3627,-0.3763,-0.3959,-0.409,-0.3959,-0.3889,-0.3758,-0.3627,-0.3424,-0.3224,-0.2893,-0.2554,-0.2218,-0.1951,-0.1882,-0.1947,-0.215,-0.1479,-0.1136,-0.1059,-0.0651,-0.0449,-0.0444,-0.0311,-0.0125,0.0127,0.0508,0.0878,0.1234,0.1697,0.2105,0.24,0.2755,0.314,0.3625,0.6162,0.5916,0.5794,0.5544,0.5177,0.5056,0.5421,0.5177,0.4933,0.4933,0.4935,0.4935,0.4935,0.4933,0.4933,0.4933,0.5469,0.5656,0.5406,0.5722,0.5855,0.5508,0.5426,0.5382,0.5382,0.5382,0.5382,0.5382,0.529,0.5198,0.5106,0.5014,0.4922,0.4834,0.4834,0.4834,0.4834,0.4834,0.4834,0.4834,0.4834,0.4783,0.4706,0.4988,0.4966,0.4896,0.5069,0.5091,0.501,0.501,0.5191,0.5371,0.5371,0.53,0.53,0.5464,0.5228,0.4978,0.4877,0.4634,0.4238,0.3604,0.3294,0.3139,0.3062,0.2668,0.2195,0.196,0.157,0.11,0.0471,0.0157,-0.0079,-0.0236,-0.0471,-0.0701,-0.1064,-0.1408,-0.1877,-0.2387,-0.287,-0.3228,-0.3429,-0.3627,-0.3625,-0.3431,-0.3228,-0.3092,-0.2958,-0.2755,-0.2554,-0.2356,-0.2018,-0.1748,-0.148,-0.0807,-0.0739,-0.121,-0.0672,-0.0531,-0.0648,-0.0193,-0.0063,-0.0185,0.0123,0.0429,0.0799,0.1107,0.1536,0.1965,0.234,0.2764,0.3177,0.3371,0.3851,0.4321,0.6655,0.6528,0.628,0.6158,0.5914,0.5671,0.5794,0.5546,0.5298,0.5298,0.5056,0.4935,0.4935,0.5425,0.5671,0.5671,0.6196,0.6348,0.5917,0.592,0.5855,0.5508,0.565,0.5603,0.5382,0.5382,0.5491,0.5712,0.5397,0.5198,0.5106,0.5014,0.4922,0.4834,0.5037,0.514,0.514,0.514,0.514,0.514,0.514,0.4984,0.47,0.4912,0.4998,0.5066,0.5075,0.5121,0.5282,0.5282,0.5371,0.5371,0.5371,0.5445,0.5585,0.5315,0.5339,0.5262,0.5002,0.4771,0.4409,0.3857,0.3528,0.3294,0.2746,0.2668,0.2511,0.2043,0.1571,0.1178,0.0628,0.0236,0.0,-0.0079,-0.0236,-0.0467,-0.0684,-0.1037,-0.1444,-0.1969,-0.2258,-0.2555,-0.2822,-0.2887,-0.2887,-0.2889,-0.2822,-0.2755,-0.2557,-0.2423,-0.2153,-0.1817,-0.1547,-0.1143,-0.0605,-0.0403,-0.047,-0.0672,-0.0135,0.0134,0.02,0.0318,0.0497,0.0739,0.0645,0.0814,0.1251,0.1606,0.2021,0.2443,0.2993,0.323,0.3385,0.3882,0.4201,0.4575,0.7143,0.7018,0.6773,0.665,0.653,0.6407,0.6407,0.6037,0.5912,0.6037,0.5792,0.5669,0.5794,0.6122,0.6198,0.615,0.6532,0.6567,0.6281,0.6296,0.624,0.5899,0.5848,0.5824,0.5828,0.5493,0.5491,0.5822,0.5397,0.5198,0.532,0.512,0.5024,0.5037,0.514,0.524,0.5438,0.5438,0.5438,0.5438,0.5438,0.5253,0.5021,0.5063,0.5136,0.5084,0.5121,0.5371,0.5552,0.546,0.5463,0.5552,0.5552,0.5644,0.562,0.5323,0.5248,0.5252,0.4834,0.4591,0.43,0.3932,0.3682,0.337,0.2902,0.2746,0.2511,0.212,0.1649,0.1178,0.0786,0.0393,0.0157,0.0157,0.0,-0.0234,-0.0532,-0.0815,-0.1155,-0.1758,-0.2053,-0.2354,-0.2686,-0.2686,-0.2619,-0.2487,-0.2488,-0.2421,-0.2018,-0.1951,-0.1749,-0.148,-0.1076,-0.0672,-0.0336,0.0134,0.0334,0.0198,0.0528,0.0655,0.0774,0.0925,0.1018,0.1061,0.1195,0.1357,0.1611,0.2011,0.2413,0.276,0.3278,0.3634,0.3811,0.4276,0.4755,0.5242,0.7508,0.7385,0.7266,0.7021,0.69,0.69,0.69,0.6653,0.6528,0.69,0.6653,0.6644,0.6874,0.6779,0.6669,0.6679,0.6822,0.6759,0.6512,0.6651,0.6604,0.6274,0.6047,0.5935,0.6163,0.5714,0.5603,0.5822,0.5397,0.5306,0.5534,0.5224,0.5129,0.524,0.534,0.5438,0.5636,0.5636,0.5636,0.5634,0.5617,0.5496,0.5327,0.5308,0.5274,0.5099,0.5282,0.5552,0.5644,0.5463,0.5552,0.5733,0.5644,0.5644,0.562,0.5236,0.5122,0.4924,0.4654,0.4311,0.4079,0.3843,0.3682,0.3448,0.3139,0.2826,0.2431,0.2196,0.1727,0.1257,0.0943,0.0628,0.0314,0.0314,0.0157,-0.0078,-0.0456,-0.0667,-0.0938,-0.1546,-0.1916,-0.2287,-0.2552,-0.2552,-0.242,-0.2154,-0.2221,-0.2018,-0.1547,-0.1547,-0.1412,-0.1076,-0.0538,-0.0202,-0.0134,0.0672,0.1128,0.1098,0.1156,0.1139,0.111,0.1432,0.1507,0.13,0.1684,0.1902,0.2069,0.2464,0.2854,0.3183,0.3633,0.4079,0.4411,0.4853,0.5449,0.6105,0.7872,0.763,0.7385,0.7385,0.7143,0.69,0.69,0.69,0.69,0.69,0.69,0.6865,0.6772,0.6906,0.7031,0.714,0.7231,0.7066,0.6631,0.6723,0.6604,0.6274,0.6274,0.6161,0.5824,0.5824,0.571,0.5822,0.5397,0.5198,0.5212,0.5331,0.5335,0.524,0.5641,0.5942,0.5942,0.5942,0.5942,0.5932,0.5836,0.5625,0.532,0.5508,0.5484,0.5371,0.5371,0.5552,0.5644,0.5463,0.5552,0.5644,0.5463,0.546,0.5351,0.4978,0.4784,0.468,0.4333,0.4154,0.4079,0.3843,0.3682,0.3448,0.3139,0.2826,0.2433,0.2043,0.1572,0.1257,0.0943,0.0707,0.0471,0.0314,0.0314,0.0156,-0.0304,-0.037,-0.0577,-0.1125,-0.1642,-0.1951,-0.2018,-0.2018,-0.2018,-0.1951,-0.1817,-0.1547,-0.121,-0.1143,-0.0875,-0.0202,-0.0067,0.0202,0.0674,0.0942,0.1193,0.1417,0.1695,0.1732,0.16,0.161,0.1818,0.2159,0.2154,0.2462,0.2963,0.3188,0.3574,0.4067,0.4567,0.4897,0.5226,0.5941,0.6485,0.7003,0.8241,0.8241,0.8119,0.7752,0.7755,0.7635,0.7508,0.721,0.7173,0.7296,0.7123,0.6946,0.713,0.714,0.714,0.7244,0.7233,0.7211,0.6937,0.6932,0.6824,0.6495,0.6386,0.6161,0.5822,0.5822,0.5795,0.5738,0.5479,0.5411,0.5428,0.5536,0.5537,0.5438,0.5839,0.6042,0.6239,0.6239,0.6239,0.6234,0.6184,0.6095,0.5893,0.5939,0.5898,0.5636,0.5484,0.5463,0.5552,0.546,0.5463,0.5552,0.5552,0.5463,0.5351,0.4981,0.4699,0.4428,0.4087,0.3993,0.3921,0.3841,0.3528,0.3217,0.3141,0.2668,0.2276,0.1964,0.1493,0.1021,0.0943,0.0628,0.0393,0.0314,0.0311,0.0153,-0.0223,-0.0217,-0.0353,-0.0893,-0.1219,-0.148,-0.148,-0.148,-0.1412,-0.1277,-0.1277,-0.1144,-0.0673,-0.0672,-0.0404,0.0135,0.0471,0.074,0.0942,0.1345,0.1578,0.1697,0.1985,0.2015,0.1918,0.2032,0.2232,0.2518,0.2595,0.2856,0.3299,0.358,0.3965,0.4401,0.4952,0.5445,0.5996,0.6647,0.7133,0.7526]}]]